[[{"header":{"parameterUnit":"m.s-1","parameterCategory":1,"la1":30.6,"la2":29.2853,"lo1":-89.7004,"lo2":-87.6739,"dy":0.0162,"dx":0.0183,"nx":112,"ny":82,"refTime":"2023-10-12T00:00:00:Z","depth":0,"parameterNumber":2,"parameterNumberName":"U-component_of_WINDS"},"data":[0.0,0.0,0.0,0.0,0.0,0.0,0.0,0.0,0.0,0.0,0.0,0.0,0.0,0.0,0.0,0.0,0.0,0.0,0.0,0.0,0.0,0.0,0.0,0.0,0.0,0.0,0.0,0.0,0.0,0.0,0.0,0.0,0.0,0.0,0.0,0.0,0.0,0.0,0.0,0.0,0.0,0.0,0.0,0.0,0.0,0.0,0.0,0.0,0.0,0.0,0.0,0.0,0.0,0.0,0.0,0.0,0.0,0.0,0.0,0.0,0.0,0.0,0.0,0.0,0.0,0.0,0.0,0.0,0.0,0.0,0.0,0.0,0.0,0.0,0.0,0.0,0.0,0.0,0.0,0.0,0.0,0.0,0.0,0.0,0.0,0.0,0.0,0.0,0.0,0.0,2.7033,2.6541,2.5493,2.446,2.3645,2.3573,2.3632,2.3748,0.0,0.0,0.0,0.0,0.0,0.0,0.0,0.0,0.0,0.0,0.0,0.0,0.0,0.0,0.0,0.0,0.0,0.0,0.0,0.0,0.0,0.0,0.0,0.0,0.0,0.0,0.0,0.0,0.0,0.0,0.0,0.0,0.0,0.0,0.0,0.0,0.0,0.0,0.0,0.0,0.0,0.0,0.0,0.0,0.0,0.0,0.0,0.0,0.0,0.0,0.0,0.0,0.0,0.0,0.0,0.0,0.0,0.0,0.0,0.0,0.0,0.0,0.0,0.0,0.0,0.0,0.0,0.0,0.0,0.0,0.0,0.0,0.0,0.0,0.0,0.0,0.0,0.0,0.0,0.0,0.0,0.0,0.0,0.0,0.0,0.0,0.0,0.0,0.0,0.0,0.0,0.0,0.0,0.0,0.0,0.0,0.0,0.0,0.0,0.0,0.0,0.0,0.0,0.0,2.5364,2.2836,2.2359,2.1981,2.1181,2.1118,2.1397,2.2006,0.0,0.0,0.0,0.0,0.0,0.0,0.0,0.0,0.0,0.0,0.0,0.0,0.0,0.0,0.0,0.0,0.0,0.0,0.0,0.0,0.0,0.0,0.0,0.0,0.0,0.0,0.0,0.0,0.0,0.0,0.0,0.0,0.0,0.0,0.0,0.0,0.0,0.0,0.0,0.0,0.0,0.0,0.0,0.0,0.0,0.0,0.0,0.0,0.0,0.0,0.0,0.0,0.0,0.0,0.0,0.0,0.0,0.0,0.0,0.0,0.0,0.0,0.0,0.0,0.0,0.0,0.0,0.0,0.0,0.0,0.0,0.0,0.0,0.0,0.0,0.0,0.0,0.0,0.0,0.0,0.0,0.0,0.0,0.0,0.0,0.0,0.0,0.0,0.0,0.0,0.0,0.0,0.0,0.0,0.0,0.0,0.0,0.0,0.0,0.0,0.0,0.0,0.0,2.4651,2.3541,2.1323,2.1095,2.0801,1.9944,1.989,2.0052,2.0395,2.1112,0.0,0.0,0.0,0.0,0.0,0.0,0.0,0.0,0.0,0.0,0.0,0.0,0.0,0.0,0.0,0.0,0.0,0.0,0.0,0.0,0.0,0.0,0.0,0.0,0.0,0.0,0.0,0.0,0.0,0.0,0.0,0.0,0.0,0.0,0.0,0.0,0.0,0.0,0.0,0.0,0.0,0.0,0.0,0.0,0.0,0.0,0.0,0.0,0.0,0.0,0.0,0.0,0.0,0.0,0.0,0.0,0.0,0.0,0.0,0.0,0.0,0.0,0.0,0.0,0.0,0.0,0.0,0.0,0.0,0.0,0.0,0.0,0.0,0.0,0.0,0.0,0.0,0.0,0.0,0.0,0.0,0.0,0.0,0.0,0.0,0.0,0.0,0.0,0.0,0.0,0.0,0.0,0.0,0.0,0.0,0.0,0.0,0.0,0.0,0.0,0.0,0.0,2.2372,2.151,1.9846,1.9661,1.9323,1.8402,1.8335,1.8402,1.8613,1.889,0.0,0.0,0.0,0.0,0.0,0.0,0.0,0.0,0.0,0.0,0.0,0.0,0.0,0.0,0.0,0.0,0.0,0.0,0.0,0.0,0.0,0.0,0.0,0.0,0.0,0.0,0.0,0.0,0.0,0.0,0.0,0.0,0.0,0.0,0.0,0.0,0.0,0.0,0.0,0.0,0.0,0.0,0.0,0.0,0.0,0.0,0.0,0.0,0.0,0.0,0.0,0.0,0.0,0.0,0.0,0.0,0.0,0.0,0.0,0.0,0.0,0.0,0.0,0.0,0.0,0.0,0.0,0.0,0.0,0.0,0.0,0.0,0.0,0.0,0.0,0.0,0.0,0.0,0.0,0.0,0.0,0.0,0.0,0.0,0.0,0.0,0.0,0.0,0.0,0.0,0.0,0.0,0.0,0.0,0.0,0.0,0.0,0.0,0.0,0.0,0.0,0.0,2.0523,1.888,1.707,1.6844,1.6489,1.5579,1.5508,1.586,1.6697,1.7571,0.0,0.0,0.0,0.0,0.0,0.0,0.0,0.0,0.0,0.0,0.0,0.0,0.0,0.0,0.0,0.0,0.0,0.0,0.0,0.0,0.0,0.0,0.0,0.0,0.0,0.0,0.0,0.0,0.0,0.0,0.0,0.0,0.0,0.0,0.0,0.0,0.0,0.0,0.0,0.0,0.0,0.0,0.0,0.0,0.0,0.0,0.0,0.0,0.0,0.0,0.0,0.0,0.0,0.0,0.0,0.0,0.0,0.0,0.0,0.0,0.0,0.0,0.0,0.0,0.0,0.0,0.0,0.0,0.0,0.0,0.0,0.0,0.0,0.0,0.0,0.0,0.0,0.0,0.0,0.0,0.0,0.0,0.0,0.0,0.0,0.0,0.0,0.0,0.0,0.0,0.0,0.0,0.0,0.0,0.0,0.0,0.0,0.0,0.0,0.0,0.0,0.0,1.9661,1.8623,0.0,1.6576,1.6498,1.607,1.607,1.6605,1.7792,0.0,0.0,0.0,0.0,0.0,0.0,0.0,0.0,0.0,0.0,0.0,0.0,0.0,0.0,0.0,0.0,0.0,0.0,0.0,0.0,0.0,0.0,0.0,0.0,0.0,0.0,0.0,0.0,0.0,0.0,0.0,0.0,0.0,0.0,0.0,0.0,0.0,0.0,0.0,0.0,0.0,0.0,0.0,0.0,0.0,0.0,0.0,0.0,0.0,0.0,0.0,0.0,0.0,0.0,0.0,0.0,0.0,0.0,0.0,0.0,0.0,0.0,0.0,0.0,0.0,0.0,0.0,0.0,0.0,0.0,0.0,0.0,0.0,0.0,0.0,0.0,0.0,0.0,0.0,0.0,0.0,0.0,0.0,0.0,0.0,0.0,0.0,0.0,0.0,0.0,0.0,0.0,0.0,0.0,0.0,0.0,0.0,0.0,0.0,0.0,0.0,0.0,1.9552,1.9044,1.8297,0.0,1.6349,1.6,1.572,1.5649,1.6237,1.7654,0.0,0.0,0.0,0.0,0.0,0.0,0.0,0.0,0.0,0.0,0.0,0.0,0.0,0.0,0.0,0.0,0.0,0.0,0.0,0.0,0.0,0.0,0.0,0.0,0.0,0.0,0.0,0.0,0.0,0.0,0.0,0.0,0.0,0.0,0.0,0.0,0.0,0.0,0.0,0.0,0.0,0.0,0.0,0.0,0.0,0.0,0.0,0.0,0.0,0.0,0.0,0.0,0.0,0.0,0.0,0.0,0.0,0.0,0.0,0.0,0.0,0.0,0.0,0.0,0.0,0.0,0.0,0.0,0.0,0.0,0.0,0.0,0.0,0.0,0.0,0.0,0.0,0.0,0.0,0.0,0.0,0.0,0.0,0.0,0.0,0.0,0.0,0.0,0.0,0.0,0.0,0.0,0.0,0.0,0.0,0.0,0.0,0.0,0.0,0.0,0.0,0.0,1.9299,1.8529,1.7647,1.6706,1.5728,1.4816,1.3825,1.3753,1.4325,0.0,0.0,0.0,0.0,0.0,0.0,0.0,0.0,0.0,0.0,0.0,0.0,0.0,0.0,0.0,0.0,0.0,0.0,0.0,0.0,0.0,0.0,0.0,0.0,0.0,0.0,0.0,0.0,0.0,0.0,0.0,0.0,0.0,0.0,0.0,0.0,0.0,0.0,0.0,0.0,0.0,0.0,0.0,0.0,0.0,0.0,0.0,0.0,0.0,0.0,0.0,0.0,0.0,0.0,0.0,0.0,0.0,0.0,0.0,0.0,0.0,0.0,0.0,0.0,0.0,0.0,0.0,0.0,0.0,0.0,0.0,0.0,0.0,0.0,0.0,0.0,0.0,0.0,0.0,0.0,0.0,0.0,0.0,0.0,0.0,0.0,0.0,0.0,0.0,0.0,0.0,0.0,0.0,0.0,0.0,0.0,0.0,0.0,0.0,0.0,0.0,0.0,0.0,1.8462,1.8134,1.7364,1.5799,1.553,1.5389,1.517,1.5322,1.6363,1.8583,0.0,0.0,0.0,0.0,0.0,0.0,0.0,0.0,0.0,0.0,0.0,0.0,0.0,0.0,0.0,0.0,0.0,0.0,0.0,0.0,0.0,0.0,0.0,0.0,0.0,0.0,0.0,0.0,0.0,0.0,0.0,0.0,0.0,0.0,0.0,0.0,0.0,0.0,0.0,0.0,0.0,0.0,0.0,0.0,0.0,0.0,0.0,0.0,0.0,0.0,0.0,0.0,0.0,0.0,0.0,0.0,0.0,0.0,0.0,0.0,0.0,0.0,0.0,0.0,0.0,0.0,0.0,0.0,0.0,0.0,0.0,0.0,0.0,0.0,0.0,0.0,0.0,0.0,0.0,0.0,0.0,0.0,0.0,0.0,0.0,0.0,0.0,0.0,0.0,0.0,0.0,0.0,0.0,0.0,0.0,0.0,0.0,0.0,0.0,0.0,0.0,0.0,1.8076,1.8154,1.7827,1.6669,1.6512,1.6516,1.6664,1.6796,1.7619,1.9269,0.0,0.0,0.0,0.0,0.0,0.0,0.0,0.0,0.0,0.0,0.0,0.0,0.0,0.0,0.0,0.0,0.0,0.0,0.0,0.0,0.0,0.0,0.0,0.0,0.0,0.0,0.0,0.0,0.0,0.0,0.0,0.0,0.0,0.0,0.0,0.0,0.0,0.0,0.0,0.0,0.0,0.0,0.0,0.0,0.0,0.0,0.0,0.0,0.0,0.0,0.0,0.0,0.0,0.0,0.0,0.0,0.0,0.0,0.0,0.0,0.0,0.0,0.0,0.0,0.0,0.0,0.0,0.0,0.0,0.0,0.0,0.0,0.0,0.0,0.0,0.0,0.0,0.0,0.0,0.0,0.0,0.0,0.0,0.0,0.0,0.0,0.0,0.0,0.0,0.0,0.0,0.0,0.0,0.0,0.0,0.0,0.0,0.0,0.0,0.0,0.0,0.0,1.8125,1.8467,1.8621,1.855,1.8192,1.7913,1.7988,1.794,1.8197,1.8705,0.0,0.0,0.0,0.0,0.0,0.0,0.0,0.0,0.0,0.0,0.0,0.0,0.0,0.0,0.0,0.0,0.0,0.0,0.0,0.0,0.0,0.0,0.0,0.0,0.0,0.0,0.0,0.0,0.0,0.0,0.0,0.0,0.0,0.0,0.0,0.0,0.0,0.0,0.0,0.0,0.0,0.0,0.0,0.0,0.0,0.0,0.0,0.0,0.0,0.0,0.0,0.0,0.0,0.0,0.0,0.0,0.0,0.0,0.0,0.0,1.1668,0.0,0.0,0.0,0.0,0.0,0.0,0.0,0.0,0.0,0.0,0.0,0.0,0.0,0.0,0.0,0.0,0.0,0.0,0.0,0.0,0.0,0.0,0.0,0.0,0.0,0.0,0.0,0.0,0.0,0.0,0.0,0.0,0.0,0.0,0.0,0.0,0.0,0.0,0.0,0.0,0.0,1.8975,1.9092,1.8851,1.8101,1.8152,1.8235,1.8388,1.8602,1.9141,2.0101,2.0343,0.0,0.0,0.0,0.0,0.0,0.0,0.0,0.0,0.0,0.0,0.0,0.0,0.0,0.0,0.0,0.0,0.0,0.0,0.0,0.0,0.0,0.0,0.0,0.0,0.0,0.0,0.0,0.0,0.0,0.0,0.0,0.0,0.0,0.0,0.0,0.0,0.0,0.0,0.0,0.0,0.0,0.0,0.0,0.0,0.0,0.0,0.0,0.0,0.0,0.0,0.0,0.0,0.0,0.0,0.0,0.0,0.0,0.0,0.0,0.0,1.2137,0.0,0.0,0.0,0.0,0.0,0.0,0.0,0.0,0.0,0.0,0.0,0.0,0.0,0.0,0.0,0.0,0.0,0.0,0.0,0.0,0.0,0.0,0.0,0.0,0.0,0.0,0.0,0.0,0.0,0.0,0.0,0.0,0.0,0.0,0.0,0.0,0.0,0.0,0.0,0.0,1.9258,1.9463,1.9432,1.8901,1.9193,1.9437,1.9514,1.9643,2.0001,2.0566,2.0566,0.0,0.0,0.0,0.0,0.0,0.0,0.0,0.0,0.0,0.0,0.0,0.0,0.0,0.0,0.0,0.0,0.0,0.0,0.0,0.0,0.0,0.0,0.0,0.0,0.0,0.0,0.0,0.0,0.0,0.0,0.0,0.0,0.0,0.0,0.0,0.0,0.0,0.0,0.0,0.0,0.0,0.0,0.0,0.0,0.0,0.0,0.0,0.0,0.0,0.0,0.0,0.0,0.0,0.3519,0.5553,0.6338,0.7142,0.7545,0.7618,0.9487,1.0473,1.0825,1.1717,0.0,0.0,0.0,0.0,0.0,0.0,0.0,0.0,0.0,0.0,0.0,0.0,0.0,0.0,0.0,0.0,0.0,0.0,0.0,0.0,0.0,0.0,0.0,0.0,1.8008,1.8202,1.8911,0.0,0.0,0.0,0.0,0.0,0.0,0.0,0.0,0.0,0.0,0.0,1.9502,1.9814,2.0029,2.0029,2.0352,2.0566,2.0566,2.0566,2.0566,2.0566,2.0789,2.168,0.0,0.0,0.0,0.0,0.0,0.0,0.0,0.0,0.0,0.0,0.0,0.0,0.0,0.0,0.0,0.0,0.0,0.0,0.0,0.0,0.0,0.0,0.0,0.0,0.0,0.0,0.0,0.0,0.0,0.0,0.0,0.0,-0.3294,-0.715,0.0,0.0,0.0,0.0,0.0,0.0,0.0,0.0,0.0,0.0,0.0,0.0,0.0,-0.4382,-0.6288,-0.5764,-0.3626,-0.0,0.0549,0.2737,0.6338,0.6419,0.65,0.6578,0.7675,0.0,1.0819,1.0905,0.0,0.0,0.0,0.0,0.0,0.0,0.0,0.0,0.0,0.0,0.0,0.0,0.0,0.0,0.0,0.0,0.0,0.0,0.0,0.0,0.0,0.0,1.8008,1.8008,1.8008,1.8008,0.0,1.8134,1.8134,1.8134,1.8134,0.0,0.0,0.0,0.0,0.0,0.0,0.0,2.0352,2.0439,2.0478,2.0478,2.0527,2.0566,2.0566,2.0566,2.0566,2.0566,2.1375,2.2328,2.3441,2.4337,0.0,0.0,0.0,0.0,0.0,0.0,0.0,0.0,0.0,0.0,0.0,0.0,0.0,0.0,0.0,0.0,0.0,0.0,0.0,0.0,0.0,0.0,0.0,0.0,0.0,0.0,0.0,0.0,0.0,-0.2425,-0.5727,-0.7794,-0.8832,-0.9505,0.0,0.0,0.0,0.0,0.0,0.0,0.0,0.0,0.0,-0.6247,-0.4215,-0.2971,-0.2744,-0.2752,-0.1808,-0.0,-0.0,0.1568,0.455,0.5718,0.6338,0.6338,0.674,0.7808,0.914,0.9691,1.0574,1.147,0.0,0.0,0.0,0.0,1.2553,1.2896,1.3058,1.3273,1.3765,1.4872,0.0,0.0,0.0,0.0,0.0,0.0,0.0,0.0,0.0,0.0,1.8008,1.8008,1.8008,1.8008,1.8008,1.8008,1.8008,0.0,1.7891,1.7981,1.8501,0.0,0.0,0.0,0.0,2.0352,2.0537,2.0566,2.0566,2.0566,2.0566,2.0566,2.0566,2.1078,2.1375,2.1375,2.2328,2.3294,2.4264,2.4791,2.5441,0.0,0.0,0.0,0.0,0.0,0.0,0.0,0.0,0.0,0.0,0.0,0.0,0.0,0.0,0.0,0.0,0.0,0.0,0.0,0.0,0.0,0.0,0.0,0.0,0.0,0.0,0.0,0.0,-0.5257,-0.6659,-0.7708,-0.8456,-0.922,0.0,0.0,0.0,0.0,0.0,0.0,-0.8917,-0.8322,-0.7403,-0.6244,-0.3669,-0.1565,-0.0,-0.0,-0.0,-0.0,-0.0,0.11,0.3149,0.5329,0.6338,0.6338,0.6338,0.674,0.7529,0.8463,0.9654,1.0789,1.0775,1.1396,1.2305,1.2305,1.2305,1.2385,1.3065,1.2889,1.2606,1.4237,1.5125,1.5644,1.6105,0.0,0.0,0.0,0.0,1.7736,1.793,1.8008,1.8008,1.8008,1.8008,1.8037,1.8144,1.8045,1.7944,0.0,1.8024,1.8118,1.8831,0.0,0.0,0.0,0.0,2.0566,2.0566,2.0566,2.0566,2.0566,2.0566,2.0712,2.0934,2.1375,2.1886,2.2328,2.3073,2.3963,2.4933,2.5229,2.5734,2.6465,0.0,0.0,0.0,0.0,0.0,0.0,0.0,0.0,0.0,0.0,0.0,0.0,0.0,0.0,0.0,0.0,0.0,0.0,0.0,0.0,0.0,0.0,0.0,0.0,0.0,0.0,0.0,0.0,0.0,-0.6419,-0.7258,0.0,0.0,0.0,0.0,-0.9408,-0.9347,-0.8875,-0.7936,-0.8115,-0.7671,-0.6369,-0.2273,-0.0079,-0.0,-0.0,-0.0,-0.0,-0.0,0.11,0.3149,0.5329,0.6338,0.6338,0.6338,0.6338,0.6419,0.7451,0.8995,1.0798,1.0789,1.1396,1.2305,1.2305,1.2305,1.2305,1.2378,1.2305,1.2466,1.3469,1.5037,1.6351,1.5545,1.5904,0.0,0.0,1.6674,1.6856,1.7745,1.8008,1.8008,1.8008,1.8008,1.8115,1.8516,1.8124,1.7908,0.0,1.8572,1.8844,1.9717,0.0,2.0059,2.0469,2.0547,2.0566,2.0566,2.0566,2.0566,2.0566,2.0566,2.0934,2.1886,2.1155,2.1451,2.3294,2.3441,2.3963,2.4933,2.5955,2.6465,2.6533,2.7284,0.0,0.0,0.0,0.0,0.0,0.0,0.0,0.0,0.0,0.0,0.0,0.0,0.0,0.0,0.0,0.0,0.0,0.0,0.0,0.0,0.0,0.0,0.0,0.0,0.0,0.0,0.0,0.0,-0.7219,-0.7553,0.0,-0.8699,-0.8538,-0.836,-0.8344,-0.7702,-0.7184,-0.6872,-0.6957,-0.6813,-0.6285,-0.3521,-0.1331,-0.0,-0.0,-0.0,-0.0,-0.0,0.1178,0.3465,0.5569,0.6578,0.6578,0.65,0.6821,0.7386,0.7708,0.8604,0.99,1.0553,1.1396,1.2305,1.2305,1.2305,1.2305,1.2305,1.2305,1.2466,1.3395,1.4605,1.5774,1.6,1.6334,1.6741,1.7306,1.7507,1.7571,1.792,1.8008,1.8008,1.8008,1.8213,1.8457,1.8603,1.8687,1.8867,1.936,1.9145,1.9108,1.9752,2.0146,2.0391,2.0537,2.0566,2.0566,2.0566,2.0566,2.0566,2.0566,2.0566,2.1003,2.1927,2.2294,2.3003,2.4403,2.5051,2.5569,2.5943,2.6314,2.6533,2.6533,2.6782,2.6905,0.0,0.0,0.0,0.0,0.0,0.0,0.0,0.0,0.0,0.0,0.0,0.0,0.0,0.0,0.0,0.0,0.0,0.0,0.0,0.0,0.0,0.0,0.0,0.0,0.0,0.0,-0.6578,-0.7223,-0.7305,-0.7545,-0.8198,-0.7718,-0.7275,-0.7275,-0.67,-0.6338,-0.6338,-0.6305,-0.6315,-0.6281,-0.4222,-0.2111,-0.0,-0.0,-0.0,-0.0,0.1649,0.2805,0.3634,0.5752,0.6725,0.6725,0.664,0.7187,0.8185,0.8421,0.9118,1.016,1.0587,1.1396,1.2305,1.2305,1.2305,1.2378,1.264,1.2802,1.3015,1.4232,1.5096,1.5783,1.6423,1.6578,1.6767,1.7324,1.7516,1.7571,1.792,1.8115,1.8223,1.8223,1.8545,1.8896,1.9033,1.9297,1.9629,2.0049,1.9697,1.9503,2.008,2.0371,2.0566,2.0566,2.0566,2.0566,2.0566,2.0566,2.0566,2.0566,2.0868,2.1484,2.2449,2.2842,2.3706,2.5382,2.5492,2.5791,2.6452,2.6533,2.6533,2.6533,2.6784,2.7036,2.737,0.0,0.0,0.0,0.0,0.0,0.0,0.0,0.0,0.0,0.0,0.0,0.0,0.0,0.0,0.0,0.0,0.0,0.0,0.0,0.0,0.0,0.0,0.0,-0.442,-0.5416,-0.6338,-0.6338,-0.6338,-0.6338,-0.6338,-0.6338,-0.6338,-0.6338,-0.6271,-0.6274,-0.6274,-0.6407,-0.642,-0.6295,-0.4231,-0.2117,-0.0,-0.0,-0.0,0.009,0.4786,0.5882,0.3782,0.5902,0.6776,0.6688,0.6688,0.7341,0.8458,0.9466,1.0621,1.1607,1.1077,1.147,1.2305,1.2305,1.2305,1.2466,1.3402,1.3748,1.4079,1.6008,1.6606,1.6633,1.6652,1.6642,1.6633,1.6711,1.6711,1.6903,1.7794,1.8359,1.8652,1.8652,1.8994,1.9424,1.9824,1.9922,2.0059,2.0478,2.0225,2.0068,2.0498,2.0566,2.0566,2.0566,2.0644,0.0,2.0654,2.0664,2.0664,2.0654,2.1484,2.2428,2.338,2.2596,2.3311,2.6283,2.4647,2.4469,2.6383,2.6533,2.6533,2.6533,2.7263,2.8092,2.9021,0.0,0.0,0.0,0.0,0.0,0.0,0.0,0.0,0.0,0.0,0.0,0.0,0.0,0.0,0.0,0.0,0.0,0.0,0.0,0.0,0.0,0.0,-0.5783,-0.442,-0.5416,-0.6338,-0.6338,-0.6338,-0.6338,-0.6338,-0.6338,-0.6338,-0.6338,-0.6378,-0.6413,-0.6413,-0.6532,-0.662,-0.6586,-0.4356,-0.209,-0.0,-0.0,-0.0,0.009,0.4786,0.6774,0.6171,0.6786,0.7048,0.6959,0.6868,0.741,0.8475,0.9518,1.0534,1.1612,1.2296,1.2721,1.297,1.297,1.297,1.3065,1.4169,1.4945,1.5619,1.6245,1.6963,1.7541,1.7546,1.7514,1.771,1.8371,1.8533,1.8604,1.8879,1.9005,1.9111,1.9111,1.9434,1.9775,1.9893,2.0166,2.042,2.0537,2.0469,2.042,2.0547,2.0566,2.0566,2.0566,2.1181,0.0,2.1612,2.2242,2.2449,2.17,2.1829,2.2389,2.3398,2.3244,2.4033,2.6372,2.5985,2.5931,2.6465,2.6533,2.6533,2.6533,2.669,2.7572,0.0,0.0,0.0,0.0,0.0,0.0,0.0,0.0,0.0,0.0,0.0,0.0,0.0,0.0,0.0,0.0,0.0,0.0,0.0,0.0,0.0,0.0,-0.514,-0.5701,-0.3942,-0.5179,-0.6338,-0.6338,-0.6338,-0.6338,-0.6338,-0.6338,-0.6419,-0.6419,-0.65,-0.6586,-0.6579,-0.6722,-0.6785,-0.6702,-0.4504,-0.2263,-0.0,-0.0,-0.0,0.009,0.3787,0.612,0.7139,0.7139,0.7139,0.7139,0.7051,0.7598,0.8689,0.9726,1.0857,0.0,0.0,0.0,0.0,0.0,1.3223,1.3321,1.4387,1.5358,1.628,1.6759,1.7605,1.8489,1.8455,1.8499,1.8604,1.9175,1.9311,1.9261,1.9261,1.9448,1.9551,1.9551,1.9873,2.0185,2.0185,2.0391,2.0566,2.0566,2.0566,0.0,2.1083,2.0868,2.0566,2.0566,2.1396,2.2025,2.2025,2.2896,2.3274,2.2711,2.3004,2.3471,2.4105,2.4132,0.0,0.0,0.0,2.6071,2.6452,2.6533,0.0,0.0,0.0,2.7462,2.8489,2.9171,0.0,0.0,3.1157,3.112,0.0,0.0,0.0,0.0,0.0,0.0,0.0,0.0,0.0,0.0,0.0,0.0,0.0,0.0,0.0,0.0,-0.3149,-0.498,-0.3308,-0.494,-0.6338,-0.6338,-0.6338,-0.6338,-0.6338,-0.6419,-0.6528,-0.6516,-0.6681,-0.6757,-0.6685,0.0,0.0,0.0,0.0,-0.267,-0.0,-0.0,-0.0,-0.0,0.243,0.4846,0.7139,0.7139,0.7139,0.7139,0.7139,0.7782,0.8979,1.0097,1.1321,1.2572,1.3134,1.3322,1.3322,1.3322,1.3419,1.36,1.4559,0.0,0.0,1.7674,1.8638,1.9446,1.9477,1.9451,1.9434,1.9434,1.9434,1.9434,1.9434,1.9707,1.999,1.999,2.0283,2.0566,2.0566,2.0566,2.0644,2.0712,2.0779,2.1091,2.2015,2.1386,2.0771,2.0878,2.171,2.2376,2.2318,2.3242,2.3821,2.3699,0.0,0.0,2.4966,2.5016,2.5411,2.644,2.5635,2.5598,2.644,2.6533,2.6533,2.6533,2.7169,2.7623,2.7717,2.9254,3.0105,3.0337,3.1142,3.1482,0.0,0.0,0.0,0.0,0.0,0.0,0.0,0.0,0.0,0.0,0.0,0.0,0.0,0.0,0.0,0.0314,-0.0707,-0.165,-0.2912,-0.494,-0.6338,-0.6338,-0.6338,-0.6338,-0.6419,-0.65,-0.6541,-0.6668,-0.6794,-0.6827,-0.6896,-0.6977,-0.7058,-0.7054,-0.6659,-0.437,-0.0,-0.0,-0.0,-0.0,0.0,0.0,0.7139,0.7139,0.7139,0.7139,0.7139,0.7782,0.8979,1.0097,1.188,1.3795,1.3893,1.3899,1.3899,1.3899,1.4467,1.5351,1.6381,1.751,1.8629,1.9681,2.0149,2.0333,2.0333,2.0352,0.0,2.0312,2.0312,2.0312,2.0312,2.0381,2.0439,2.0439,2.0508,2.0566,2.0566,2.0566,2.0779,2.1593,2.1759,2.2046,2.3041,2.2361,2.2025,2.2797,2.3785,2.4388,2.4436,2.5322,2.5627,2.478,2.4881,2.5003,2.5003,2.4972,2.5411,2.644,2.6321,2.6308,2.6452,2.6533,2.6533,2.6533,2.6665,2.7036,2.773,2.8024,2.8903,3.0337,3.1142,3.1482,0.0,0.0,0.0,0.0,0.0,0.0,0.0,0.0,0.0,0.0,0.0,0.748,0.0,0.0,0.2438,0.0314,-0.0,-0.0707,-0.2826,-0.4937,-0.6268,-0.6338,-0.6338,-0.6338,-0.65,-0.6529,-0.6652,-0.6757,-0.6959,-0.6959,-0.6959,-0.7051,-0.6596,-0.5422,-0.6453,-0.4848,-0.009,-0.0,0.1349,0.3967,0.3877,0.5027,0.7234,0.7234,0.7231,0.7139,0.7139,0.7782,0.9059,1.0768,1.2472,1.4088,1.4088,1.4088,1.4088,1.4088,1.4788,1.5794,1.6299,1.7622,1.9097,1.9625,2.0149,2.0566,2.0566,2.0566,2.0566,2.0566,2.0566,2.0566,2.0566,2.0566,2.0566,2.0566,2.0566,2.0566,2.0566,2.0934,2.1441,2.1886,2.2446,2.3097,2.4066,2.3796,2.35,2.3463,2.4372,2.5015,2.4981,2.5859,2.6308,2.5834,2.5741,2.5741,2.5741,2.5741,2.5965,2.6452,2.6533,2.6533,2.6533,2.6533,2.6533,2.6533,2.6533,2.6678,2.713,2.7971,2.896,3.0158,3.1397,3.1835,0.0,0.0,0.0,0.0,0.0,0.0,0.0,0.0,1.0225,0.9179,0.8203,0.7239,0.6454,0.4883,0.2912,0.0393,-0.0,-0.0706,-0.2821,-0.494,-0.6278,-0.6264,-0.6338,-0.6419,-0.65,-0.6622,-0.6779,-0.6959,-0.7051,-0.7139,-0.7139,-0.7139,-0.6239,-0.436,-0.5216,-0.3906,-0.0,-0.0,0.2674,0.8007,0.5823,0.5697,0.7497,0.7467,0.7323,0.7143,0.7598,0.8308,0.9432,1.1679,1.3231,1.4088,1.4368,1.4277,1.4088,1.4088,1.4909,1.6036,1.6014,1.7432,1.9329,1.9329,1.9927,2.0566,2.0566,2.0566,2.0566,2.0566,2.0566,2.0566,2.0566,2.0566,2.0566,2.0566,2.0712,2.0857,2.0857,2.1593,2.2328,2.2553,2.322,2.4116,2.5132,2.5252,2.5052,2.4198,2.4743,2.5281,2.5281,2.5977,2.6533,2.6533,2.6533,2.6533,2.6533,2.6533,2.6533,2.6533,2.6533,2.6533,2.6533,2.6533,2.6533,2.6533,2.6571,2.6665,2.6665,2.8118,2.9308,3.0196,3.1562,3.2064,1.7998,1.7417,1.6563,1.5604,1.464,1.3395,0.0,0.0,0.9194,0.8172,0.7161,0.6454,0.6308,0.6087,0.4658,0.0628,-0.0,-0.0707,-0.2832,-0.4953,-0.6285,-0.6264,-0.6419,-0.65,-0.6659,-0.6793,-0.6959,-0.7051,-0.7051,-0.7139,-0.7139,-0.7139,-0.6992,-0.6697,-0.2879,-0.0558,-0.0,-0.0,0.2696,0.7959,0.7684,0.7546,0.7622,0.7573,0.7507,0.7507,0.9354,1.0313,1.0603,1.2965,1.399,1.4179,1.5148,1.4951,1.4088,1.4088,1.539,1.7122,1.7138,1.861,2.044,2.044,2.0459,2.0566,2.0566,2.0566,2.0566,2.0566,2.0566,2.0566,2.0566,2.0566,2.0566,2.0566,2.1231,2.1811,2.1811,2.2627,2.3599,2.4492,2.4779,2.5158,2.6144,2.6295,2.6327,2.6202,2.6296,2.6321,2.6321,2.6427,2.6533,2.6533,2.6533,2.6533,2.6533,2.6533,2.6533,2.6533,2.6533,2.6533,2.6533,2.6533,2.6533,2.6533,2.6998,2.7237,2.7237,2.7877,2.9073,3.0734,3.0902,3.1806,1.719,1.6872,0.0,0.0,1.3983,1.3314,1.197,1.0415,0.918,0.8727,0.7427,0.5883,0.4701,0.4477,0.3458,0.0,-0.0,-0.0314,-0.1177,-0.3132,-0.4932,-0.6112,-0.6504,-0.6641,-0.6656,-0.6817,-0.6959,-0.7051,-0.7139,-0.7139,-0.7139,-0.5819,-0.5702,-0.7084,-0.2508,-0.0,-0.0,-0.0,0.1921,0.5684,0.7256,0.7939,0.7726,0.7681,0.7951,0.8516,1.0004,1.1044,1.1736,1.3419,1.4088,1.4186,1.5247,1.5433,1.5102,1.5756,1.6549,1.7405,1.804,1.9275,2.0566,2.0566,2.0566,2.0566,2.0566,2.0566,2.0566,2.0566,2.0566,2.0566,2.0566,2.1011,2.1451,2.1451,2.2188,2.285,2.285,2.3661,2.4492,2.4933,2.5441,2.6025,2.6452,2.6533,2.6533,2.6533,2.6533,2.6533,2.6533,2.6533,2.6533,2.6533,2.6533,2.6533,2.6533,2.6533,2.6533,2.6533,2.6533,2.6653,2.6929,2.6998,2.713,2.7408,2.7636,2.7793,2.7767,2.9033,3.0237,3.1419,3.2459,3.3548,1.6632,0.0,0.0,1.4114,1.3535,1.3145,1.2466,1.0743,0.9327,0.9301,0.771,0.5792,0.4302,0.3051,0.1723,0.0235,-0.0,-0.0,-0.0,-0.18,-0.3915,-0.6051,-0.6485,-0.6687,-0.6711,-0.6825,-0.6959,-0.7051,-0.7139,-0.7139,-0.7139,-0.5481,-0.4778,-0.5159,-0.1819,-0.0,-0.0,0.0707,0.2123,0.405,0.6745,0.7939,0.7836,0.7836,0.8104,0.8798,1.0205,1.1235,1.2018,1.351,1.4088,1.4271,1.5635,1.5749,1.5533,1.7466,1.7996,1.7886,1.8671,1.9703,2.0566,2.0566,2.0566,2.0566,2.0566,2.0566,2.0566,2.0566,2.0566,2.0644,2.0934,2.1517,2.2103,2.2328,2.3147,2.3891,2.3891,2.4696,2.5441,2.5441,2.6025,2.6533,2.6533,2.6533,2.6533,2.6533,2.6533,2.6533,2.6533,2.6533,2.6533,2.6533,2.6533,2.6533,2.6533,2.6533,2.6559,2.669,2.669,2.6929,2.7503,2.7513,2.7708,2.8086,2.8234,2.8432,2.875,3.0188,3.1457,3.2428,3.3758,3.4762,0.0,0.0,1.4958,1.3962,1.3032,1.2305,1.2305,1.0726,0.9296,0.9296,0.7718,0.6281,0.6213,0.2818,0.0078,-0.0,-0.0,-0.0,-0.0,-0.1804,-0.3929,-0.6006,-0.6461,-0.6675,0.0,-0.6973,-0.7139,-0.7139,-0.7139,-0.7139,-0.7139,-0.7035,-0.4873,-0.0403,-0.0101,-0.0,-0.0,0.2629,0.3949,0.405,0.6745,0.8038,0.8038,0.7836,0.7826,0.797,0.9958,1.0831,1.1006,1.3231,1.4088,1.4284,1.6431,1.601,1.4636,1.8921,1.9849,1.8981,1.8955,1.9678,2.0566,2.0566,2.0566,2.0566,2.0566,2.0566,2.0566,2.0566,2.0566,2.0789,2.1735,2.1962,2.2253,2.322,2.4192,2.4933,2.4933,2.5734,2.6452,2.6452,2.6465,2.6533,2.6533,2.6533,2.6533,2.6533,2.6533,2.6533,2.6533,2.6533,2.6533,2.6533,2.6533,2.6533,2.6533,2.6533,2.669,2.725,2.7276,2.7516,2.8023,2.8052,2.8123,2.8123,2.8639,2.9347,3.0329,3.0881,3.2144,3.3908,3.4009,3.4564,1.5939,0.0,1.3954,1.3025,1.2519,1.2305,1.2305,1.1242,1.0115,0.9448,0.8241,0.7107,0.6437,0.399,0.1641,0.0235,-0.0,-0.0,-0.0,-0.0627,-0.2352,-0.5918,-0.5067,0.0,0.0,0.0,0.0,-0.7139,-0.7139,-0.7074,-0.7128,-0.7065,-0.4873,-0.0101,-0.0,-0.0,-0.0,0.2629,0.405,0.405,0.6745,0.8038,0.8038,0.7939,0.8763,1.0298,1.0756,1.1818,1.3322,1.3893,1.4088,1.4284,1.6431,1.6857,1.6597,1.9494,2.0378,2.0062,2.006,2.0323,2.0566,2.0566,2.0566,2.0566,2.0566,2.1001,2.1517,2.1517,2.2038,2.2638,2.2925,2.3514,2.4047,2.4409,2.5288,2.6025,2.6025,2.6245,2.6533,2.6533,2.6533,2.6533,2.6533,2.6533,2.6533,2.6533,2.6533,2.6533,2.6533,2.6533,2.6533,2.6533,2.6533,2.6533,2.6533,2.681,2.713,2.7276,2.8214,2.8761,2.8649,2.9263,2.9792,3.0175,3.0329,3.0881,3.1837,3.2671,3.3339,3.4009,3.4703,3.5195,1.5438,1.445,1.3528,1.2952,1.2519,1.2305,1.2305,1.1539,1.049,0.9523,0.8466,0.7484,0.6507,0.5168,0.3285,0.047,-0.0,-0.0,-0.0,-0.0,-0.1019,-0.3692,-0.345,-0.4075,0.0,0.0,0.0,-0.7051,-0.7078,-0.7115,-0.7078,-0.5515,-0.3179,-0.0101,-0.0,0.0909,0.2832,0.456,0.5471,0.545,0.7144,0.8038,0.8038,0.8038,0.8862,1.0311,1.0824,1.1894,1.3328,1.3893,1.4088,1.4284,1.6431,1.7057,1.7019,1.9641,2.0366,2.0048,2.0498,2.0566,2.0566,2.0566,2.0566,2.0644,2.1011,2.1517,2.2103,2.2403,2.2999,2.3588,2.3963,2.4492,2.5075,2.5441,2.6025,2.6533,2.6533,2.6533,2.6533,2.6533,2.6533,2.6533,2.6533,2.6533,2.6533,2.6533,2.6533,2.6533,2.6533,2.6533,2.6533,2.6533,2.6665,2.6917,2.7263,2.749,2.785,2.8341,2.9265,2.9796,2.9688,3.0635,3.1384,3.1681,3.1708,3.2164,3.3138,3.37,3.4162,3.4564,3.5195,3.5504,1.5446,1.4458,1.3673,1.3673,1.3025,1.2305,1.2305,1.1545,1.0559,0.9599,0.8542,0.7557,0.0,0.0,0.4943,0.0861,0.0078,-0.0,-0.0,-0.0,-0.0,0.0,0.0,0.0,0.0,0.0,0.0,-0.6966,0.0,-0.6988,-0.6712,-0.243,-0.0,-0.0,0.0303,0.2832,0.7955,0.7955,0.8016,0.8038,0.8038,0.8038,0.8038,0.8038,0.8041,0.8336,1.0303,1.1182,1.146,1.3328,1.4088,1.4375,1.6523,1.6675,1.6231,1.9434,1.997,1.9225,2.0274,2.0566,2.0566,2.0566,2.0566,2.0789,2.1735,2.2038,2.2253,2.3294,2.3588,2.3891,2.4862,2.5075,2.53,2.6245,2.6533,2.6533,2.6533,2.6533,2.6533,2.6533,2.6533,2.6533,2.6533,2.6533,2.6533,2.6533,2.6533,2.6533,2.6533,2.6533,2.6533,2.6533,2.7023,2.77,2.8638,2.8412,2.8931,3.042,3.0573,3.0816,3.1279,3.2155,3.2678,3.2678,3.2652,3.3122,3.4103,3.4103,3.4579,3.5504,3.5504,3.5504,1.5234,1.3947,1.2806,1.3528,1.3025,1.2305,1.2305,1.2077,1.162,1.064,0.9593,0.8618,0.0,0.0,0.0,0.2735,0.1018,0.0,-0.0,-0.0,0.0,-0.0,0.0,-0.1021,-0.165,-0.2817,0.0,0.0,-0.7068,-0.5517,-0.1979,-0.0629,-0.0,-0.0,0.3848,0.6611,0.7958,0.7999,0.7959,0.8038,0.8038,0.8038,0.8038,0.8038,0.9069,1.0943,1.1063,1.2226,1.399,1.4082,1.4565,1.5437,1.673,1.7654,1.8342,2.0033,2.042,2.0196,2.0498,2.0566,2.0566,2.0566,2.0566,2.0789,2.1735,2.2553,2.3294,2.4337,2.5146,2.5791,2.6025,2.6094,2.6164,2.6452,2.6533,2.6533,2.6533,2.6533,2.6533,2.6533,2.6533,2.6533,2.6533,2.6533,2.6533,2.6533,2.6533,2.6533,2.6533,2.6533,2.6533,2.6533,2.7623,2.8453,2.8675,3.0003,3.1034,3.146,3.25,3.2799,3.2276,3.3121,3.365,3.365,3.3645,3.4133,3.5085,3.5085,3.5225,3.5504,3.5504,3.5504,1.579,1.4728,1.381,1.4728,1.3947,1.3018,1.3448,1.2879,1.2144,1.1514,1.0254,0.0,0.0,0.0,0.0,0.0,0.0,0.0,-0.0,-0.0,-0.0,0.0,-0.0,0.0,-0.0,-0.1196,-0.2611,0.0,-0.3967,-0.279,-0.018,-0.0,0.112,0.3432,0.6404,0.8042,0.8006,0.7962,0.8038,0.8038,0.8556,0.8556,0.8041,0.9176,1.0112,1.0938,0.0,1.2662,1.3984,1.4082,1.4754,1.5797,1.6884,1.7974,1.9127,2.0236,2.0566,2.0566,2.0566,2.0837,2.1181,2.0702,2.0857,2.1375,2.2328,2.3368,2.4337,2.537,2.6094,2.6533,2.6533,2.6533,2.6533,2.6533,2.6533,2.6533,2.6533,2.6533,2.6533,2.6533,2.6782,2.6905,2.6589,2.6784,2.7023,2.7023,2.6759,2.6784,2.7503,2.6929,2.6571,2.681,2.8144,2.935,3.0013,3.132,3.2344,3.2729,3.3559,3.3761,3.3224,3.4133,3.4623,3.4623,3.4623,3.4916,3.5504,3.5504,3.5504,3.5504,3.5814,3.5954,1.6636,1.593,1.5446,1.6358,1.5226,1.4099,1.4807,1.3665,1.2432,1.2245,0.0,0.9069,0.8161,0.0,0.5721,0.3828,0.0,-0.0,-0.0,-0.0,-0.0,-0.0,-0.0,-0.0,-0.0,-0.0,-0.0,-0.0,-0.0,-0.0,-0.0,-0.0,0.2428,0.7834,0.8049,0.8009,0.8038,0.8038,0.8038,0.8041,0.9379,0.9363,0.8301,1.0717,1.1137,1.013,1.2088,1.2913,1.2946,1.3795,1.4853,1.6034,1.6971,1.8046,1.9329,2.0246,2.0566,2.0566,2.0566,2.1247,2.1837,2.1048,2.1451,2.2403,2.3368,2.4337,2.5229,2.6245,2.6533,2.6533,2.6533,2.6533,2.6533,2.6533,2.6533,2.6533,2.6533,2.6533,2.6521,2.6658,2.7229,2.755,2.6905,2.7387,2.7864,2.7864,2.7288,2.7411,2.894,2.7756,2.7023,2.761,2.9039,3.0501,3.1852,3.2623,3.3354,3.4147,3.4177,3.4177,3.4177,3.5041,3.5504,3.5504,3.5504,3.5504,3.5504,3.5504,3.5534,3.5659,3.62,3.6522,1.6636,1.593,1.5446,1.6358,1.579,1.4736,1.4099,1.3673,0.0,0.0,0.0,0.9221,0.9069,0.7565,0.0,0.5802,0.0,0.0,0.0,0.0,-0.0,0.0,0.0,0.0,0.0,0.0,0.0,0.0,0.0,-0.0,-0.0,-0.0,0.2428,0.7834,0.7995,0.7952,0.8038,0.8038,0.8038,0.8041,0.9379,0.987,0.9731,1.1025,1.1948,1.2734,1.2667,0.0,1.4179,1.4088,1.5247,1.7036,1.7259,1.8533,2.0353,2.0547,2.0566,2.0566,2.0566,2.1247,2.1987,2.178,2.2403,2.3441,2.4409,2.4862,2.5229,2.6245,2.6533,2.6533,2.6533,2.6533,2.6533,2.6533,2.6533,2.6533,2.6533,2.6533,2.6714,2.7351,2.7604,2.7855,2.8492,2.8665,2.8749,2.8749,2.8652,2.8864,2.9699,2.8966,2.8615,2.948,3.1349,3.27,3.2955,3.4242,3.5056,3.5225,3.5225,3.5225,3.5225,3.5394,3.5504,3.5504,3.5504,3.5504,3.5504,3.5504,3.5799,3.6325,3.6466,3.6798,1.7354,1.7001,1.6793,1.7217,1.6645,1.579,1.5296,0.0,0.0,0.0,0.0,0.9296,0.9296,0.0,0.0,0.0,0.0,0.0,0.0,0.0,0.0,0.0,0.0,0.0,0.0,0.0,0.0,0.0,0.0,0.3695,0.3695,0.3695,0.4966,0.7626,0.7775,0.7836,0.7935,0.7939,0.8247,0.8763,1.0112,1.0667,1.0649,1.2469,1.3214,1.2998,1.3366,1.3893,1.4368,1.4761,1.5841,1.7343,1.7951,1.9136,2.0566,2.0566,2.0566,2.0664,2.1171,2.1968,2.2853,2.3375,2.3863,2.4337,2.4862,2.537,2.5873,2.6383,2.6533,2.6533,2.6533,2.6533,2.6533,2.6533,2.685,2.7095,2.7095,2.7484,2.792,2.8298,2.8748,2.9066,2.9002,2.9344,2.9673,2.9673,2.9277,2.9563,3.1065,3.083,3.0618,3.0904,3.2305,3.3338,3.3587,3.4762,3.5504,3.5504,3.5504,3.5504,3.5504,3.5504,3.5504,3.5504,3.5504,3.5504,3.5504,3.5844,3.617,3.6511,3.7211,3.7604,1.8008,1.8008,1.8008,1.8008,1.7432,1.6853,1.6636,1.5438,0.0,0.0,1.1662,0.9814,0.9372,0.0,0.0,0.0,0.0,0.0,0.0,0.0,0.0,0.0,0.0,0.0,0.0,0.0,0.0,0.0,0.0,0.0,0.634,0.6786,0.7171,0.7423,0.7579,0.7707,0.7733,0.8141,0.866,0.9482,1.1021,1.1667,1.158,1.3896,1.4244,1.3043,1.4271,1.4656,1.4558,1.5628,1.6705,1.7755,1.8664,1.9637,2.0566,2.0566,2.0751,2.0976,2.172,2.2772,2.3935,2.4704,2.5158,2.53,2.53,2.5873,2.6533,2.6533,2.6589,2.6714,2.6521,2.6658,2.6782,2.6782,2.7229,2.7736,2.792,2.8492,2.9066,2.9254,2.9827,3.0133,2.9628,3.0115,3.0585,3.0585,3.0089,3.0483,3.2443,3.2709,3.2667,3.2623,3.3245,3.3841,3.4286,3.5056,3.5504,3.5504,3.5504,3.5504,3.5504,3.5504,3.5504,3.5504,3.5504,3.5549,3.5704,3.6265,3.6627,3.6917,3.7942,3.8455,1.8008,1.8008,1.8008,1.8008,1.794,1.7647,1.6784,0.0,0.0,1.4099,1.2764,1.1428,0.9593,0.0,0.0,0.0,0.0,0.0,0.0,0.0,0.0,0.0,0.0,0.0,0.0,0.0,0.0,0.0,0.0,0.618,0.4057,0.5916,0.718,0.7417,0.7413,0.7489,0.7627,0.8656,0.9275,0.9371,1.1754,1.2857,1.29,1.4051,1.4477,1.4375,1.524,1.5544,0.0,1.6722,1.7828,1.887,1.8962,1.9637,2.0566,2.0566,2.1171,2.1906,2.1937,2.3246,2.4879,2.4969,2.5615,2.6383,2.6383,2.6452,2.6533,2.6533,2.704,2.7417,2.6714,2.704,2.7604,2.7604,2.767,2.792,2.8684,2.8939,2.9254,3.0011,3.0269,3.0524,3.1161,3.1321,3.1407,3.1407,3.185,3.2458,3.3307,3.3903,3.4549,3.507,3.5225,3.5335,3.5365,3.5474,3.5504,3.5504,3.5504,3.5504,3.5504,3.5504,3.5504,3.5504,3.5504,3.5814,3.6436,3.6466,3.7076,3.8231,3.8337,3.8733,1.8134,1.8008,1.8008,1.8008,1.8008,1.7725,1.6784,0.0,0.0,1.4099,1.291,1.1643,0.9664,0.8466,0.7484,0.0,0.0,0.0,0.0,0.0,0.0,0.0,0.0,0.0,0.0,0.0,0.0,0.0,0.0,0.67,0.573,0.6612,0.7143,0.7231,0.7323,0.7721,0.8459,0.9039,0.9933,1.1292,1.229,1.3049,1.3704,1.4754,1.524,1.5247,1.6231,1.6625,0.0,1.7865,1.8611,1.904,1.9724,2.0557,2.1406,2.1406,2.2035,2.2966,2.3604,2.4319,2.5071,2.5728,2.6189,2.6533,2.6533,2.6533,2.6589,2.7095,2.7484,2.7736,2.792,2.8247,2.8492,2.8492,2.8876,2.938,2.969,3.0147,3.0584,3.097,3.1029,3.1087,3.1409,3.1482,3.1614,3.2028,3.2309,3.2883,3.3935,3.4307,3.4747,3.5394,3.5504,3.5504,3.5504,3.5504,3.5504,3.5504,3.5504,3.5504,3.5504,3.5504,3.5504,3.5504,3.5504,3.5829,3.6496,3.6835,3.7534,3.8411,3.8792,3.9116,1.8529,1.8395,1.8337,1.8076,1.8395,1.8442,0.0,0.0,1.6826,1.4942,1.3772,1.2371,1.0093,0.8908,0.7791,0.0,0.0,0.0,0.0,0.0,0.0,0.0,0.0,0.0,0.0,0.0,0.0,0.0,0.0,0.7139,0.7139,0.7139,0.7139,0.7139,0.7231,0.7871,0.9071,0.9454,1.0595,1.2487,1.2856,1.3419,1.4179,1.524,1.5693,1.5749,1.7211,1.7819,0.0,1.9022,1.9444,1.9531,2.0333,2.1181,2.1973,2.1993,2.2853,2.4015,2.4777,2.5176,2.5529,2.6296,2.6533,2.6546,2.6784,2.6833,2.6976,2.7524,2.7855,2.8298,2.9192,2.9192,2.9066,2.9317,2.9827,3.0389,3.0584,3.1087,3.1482,3.1482,3.1482,3.1482,3.1482,3.1482,3.1732,3.2412,3.2675,3.3229,3.4357,3.4703,3.5011,3.5474,3.5504,3.5504,3.5504,3.5504,3.5504,3.5504,3.5504,3.5504,3.5504,3.5504,3.5504,3.5504,3.5689,3.614,3.6793,3.7356,3.806,3.8733,3.9145,3.9424,1.9299,1.9299,1.911,1.8202,1.9299,2.0139,0.0,0.0,1.8757,1.6904,1.579,1.4268,1.1236,0.9943,0.8627,0.6599,0.4533,0.0,0.0,0.0,0.0,0.0,0.0,0.0,0.0,0.0,0.0,0.0,0.6959,0.0,0.7139,0.7139,0.7139,0.7139,0.7139,0.769,0.8886,0.999,1.1191,1.2295,1.3516,1.4088,1.4179,1.524,1.5666,1.5856,1.8055,1.8944,0.0,2.0139,2.0557,2.0557,2.0566,2.1181,2.2025,2.1974,2.3248,2.4978,2.4966,2.5635,2.6452,2.6533,2.6533,2.6665,2.7477,2.7667,2.7656,2.7696,2.8298,2.9192,3.0072,2.9628,2.9192,3.0072,3.0269,3.0524,3.1351,3.1482,3.1482,3.1482,3.1482,3.1482,3.1482,3.1482,3.1732,3.2412,3.3057,3.3753,3.4425,3.507,3.5504,3.5504,3.5504,3.5504,3.5504,3.5504,3.5504,3.5504,3.5504,3.5504,3.5504,3.5504,3.5504,3.5504,3.6155,3.6793,3.7353,3.8038,3.8733,3.9409,3.9424,3.9424,2.0333,2.0204,2.0139,1.9814,2.0204,2.0268,1.9177,0.0,1.8757,1.6973,1.586,1.4498,1.2138,1.0392,0.8609,0.6619,0.4516,0.0,0.0,0.0,0.0,0.0,0.0,0.0,0.0,0.0,0.0,0.0,0.7963,0.8516,0.9164,0.9354,0.9164,0.8332,0.8332,0.9257,1.1227,1.1552,1.2385,1.3516,1.3899,1.4473,1.524,1.6323,1.722,1.8038,1.9444,2.0052,2.0139,2.045,2.0566,2.0654,2.1288,2.2144,2.312,2.3826,2.4929,2.6058,2.6058,2.6214,2.6533,2.6533,2.6891,2.7383,2.7623,2.7683,2.7931,2.9157,3.0072,3.0777,3.1029,3.0896,3.0777,3.1029,3.1087,3.1219,3.1482,3.1482,3.1482,3.1482,3.1482,3.1482,3.1482,3.188,3.2412,3.3054,3.3784,3.4425,3.507,3.5365,3.5504,3.5504,3.5504,3.5504,3.5504,3.5504,3.5504,3.5504,3.5504,3.5504,3.5504,3.5504,3.5504,3.5504,3.6155,3.676,3.7386,3.8056,3.8748,3.9424,3.9424,3.9424,0.0,2.1509,2.1377,2.0726,2.1055,0.0,0.0,0.0,1.9672,1.7541,1.6341,1.5026,1.3078,1.0828,0.8675,0.6594,0.5212,0.0,0.0,0.0,0.0,0.0,0.0,0.0,0.0,0.0,0.0,0.7998,0.8651,0.9335,1.0,1.0299,1.0299,1.0024,0.9744,1.0396,1.2273,1.2699,1.3516,1.467,1.5141,1.5643,1.6316,1.7466,1.8353,1.904,2.0139,2.0566,0.0,2.0566,2.0566,2.0664,2.1612,2.2603,2.3597,2.4648,2.5635,2.6533,2.6533,2.6678,2.6929,2.6929,2.7721,2.8706,2.8706,2.8666,2.8962,3.0392,3.1087,3.1482,3.1482,3.1482,3.1482,3.1482,3.1482,3.1482,3.1482,3.1482,3.1482,3.1482,3.1482,3.1482,3.1482,3.2043,3.2745,3.3382,3.4044,3.4732,3.5394,3.5504,3.5504,3.5504,3.5504,3.5504,3.5504,3.5504,3.5504,3.5504,3.5504,3.5504,3.5504,3.5504,3.5642,3.5857,3.6514,3.7144,3.7768,3.844,3.8969,3.9424,3.9424,3.958,0.0,0.0,0.0,0.0,0.0,0.0,0.0,0.0,0.0,0.0,1.7142,1.5817,1.4055,1.1329,0.8751,0.6824,0.6391,0.0,0.0,0.0,0.0,0.0,0.0,0.0,0.0,0.0,0.0,0.8254,0.9215,0.9827,0.9878,1.0188,1.0936,1.1922,1.1281,1.146,1.2572,1.3607,1.4726,1.5836,1.6828,1.7335,1.7495,1.8497,1.9031,0.0,2.0246,2.0664,2.0751,2.0771,2.0771,2.0878,2.1818,2.2774,2.3732,2.4731,2.5716,2.6533,2.6533,2.7023,2.7717,2.7858,2.9016,3.0322,3.0366,3.0366,3.0563,3.1322,3.1482,3.1482,3.1482,3.1482,3.1482,3.1482,3.1482,3.1482,3.1482,3.1482,3.1482,3.1482,3.1482,3.1539,3.1569,3.2131,3.2781,3.346,3.4133,3.4777,3.5394,3.5504,3.5504,3.5504,3.5504,3.5504,3.5504,3.5504,3.5504,3.5504,3.5504,3.5504,3.5504,3.5504,3.5807,3.6519,3.7113,3.7768,3.844,3.9101,3.9409,3.9481,3.9481,3.9984,2.5783,0.0,2.458,2.3697,0.0,0.0,0.0,0.0,0.0,0.0,0.0,1.5342,1.4925,1.2451,1.0034,0.8827,0.7322,0.0,0.0,0.0,0.0,0.0,0.0,0.0,0.0,0.0,0.9581,1.0071,1.0547,1.118,1.2024,1.2374,1.2608,1.2921,1.3419,1.4082,1.486,1.5148,1.5884,1.6938,1.7146,1.7723,1.8602,1.8852,1.9434,2.0256,2.1278,2.17,2.171,2.247,2.2797,2.2907,2.3906,2.4431,2.4743,2.5753,2.6308,2.6533,2.6533,2.7023,2.7887,2.9268,2.9986,3.0381,3.1025,3.1233,3.1264,3.1424,3.1482,3.1482,3.1482,3.1482,3.1482,3.1482,3.1482,3.1482,3.1482,3.1482,3.1482,3.1482,3.1482,3.1687,3.2161,3.2844,3.3501,3.4179,3.4857,3.5335,3.5489,3.5504,3.5504,3.5504,3.5504,3.5504,3.5504,3.5504,3.5504,3.5504,3.5504,3.5504,3.5504,3.5504,3.5807,3.6519,3.7593,3.8455,3.9145,3.9307,3.9737,4.0363,4.0363,4.0882,2.7015,2.6486,2.5697,2.4998,2.482,2.4447,0.0,0.0,0.0,0.0,0.0,0.0,1.6018,0.0,0.0,0.0,0.9724,0.0,0.0,0.0,0.0,0.0,0.0,0.0,0.0,0.0,1.0703,1.0757,1.139,1.197,1.2553,1.2882,1.3202,1.3612,1.4266,1.483,1.5148,1.6124,1.6918,1.7467,1.8142,1.904,2.013,2.0256,2.0966,2.1937,2.246,2.2658,2.2739,2.3283,2.3497,2.3604,2.4607,2.4968,2.5152,2.6096,2.6533,2.6546,2.6917,2.7841,2.9142,3.0455,3.0863,3.0908,3.1349,3.1482,3.1482,3.1482,3.1482,3.1482,3.1482,3.1482,3.1482,3.1482,3.1482,3.1482,3.1482,3.1482,3.1482,3.1482,3.1482,3.1717,3.2397,3.3036,3.3722,3.4386,3.5056,3.5504,3.5504,3.5504,3.5504,3.5504,3.5504,3.5504,3.5504,3.5504,3.5504,3.5504,3.5504,3.5504,3.5504,3.5504,3.5941,3.6919,3.8204,3.9071,3.9424,3.9793,4.0239,4.069,4.108,4.1769,2.771,2.7202,2.6505,2.5728,2.5558,2.5333,0.0,0.0,0.0,0.0,0.0,0.0,0.0,0.0,0.0,0.0,0.0,0.0,0.0,0.0,0.0,0.0,0.0,0.0,0.0,1.1261,1.2057,1.1476,1.2131,1.256,1.2721,1.2977,1.3564,1.4347,1.4676,1.4926,1.4885,1.6785,1.7796,1.7984,1.9354,2.0419,2.1278,2.1768,2.2484,2.3253,0.0,0.0,2.3628,2.3743,2.3859,2.4056,2.5046,2.5399,2.5517,2.6533,2.6891,2.6972,2.7824,2.9038,3.0454,3.126,3.1482,3.1482,3.1482,3.1482,3.1482,3.1482,3.1482,3.1482,3.1482,3.1482,3.1482,3.1482,3.1482,3.1482,3.1482,3.1482,3.1482,3.1482,3.1482,3.1732,3.2546,3.3134,3.3797,3.4564,3.5165,3.5504,3.5504,3.5504,3.5504,3.5504,3.5504,3.5534,3.5659,3.5674,3.5748,3.5872,3.5657,3.5504,3.5504,3.5799,3.649,3.7614,3.9063,3.9809,3.9809,4.0569,4.0946,4.108,4.1869,4.2645,2.8238,2.794,2.724,2.6521,2.6337,2.6101,0.0,0.0,0.0,0.0,0.0,0.0,0.0,0.0,0.0,0.0,0.0,0.0,0.0,0.0,0.0,0.0,0.0,0.0,1.1763,1.2084,1.2896,1.4429,1.3911,1.383,1.4696,1.4785,1.4875,1.5046,1.5876,1.6305,1.6298,1.7213,1.8141,1.9063,2.0024,2.0545,2.0722,2.1551,2.1989,2.2184,0.0,2.3607,2.416,2.4941,2.561,2.6096,2.6929,2.7276,2.7383,2.8265,2.8615,2.8743,2.9619,3.006,3.0454,3.126,3.1482,3.1482,3.1482,3.1482,3.1482,3.1482,3.1482,3.1482,3.1482,3.1482,3.1482,3.1482,3.1482,3.1482,3.1482,3.1482,3.1482,3.1482,3.1482,3.188,3.3142,3.3451,3.395,3.518,3.5394,3.5504,3.5504,3.5504,3.5504,3.5504,3.5504,3.5719,3.6356,3.6451,3.6723,3.7392,3.6242,3.5504,3.5504,3.725,3.8299,3.8465,4.0507,4.1609,4.1609,4.1739,4.2189,4.2909,4.3047,4.3562,2.8826,2.8764,2.8481,2.8122,2.7827,0.0,0.0,0.0,0.0,0.0,0.0,0.0,0.0,0.0,0.0,0.0,0.0,0.0,0.0,0.0,0.0,0.0,0.0,1.3223,1.3773,1.3863,1.4252,1.5112,1.4753,1.4687,1.5192,1.5192,1.5446,1.5972,1.6817,1.7561,1.8027,1.8849,1.9301,1.9312,1.9965,2.0766,2.1766,2.2379,2.2955,2.3481,0.0,2.425,2.4541,2.5025,2.5598,2.6214,2.7011,2.7498,2.7944,2.8691,2.931,2.9749,3.0162,3.06,3.101,3.1407,3.1482,3.1482,3.1482,3.1482,3.1482,3.1482,3.1482,3.1482,3.1482,3.1796,3.212,3.212,3.212,3.212,3.212,3.1796,3.161,3.2013,3.1792,3.2028,3.3756,3.4087,3.4593,3.5874,3.6466,3.6607,3.6155,3.6466,3.6607,3.614,3.6481,3.6854,3.7247,3.7257,3.7381,3.7769,3.6742,3.6268,3.6701,3.7997,3.8919,3.9314,4.1072,4.1997,4.1997,4.2458,4.2909,4.3306,4.3814,4.4196,2.9451,2.9496,2.9451,2.9761,0.0,0.0,0.0,0.0,0.0,0.0,0.0,0.0,0.0,0.0,0.0,0.0,0.0,0.0,0.0,0.0,0.0,1.4617,1.4255,1.4351,1.5396,1.5339,1.5394,1.5791,1.567,1.5727,1.6156,1.6156,1.6587,1.7483,1.8193,1.8863,1.9613,2.028,2.0277,1.9588,2.009,2.1145,2.254,2.304,2.3679,2.4421,2.4619,2.4745,2.4888,2.5073,2.5544,2.6197,2.6961,2.7687,2.844,2.9088,2.9798,3.0366,3.0513,3.0995,3.1482,3.1482,3.1482,3.1554,3.1717,3.1747,3.1762,3.1968,3.1998,3.198,3.1834,3.2164,3.2633,3.2801,3.2833,3.2788,3.2648,3.2296,3.2114,3.2547,3.2268,3.2578,3.4431,3.4866,3.5347,3.6693,3.7436,3.7607,3.6956,3.7448,3.7584,3.694,3.7436,3.784,3.8012,3.8237,3.8321,3.8321,3.7414,3.7167,3.7776,3.8603,3.9388,4.0188,4.1614,4.2405,4.2645,4.329,4.3621,4.3621,4.431,4.4587,3.0081,2.9805,2.9673,3.0797,0.0,0.0,0.0,0.0,0.0,0.0,0.0,0.0,0.0,0.0,0.0,0.0,0.0,0.0,0.0,0.0,1.759,1.7569,1.6082,1.548,1.6428,1.5685,1.5925,1.7666,1.698,1.7213,1.8927,1.9015,1.94,2.0264,2.0364,2.0424,2.0526,2.0598,2.0579,2.0533,2.1388,2.1813,2.1958,2.276,2.315,2.3261,2.4,2.4632,2.5109,2.5821,2.6445,2.7004,2.7886,2.8724,2.9566,3.0191,3.0454,3.0585,3.1187,3.1452,3.1482,3.1482,3.1482,3.1614,3.2309,3.2546,3.2622,3.3291,3.3456,3.3336,3.2688,3.2578,3.2751,3.34,3.3526,3.336,3.2707,3.3035,3.3292,3.2692,3.3057,3.3933,3.538,3.5647,3.6109,3.7508,3.7748,3.7765,3.7731,3.7773,3.7778,3.7722,3.7765,3.8083,3.8737,3.9514,3.9952,3.9952,3.852,3.7753,3.7815,3.9224,4.0367,4.1115,4.2551,4.3676,4.4384,4.4457,4.4514,4.4514,4.457,4.4587,3.1016,3.1077,3.0982,3.1473,0.0,0.0,0.0,0.0,0.0,0.0,0.0,0.0,0.0,0.0,0.0,0.0,0.0,0.0,0.0,0.0,1.9555,1.9573,1.8947,1.8476,1.8291,1.8466,1.8388,1.8018,1.8662,1.9124,1.9301,1.9803,2.0277,2.0568,2.1129,2.1401,2.1392,2.2431,2.2911,2.2916,2.2702,2.2857,2.3444,2.4197,2.4533,2.4533,2.4857,2.5083,2.5324,2.5586,2.6111,2.6816,2.8038,2.8934,2.9614,2.9856,2.9958,2.9973,3.022,3.0878,3.1569,3.1569,3.2131,3.2859,3.3157,3.3208,3.3255,3.3532,3.358,3.353,3.3275,3.3527,3.389,3.4137,3.4231,3.4134,3.3907,3.3703,3.3668,3.3806,3.3707,3.4165,3.6026,3.6352,3.688,3.8253,3.8891,3.9043,3.8573,3.8933,3.9035,3.8539,3.8959,3.9362,3.9615,3.9952,4.007,4.007,3.9076,3.8727,3.9201,3.9802,4.0453,4.1221,4.2631,4.3555,4.3859,4.435,4.4587,4.4587,4.4587,4.4587,3.1826,3.2022,3.2022,0.0,0.0,0.0,0.0,0.0,0.0,0.0,0.0,0.0,0.0,0.0,0.0,0.0,0.0,0.0,0.0,2.1356,2.0985,2.1014,2.0764,2.0369,1.9791,2.0253,2.014,1.8913,1.9899,2.0439,2.0118,2.0699,2.126,2.1753,2.2346,2.276,2.2967,2.4099,2.4636,2.4637,2.4292,2.4306,2.4637,2.5165,2.5401,2.5401,2.5638,2.5769,2.577,2.6002,2.6373,2.6935,2.7906,2.8551,2.9027,2.9423,2.9591,2.9633,3.0037,3.0749,3.1546,3.152,3.2299,3.33,3.348,3.3728,3.3963,3.4158,3.4236,3.4251,3.4235,3.4415,3.466,3.488,3.491,3.4868,3.4669,3.4399,3.4284,3.4528,3.4399,3.4824,3.6771,3.7136,3.765,3.9059,3.9767,3.9885,3.9362,3.9767,3.9868,3.9362,3.9783,4.007,4.007,4.007,4.007,4.007,3.9594,3.9542,4.007,4.0113,4.0445,4.1204,4.2202,4.2828,4.3064,4.3606,4.3859,4.3859,4.3859,4.3859,3.2517,3.2517,0.0,0.0,0.0,0.0,0.0,0.0,0.0,0.0,0.0,0.0,0.0,0.0,0.0,0.0,0.0,0.0,2.4421,2.2955,2.1946,2.1946,2.1176,2.0626,2.0614,2.064,2.0643,2.0635,2.0662,2.1006,2.1874,2.1946,2.265,2.4283,2.4296,2.4679,2.5382,2.5382,2.5404,2.543,2.614,2.6111,2.5416,2.543,2.543,2.5445,2.6205,2.6482,2.6577,2.7294,2.7625,2.7625,2.7625,2.7625,2.7765,2.9027,2.9504,2.9662,3.0958,3.1407,3.1381,3.141,3.1888,3.2623,3.33,3.3996,3.4757,3.538,3.5622,3.5622,3.5622,3.5116,3.479,3.5459,3.5622,3.5407,3.4736,3.5144,3.5407,3.4736,3.5161,3.6113,3.7635,3.7905,3.8396,3.9868,4.007,4.007,4.007,4.007,4.007,4.007,4.007,4.007,4.007,4.007,4.007,4.007,4.007,4.007,4.007,4.007,4.0426,4.1187,4.1204,4.1559,4.2286,4.2286,4.2286,4.2286,4.2286,4.2286,3.2921,3.2983,0.0,0.0,0.0,0.0,0.0,0.0,0.0,0.0,0.0,0.0,0.0,0.0,0.0,2.7275,2.693,2.641,2.5243,2.4645,2.4335,2.4335,2.4111,2.3764,2.3138,2.3603,2.348,2.2213,2.3294,2.3803,2.3495,2.4013,2.4606,2.5069,2.5079,2.518,2.5399,2.5881,2.6179,2.6205,2.692,2.6905,2.6205,2.6701,2.6935,2.695,2.717,2.728,2.7294,2.7515,2.7625,2.7625,2.7625,2.7876,2.8283,2.8662,2.9061,2.9479,2.9868,3.0622,3.1406,3.1383,3.2191,3.327,3.399,3.4337,3.4662,3.538,3.5622,3.5622,3.5622,3.5459,3.5346,3.5543,3.5622,3.5577,3.5362,3.547,3.5515,3.5362,3.547,3.6113,3.7635,3.7905,3.8396,3.9868,4.007,4.007,4.007,4.007,4.007,4.007,4.007,4.007,4.007,4.007,4.007,4.007,4.007,4.007,4.007,4.007,4.0189,4.0409,4.0933,4.1322,4.1525,4.2049,4.2286,4.2286,4.2286,4.2286,3.3543,0.0,0.0,0.0,0.0,0.0,0.0,0.0,0.0,0.0,0.0,0.0,0.0,0.0,0.0,2.8685,2.792,2.7093,2.6329,2.5714,2.5381,2.5381,2.5381,2.5172,2.4689,2.5118,2.4937,2.3877,2.4813,2.5159,2.4619,2.5131,2.5562,2.5826,2.5812,2.5988,2.6249,2.6701,2.6935,2.6935,2.7405,2.75,2.7294,2.7515,2.7625,2.7625,2.7876,2.7936,2.8001,2.8238,2.8299,2.8299,2.8299,2.8536,2.8874,2.914,2.9448,2.9794,3.0018,3.0651,3.1331,3.1331,3.2088,3.3043,3.3499,3.4044,3.4594,3.502,3.5363,3.5622,3.5622,3.5622,3.5622,3.5622,3.5622,3.5622,3.5622,3.5622,3.5622,3.5622,3.5622,3.6113,3.7635,3.7905,3.8396,3.9868,4.007,4.007,4.007,4.007,4.007,4.007,4.007,4.007,4.007,4.007,4.007,4.007,4.007,4.007,4.007,4.007,4.007,4.007,4.0527,4.0747,4.0747,4.1204,4.1407,4.1407,4.1407,4.1407,0.0,0.0,0.0,0.0,0.0,0.0,0.0,0.0,0.0,0.0,0.0,0.0,0.0,0.0,0.0,3.036,2.8902,2.7689,2.75,2.6482,2.5741,2.5633,2.5647,2.5662,2.5633,2.5618,2.5633,2.5662,2.5647,2.5633,2.5662,2.5647,2.5893,2.6577,2.6672,2.7015,2.767,2.775,2.775,2.767,2.775,2.8017,2.8505,2.7891,2.764,2.7735,2.8299,2.8575,2.8602,2.9154,2.9391,2.9391,2.9391,2.9407,2.9543,3.0095,3.0314,3.0454,3.1016,3.119,3.119,3.119,3.1647,3.2207,3.2349,3.333,3.4438,3.4561,3.5099,3.5622,3.5622,3.5622,3.5622,3.5622,3.5622,3.5622,3.5622,3.5622,3.5622,3.5622,3.5622,3.6113,3.7635,3.7905,3.8396,3.9868,4.007,4.007,4.007,4.007,4.007,4.007,4.007,4.007,4.007,4.007,4.007,4.007,4.007,4.007,4.007,4.007,4.007,4.007,4.007,4.007,4.007,4.007,4.007,4.007,4.007,4.007,0.0,0.0,0.0,0.0,0.0,0.0,0.0,0.0,0.0,0.0,0.0,0.0,0.0,0.0,3.1756,3.0931,3.0475,2.9789,2.8442,2.841,2.8173,2.7265,2.753,2.7655,2.717,2.714,2.7309,2.7795,2.7405,2.7309,2.7795,2.739,2.7184,2.7375,2.7795,2.8142,2.8283,2.8773,2.8773,2.8299,2.8789,2.8804,2.8505,2.7891,2.7876,2.8364,2.8931,2.9187,2.923,2.937,2.9403,2.9403,2.9403,2.9699,3.0129,3.0246,3.0594,3.1016,3.1157,3.119,3.119,3.119,3.1314,3.1647,3.2809,3.3396,3.3867,3.503,3.5493,3.5622,3.5622,3.5622,3.5622,3.5622,3.5622,3.5622,3.5622,3.5622,3.5622,3.5622,3.5622,3.6113,3.7635,3.7905,3.8396,3.9868,4.007,4.007,4.007,4.007,4.007,4.007,4.007,4.007,4.007,4.007,4.007,4.007,4.007,4.007,4.007,4.007,4.007,4.007,4.007,4.007,4.007,4.007,4.007,4.007,4.007,4.007,0.0,0.0,0.0,0.0,0.0,0.0,0.0,0.0,0.0,0.0,0.0,0.0,0.0,0.0,3.2247,3.1445,3.1121,3.064,2.954,2.939,2.9171,2.8553,2.8759,2.8804,2.8505,2.844,2.8617,2.8915,2.8639,2.8607,2.892,2.8632,2.844,2.844,2.8773,2.8943,2.8939,2.9236,2.9236,2.8955,2.9242,2.9244,2.891,2.8611,2.8647,2.8955,2.955,2.9831,2.9844,3.0124,3.0264,3.0264,3.0264,3.0437,3.0718,3.0718,3.0909,3.119,3.119,3.119,3.119,3.119,3.1455,3.1856,3.2633,3.3373,3.4109,3.4857,3.5511,3.5968,3.5994,3.5968,3.5968,3.5968,3.5783,3.5622,3.5622,3.5622,3.5622,3.5622,3.5622,3.6113,3.7635,3.8481,3.9208,3.9969,4.007,4.007,4.007,4.007,4.007,4.007,4.007,4.007,4.007,4.007,4.007,4.007,4.007,4.007,4.007,4.007,4.007,4.007,4.007,4.007,4.007,4.007,4.007,4.007,4.007,4.007,0.0,0.0,0.0,0.0,0.0,0.0,0.0,0.0,0.0,0.0,0.0,0.0,0.0,3.2787,3.2627,3.2177,3.1683,3.1172,3.0598,3.0154,2.9828,2.952,2.9576,2.9607,2.9401,2.9386,2.945,2.9528,2.9469,2.9459,2.9546,2.9465,2.9386,2.9386,2.9496,2.9539,2.9565,2.9655,2.9655,2.9565,2.9555,2.9614,2.9699,2.9729,2.9659,2.9565,3.0213,3.0454,3.051,3.0999,3.119,3.119,3.119,3.119,3.119,3.119,3.119,3.1207,3.1297,3.1314,3.1331,3.154,3.2032,3.2576,3.277,3.3741,3.4772,3.483,3.5656,3.6536,3.6528,3.6539,3.6539,3.6539,3.6207,3.581,3.5667,3.565,3.5694,3.5622,3.5825,3.6417,3.7686,3.9188,4.0254,4.0254,4.0254,4.0238,4.0222,4.0172,4.007,4.007,4.007,4.007,4.007,4.0154,4.0254,4.0254,4.0336,4.0336,4.0254,4.0254,4.0204,4.007,4.007,4.007,4.007,4.007,4.007,4.007,4.007,4.007,0.0,0.0,0.0,0.0,0.0,0.0,0.0,0.0,0.0,0.0,0.0,0.0,3.4037,3.3969,3.385,3.3424,3.3105,3.2556,3.1568,3.1808,3.1534,3.0096,3.0373,3.0351,2.9477,2.9411,2.9617,3.0161,2.9686,2.9642,3.0144,2.9707,2.9411,2.9411,2.9914,3.0159,3.0157,3.0701,3.0701,3.0157,3.0159,3.0439,3.0943,3.0945,3.067,3.0213,3.0825,3.1067,3.1067,3.1173,3.119,3.119,3.119,3.119,3.119,3.119,3.119,3.1224,3.1613,3.1698,3.1913,3.3002,3.3446,3.3676,3.4626,3.5318,3.5836,3.6086,3.6587,3.7112,3.7082,3.7097,3.7097,3.7097,3.7038,3.6706,3.581,3.5985,3.6139,3.5694,3.6688,3.7669,3.7872,3.9521,4.078,4.078,4.078,4.0793,4.0797,4.0391,4.007,4.007,4.007,4.007,4.007,4.0546,4.078,4.078,4.1268,4.1313,4.0827,4.078,4.0577,4.0121,4.007,4.007,4.007,4.007,4.007,4.007,4.007,4.007,0.0,0.0,0.0,0.0,0.0,0.0,0.0,0.0,0.0,0.0,0.0,0.0,3.4572,3.4486,3.4274,3.371,3.3488,3.3128,3.2225,3.2334,3.2231,3.1478,3.1629,3.1642,3.1188,3.1126,3.1119,3.1162,3.1157,3.1157,3.1157,3.0875,3.0735,3.0735,3.0769,3.0825,3.0825,3.105,3.105,3.0825,3.1033,3.1297,3.154,3.1805,3.1506,3.0825,3.1067,3.1331,3.1523,3.1523,3.1681,3.1947,3.1947,3.1788,3.1557,3.1822,3.1771,3.1613,3.2032,3.2472,3.2944,3.3505,3.4276,3.5065,3.5542,3.615,3.6699,3.6836,3.7214,3.7593,3.7578,3.7578,3.7578,3.7578,3.7396,3.7058,3.6603,3.6684,3.6764,3.6563,3.7714,3.879,3.879,4.0228,4.1402,4.1402,4.1402,4.1408,4.1393,4.1194,4.0934,4.0645,4.0861,4.0941,4.0582,4.108,4.1402,4.1402,4.1664,4.1664,4.1402,4.1402,4.1268,4.1076,4.0434,4.007,4.007,4.0417,4.0417,4.0121,4.0417,4.0368,0.0,0.0,0.0,0.0,0.0,0.0,0.0,0.0,0.0,0.0,0.0,3.546,3.5019,3.4851,3.4636,3.4083,3.3864,3.3551,3.3015,3.2867,3.2809,3.2681,3.2677,3.2648,3.2511,3.2486,3.235,3.2009,3.23,3.2337,3.2,3.1982,3.1938,3.1788,3.163,3.1472,3.1348,3.1348,3.1348,3.1348,3.1664,3.1867,3.1982,3.2332,3.214,3.1545,3.153,3.1681,3.1986,3.1992,3.2175,3.249,3.249,3.2298,3.2015,3.2351,3.2294,3.2088,3.2772,3.3377,3.3954,3.4495,3.5444,3.6401,3.6455,3.6988,3.7559,3.7426,3.7735,3.8099,3.8099,3.8099,3.8099,3.8099,3.7843,3.756,3.7396,3.7285,3.7319,3.7609,3.8688,3.9545,3.9797,4.1032,4.2021,4.2021,4.2021,4.2026,4.2043,4.1903,4.1655,4.1276,4.1558,4.1635,4.1174,4.1687,4.2021,4.2021,4.2144,4.2185,4.2021,4.2021,4.1937,4.1793,4.1001,4.0514,4.0514,4.092,4.092,4.0563,4.092,4.092,0.0,0.0,0.0,0.0,0.0,0.0,0.0,0.0,0.0,0.0,0.0,3.5589,3.5556,3.5277,3.507,3.5034,3.4534,3.4152,3.4128,3.3891,3.3578,3.3214,3.3154,3.3001,3.2535,3.2499,3.2483,3.2469,3.2494,3.2478,3.2447,3.2456,3.2255,3.181,3.219,3.2207,3.1788,3.1788,3.1788,3.1788,3.1788,3.2039,3.2456,3.2475,3.2475,3.2437,3.2422,3.2439,3.2454,3.2455,3.2475,3.2493,3.2493,3.2475,3.248,3.2489,3.2492,3.263,3.3872,3.4321,3.4706,3.6673,3.7363,3.7473,3.7723,3.8193,3.8535,3.801,3.8261,3.8658,3.8658,3.8658,3.8658,3.8658,3.8627,3.8465,3.798,3.7506,3.7536,3.8762,3.9274,3.9722,4.0488,4.1747,4.2655,4.2655,4.2655,4.2655,4.2634,4.2131,4.1774,4.1734,4.1779,4.1801,4.1779,4.23,4.2655,4.2655,4.3124,4.316,4.2655,4.2655,4.2382,4.181,4.175,4.1725,4.1725,4.175,4.1768,4.1725,4.175,4.1768,0.0,0.0,0.0,0.0,0.0,0.0,0.0,0.0,0.0,0.0,3.5684,3.5664,3.5663,3.5508,3.5304,3.5122,3.4925,3.4735,3.4551,3.4442,3.433,3.4176,3.3963,3.3784,3.3615,3.3432,3.3216,3.2979,3.3171,3.3212,3.2972,3.2958,3.2855,3.2693,3.2576,3.2433,3.2259,3.2241,3.2264,3.2247,3.2542,3.2805,3.2948,3.3213,3.3331,3.3323,3.334,3.3185,3.2952,3.2938,3.3103,3.3331,3.3331,3.3176,3.2967,3.3244,3.3513,3.3825,3.4531,3.5487,3.6509,3.7266,3.7863,3.8279,3.8383,3.8548,3.867,3.8475,3.8548,3.8707,3.8707,3.8707,3.8707,3.8707,3.8707,3.8658,3.8465,3.8267,3.8437,3.9404,4.0104,4.0799,4.1579,4.2541,4.3214,4.3214,4.3214,4.3214,4.3214,4.3014,4.274,4.2418,4.2702,4.274,4.2397,4.2904,4.3214,4.3214,4.341,4.341,4.3214,4.3214,4.3124,4.2903,4.2903,4.2523,4.181,4.2203,4.2162,4.181,4.2203,4.2162,0.0,0.0,0.0,0.0,0.0,0.0,0.0,0.0,0.0,0.0,3.5676,3.5663,3.5698,3.5601,3.5492,3.5304,3.5174,3.5053,3.487,3.4773,3.4694,3.4694,3.4508,3.4334,3.42,3.4043,3.3813,3.3552,3.3787,0.0,3.3567,3.3524,3.3505,3.3386,3.2977,3.2752,3.2738,3.2734,3.2739,3.2739,3.3045,3.3276,3.3405,3.3697,3.3807,3.3807,3.3807,3.3633,3.3386,3.3386,3.356,3.3807,3.3807,3.3807,3.3844,3.4091,3.4549,3.5118,3.5643,3.6586,3.7528,3.7814,3.8261,3.8707,3.8707,3.8707,3.8707,3.8707,3.8707,3.8707,3.8707,3.8707,3.8707,3.8707,3.8707,3.8707,3.8707,3.8909,3.935,4.0157,4.0946,4.1772,4.2561,4.3149,4.3497,4.3497,4.3497,4.3497,4.3497,4.3497,4.3356,4.3014,4.3286,4.3375,4.3014,4.3304,4.3497,4.3497,4.3497,4.3497,4.3497,4.3497,4.3497,4.3497,4.3497,4.3142,4.2346,4.2752,4.2752,4.2386,4.279,4.2752,0.0,0.0,0.0,0.0,0.0,0.0,3.4186,0.0,3.5268,0.0,3.5581,3.5619,3.568,3.5647,3.5613,3.5612,3.5327,3.5105,3.5105,3.4889,3.4733,3.4733,3.4733,3.4572,3.4246,3.4223,3.42,3.42,3.42,3.421,3.4199,3.4191,3.4072,3.3825,3.3423,3.3213,3.324,3.3213,3.3213,3.3213,3.3213,3.3405,3.3807,3.3807,3.3807,3.3807,3.3807,3.3807,3.3807,3.3807,3.3807,3.3807,3.3825,3.4301,3.4989,3.5045,3.5596,3.6436,3.7216,3.7509,3.7668,3.8456,3.8707,3.8707,3.8707,3.8707,3.8707,3.8707,3.8707,3.8707,3.8707,3.8707,3.8707,3.8707,3.8707,3.8707,3.8726,3.9368,4.0175,4.0965,4.1754,4.2561,4.3351,4.3497,4.3497,4.3497,4.3497,4.3497,4.3497,4.3497,4.3497,4.3497,4.3497,4.3497,4.3497,4.3497,4.3497,4.3497,4.3497,4.3497,4.3497,4.3497,4.3497,4.3497,4.3497,4.3497,4.3497,4.3497,4.3497,4.3497,4.3497,4.3497,3.1487,0.0,0.0,0.0,0.0,0.0,3.4064,3.4561,3.494,3.5302,3.5386,3.5491,3.5853,3.5867,3.5807,3.5817,3.5657,3.5518,3.5518,3.5435,3.5346,3.5346,3.5143,3.4944,3.4851,3.4675,3.4551,0.0,3.4551,3.4461,3.4191,3.402,3.3981,3.4091,3.3788,3.3733,3.3925,3.3733,3.3615,3.3615,3.3615,3.3697,3.3807,3.3807,3.3807,3.3807,3.3807,3.3807,3.3807,3.3807,3.3807,3.3844,3.4439,3.4797,3.5073,3.5721,3.6442,3.7209,3.7412,3.7882,3.8401,3.8634,3.8707,3.8707,3.8707,3.8707,3.8707,3.8707,3.8707,3.8707,3.8707,3.8707,3.8707,3.8707,3.8707,3.8854,3.9441,4.0194,4.0836,4.1075,4.1754,4.2561,4.3351,4.3497,4.3497,4.3497,4.3497,4.3497,4.3497,4.3497,4.3497,4.3497,4.3497,4.3497,4.3497,4.3497,4.3497,4.3497,4.3497,4.3497,4.3497,4.3497,4.3497,4.3497,4.3497,4.3497,4.3497,4.3497,4.3497,4.3497,4.3497,4.3497,0.0,0.0,0.0,0.0,0.0,0.0,3.367,3.4263,3.4813,0.0,3.5378,3.5489,3.5809,3.5846,3.5831,3.5923,3.5883,3.5811,3.5715,3.5676,3.562,3.5597,3.5426,3.5261,3.5105,3.4963,3.487,3.487,3.487,3.4774,3.4595,3.4335,3.4247,3.4395,3.4259,3.4248,3.4413,3.4249,3.4109,3.3981,3.3981,3.3981,3.3981,3.3981,3.4036,3.4191,3.4191,3.4357,3.4686,3.4549,3.4439,3.4402,3.5219,3.5763,3.6101,3.6602,3.7296,3.7992,3.7992,3.8297,3.8707,3.8707,3.8707,3.8707,3.8707,3.8707,3.8707,3.8707,3.8707,3.8707,3.8707,3.8707,3.8707,3.8707,3.8964,3.9331,3.979,4.0799,4.1607,4.1607,4.2249,4.2947,4.3406,4.3497,4.3497,4.3497,4.3497,4.3497,4.3497,4.3497,4.3497,4.3497,4.3497,4.3497,4.3497,4.3497,4.3497,4.3497,4.3497,4.3497,4.3497,4.3497,4.3497,4.3497,4.3497,4.3497,4.3497,4.3497,4.3497,4.3497,4.3497,4.3497,0.0,0.0,0.0,0.0,0.0,0.0,3.3168,3.3985,3.4754,3.5254,3.5383,3.5424,3.5581,3.5636,3.5713,3.5893,3.5968,3.593,3.5755,3.5735,3.5694,3.5628,3.5605,3.5475,3.5174,3.5157,3.5138,3.5138,3.5122,3.5105,3.5105,3.4845,3.4727,3.4749,3.4725,3.471,3.4736,3.4694,3.4537,3.4271,3.4271,3.4265,3.4246,3.4249,3.4481,3.4821,3.4821,3.528,3.6043,3.5887,3.5592,3.5275,3.6094,3.6867,3.7509,3.7631,3.8114,3.8707,3.8726,3.8726,3.8707,3.8707,3.8707,3.8707,3.8707,3.8707,3.8707,3.8707,3.8707,3.8707,3.8707,3.8707,3.8726,3.8817,3.9386,3.9937,4.012,4.1295,4.2323,4.2415,4.3002,4.3497,4.3497,4.3497,4.3497,4.3497,4.3497,4.3497,4.3497,4.3497,4.3497,4.3497,4.3497,4.3497,4.3497,4.3497,4.3497,4.3497,4.3497,4.3497,4.3497,4.3497,4.3497,4.3497,4.3589,4.3663,4.3754,4.3571,4.3534,4.3642,4.3642,4.3679,0.0,0.0,0.0,0.0,0.0,0.0,3.3123,3.3616,3.4087,0.0,3.4614,3.4714,3.5,3.5241,3.5386,3.5435,3.5714,3.5912,3.5932,3.5893,3.5851,3.584,3.5708,3.557,3.5508,3.5451,3.5432,3.5432,3.5223,3.5105,3.5105,3.4851,3.4809,3.5022,3.481,3.4814,3.5013,3.4821,3.4677,3.4604,3.4601,3.4586,3.4602,3.4604,3.4999,3.5665,3.5665,3.6157,3.6977,3.7596,3.7265,3.6449,3.7021,3.7369,3.7613,3.8475,3.8744,3.8726,3.8958,3.8903,3.8707,3.8707,3.8707,3.8707,3.8707,3.8707,3.8707,3.8707,3.8707,3.8707,3.8707,3.8707,3.8854,3.9515,3.979,4.0249,4.1552,4.2084,4.2488,4.313,4.3387,4.3497,4.3497,4.3497,4.3497,4.3497,4.3497,4.3497,4.3497,4.3497,4.3497,4.3497,4.3497,4.3497,4.3497,4.3497,4.3497,4.3497,4.3497,4.3497,4.3497,4.3497,4.3497,4.3497,4.414,4.4782,4.5424,4.4121,4.3807,4.4481,4.4481,4.4828,0.0,0.0,0.0,3.1449,0.0,0.0,0.0,3.3552,3.4093,3.4464,3.4548,3.4626,3.4814,3.5078,3.5256,3.53,3.5635,3.5891,3.5857,3.5912,3.5937,3.5898,3.5799,3.5718,3.5661,3.5603,3.5545,3.5493,3.5369,3.5304,3.5304,3.5174,3.5157,3.5299,3.5165,3.5151,3.5301,3.5166,3.5018,3.4903,3.4887,3.4903,3.4903,3.5312,3.5795,3.6309,3.6762,3.7435,3.8257,3.8497,3.8536,3.8404,3.8514,3.8548,3.8634,3.9173,3.924,3.9161,3.9312,3.9265,3.9105,3.8958,3.8903,3.8909,3.8888,3.9016,3.9127,3.8952,3.8894,3.8855,3.875,3.9001,3.9405,3.979,4.0506,4.1313,4.2121,4.2616,4.302,4.3406,4.3664,4.3693,4.3513,4.3497,4.3497,4.3497,4.3497,4.3497,4.3497,4.3497,4.3497,4.3497,4.3497,4.3497,4.3497,4.3497,4.3497,4.3497,4.3497,4.3663,4.4085,4.4103,4.4287,4.469,4.5094,4.5498,4.5902,4.5093,4.4888,4.5287,4.5287,4.5512,0.0,0.0,0.0,0.0,0.0,3.2431,0.0,0.0,0.0,3.4338,3.4423,0.0,0.0,0.0,0.0,0.0,0.0,0.0,0.0,3.5739,0.0,3.5898,3.5911,3.5863,3.5746,3.5663,3.5603,3.5526,3.5526,3.5526,3.5493,3.5493,3.5493,3.5493,3.5493,3.5493,3.5493,3.5493,3.5378,3.5185,3.5339,3.5416,3.5435,3.6252,3.6843,3.7233,3.7943,3.875,3.9512,3.9246,3.955,4.0156,3.9733,3.9593,3.9612,3.9649,3.9668,3.9608,3.9665,3.963,3.9556,3.9268,3.9202,3.9202,3.9194,3.9396,3.9534,3.9264,3.9205,3.9208,3.9145,3.9612,4.0166,4.0461,4.1551,4.2548,4.2714,4.325,4.3712,4.3712,4.3943,4.4016,4.3646,4.3646,4.3712,4.3712,4.3664,4.3597,4.3597,4.3548,4.3497,4.3497,4.3497,4.3497,4.3497,4.3497,4.3552,4.3718,4.3718,4.4085,4.4911,4.4947,4.5314,4.6122,4.614,4.6214,4.6361,4.6342,4.6285,4.6115,4.6112,4.6194,0.0,0.0,0.0,0.0,3.1545,0.0,0.0,0.0,3.2805,3.3266,0.0,0.0,0.0,0.0,0.0,0.0,0.0,0.0,3.4536,3.5201,3.5775,3.5895,3.5896,3.589,3.5884,3.5759,3.5661,3.5603,3.5603,3.5565,3.5493,3.5493,3.5493,3.5493,3.5493,3.5493,3.5493,3.5493,3.5474,3.5455,3.6185,3.6526,3.6554,3.7409,3.8248,3.8996,3.9112,3.9608,4.0354,4.0315,4.0373,4.0412,3.9819,3.9595,3.9634,3.9938,3.9854,3.965,3.9953,3.9844,3.9595,3.9557,3.9543,3.9529,3.9551,3.9583,3.9599,3.9552,3.9534,3.9722,4.0452,4.0715,4.1148,4.258,4.3043,4.3401,4.4173,4.4417,4.4474,4.4474,4.4501,4.4419,4.4016,4.4252,4.4474,4.4474,4.4165,4.3924,4.3924,4.366,4.3497,4.3497,4.3497,4.3497,4.3497,4.3497,4.3791,4.4525,4.4562,4.4929,4.5736,4.5755,4.614,4.6966,4.6966,4.7315,4.8031,4.8031,4.7684,4.6948,4.696,4.7351,0.0,0.0,0.0,0.0,0.0,0.0,3.2127,0.0,3.3045,0.0,0.0,0.0,0.0,0.0,0.0,0.0,3.4632,0.0,0.0,0.0,3.572,0.0,0.0,0.0,3.5896,3.5856,3.5762,3.567,3.5623,3.5603,3.5565,3.5526,3.5493,3.5493,3.5493,3.5493,3.5493,3.5493,3.5738,3.6199,3.6551,3.6954,3.7469,3.8368,3.895,3.9323,3.9781,4.02,4.0489,4.0489,4.0489,4.0469,4.0219,4.0123,4.0142,4.0277,4.0239,4.0142,4.0277,4.0239,4.0104,3.9935,3.9898,3.9891,3.989,4.0005,4.0101,3.9943,4.0224,4.064,4.0863,4.1585,4.2454,4.3133,4.37,4.4153,4.4504,4.458,4.458,4.458,4.4776,4.4849,4.4663,4.4631,4.458,4.458,4.4474,4.4364,4.4364,4.4223,4.4154,4.4154,4.3912,4.399,4.4471,4.4297,4.4544,4.5351,4.5847,4.625,4.6599,4.704,4.7462,4.781,4.781,4.7976,4.8306,4.8306,4.8122,4.7812,4.7813,4.7978,3.123,0.0,0.0,0.0,0.0,0.0,0.0,0.0,0.0,0.0,0.0,0.0,0.0,0.0,0.0,0.0,0.0,3.4885,0.0,3.5197,0.0,0.0,0.0,0.0,0.0,3.5918,3.5873,3.5758,3.571,3.5673,3.5636,3.5584,3.5565,3.5545,3.5545,3.5622,3.5834,3.5834,3.6238,3.7065,3.73,3.7743,3.8392,3.9242,3.9627,3.9665,4.0258,4.0489,4.0489,4.0489,4.0489,4.0489,4.0489,4.0489,4.0489,4.0489,4.0489,4.0489,4.0489,4.0489,4.0469,4.0277,4.0219,4.0207,4.0211,4.0356,4.0495,4.0537,4.0997,4.1495,4.177,4.2693,4.3643,4.387,4.4421,4.4853,4.4853,4.4853,4.4853,4.4853,4.5074,4.5243,4.5243,4.5052,4.4853,4.4853,4.48,4.4751,4.4751,4.4657,4.4674,4.4926,4.4684,4.4771,4.5488,4.5327,4.5493,4.6177,4.6985,4.7443,4.7443,4.7994,4.8306,4.8306,4.8306,4.8306,4.8306,4.8306,4.8306,4.8306,4.8306,4.8306,0.0,0.0,0.0,3.119,0.0,0.0,0.0,0.0,3.1487,0.0,0.0,0.0,0.0,0.0,0.0,0.0,0.0,0.0,0.0,0.0,0.0,0.0,0.0,0.0,0.0,3.5957,3.5976,3.5898,3.5898,3.5825,3.5701,3.5699,3.5661,3.5603,3.5603,3.5949,3.6661,3.6661,3.7103,3.7969,3.8815,3.9234,3.9292,4.01,4.045,4.045,4.0489,4.0489,4.0489,4.0489,4.0489,4.0489,4.0489,4.0489,4.0489,4.0489,4.0489,4.0489,4.0489,4.0489,4.0489,4.0489,4.0489,4.0489,4.0489,4.0489,4.0662,4.1511,4.1761,4.2165,4.378,4.4222,4.4472,4.5318,4.5549,4.5568,4.5568,4.5568,4.5568,4.5568,4.5568,4.5586,4.5586,4.5568,4.5568,4.5568,4.5302,4.5074,4.5074,4.48,4.4908,4.5682,4.5749,4.5951,4.6408,4.6438,4.6613,4.7021,4.7829,4.8269,4.8269,4.8306,4.8306,4.8306,4.8306,4.8306,4.8306,4.8306,4.8306,4.8306,4.8306,4.8306,3.1329,0.0,3.119,3.119,0.0,0.0,0.0,0.0,0.0,0.0,0.0,0.0,0.0,0.0,0.0,0.0,0.0,0.0,0.0,0.0,0.0,0.0,0.0,0.0,0.0,0.0,3.5996,3.5976,3.5937,3.5873,3.5841,3.5753,3.5697,3.5678,3.6233,3.6617,3.682,3.7397,3.8104,3.8854,3.9161,3.9565,4.01,4.0389,4.0489,4.0489,4.0489,4.0489,4.0489,4.0489,4.0489,4.0489,4.0489,4.0489,4.0489,4.0489,4.0489,4.0489,4.0489,4.0489,4.0489,4.0489,4.0489,4.0489,4.0489,4.0893,4.1431,4.172,4.2604,4.3585,4.4143,4.472,4.522,4.5528,4.5586,4.5586,4.5586,4.5586,4.5586,4.5586,4.5586,4.5586,4.5586,4.5586,4.5586,4.5586,4.5495,4.5438,4.5438,4.584,4.6239,4.6506,4.6809,4.727,4.7958,4.8324,4.8521,4.8696,4.8926,4.9075,4.9075,4.9075,4.9075,4.9075,4.9075,4.8963,4.8692,4.8692,4.8568,4.8306,4.8306,4.8306,3.1389,3.1291,3.1411,3.1411,3.1411,0.0,3.1752,0.0,3.2022,0.0,0.0,0.0,0.0,0.0,0.0,0.0,0.0,0.0,0.0,3.5155,0.0,0.0,0.0,0.0,0.0,3.5915,3.5976,3.5996,3.5957,3.5937,0.0,3.5857,3.5942,3.6216,3.6786,3.7327,3.787,3.842,3.908,3.9831,3.9831,4.01,4.0581,4.0581,4.0562,4.0489,4.0489,4.0489,4.0489,4.0489,4.0489,4.0489,4.0489,4.0489,4.0489,4.0489,4.0489,4.0489,4.0489,4.0489,4.0489,4.0489,4.0489,4.0562,4.087,4.1351,4.1928,4.2508,4.3487,4.4372,4.4682,4.5182,4.5586,4.5586,4.5586,4.5586,4.5586,4.5586,4.5586,4.5586,4.5586,4.5586,4.5586,4.5586,4.5586,4.5586,4.5855,4.6067,4.6067,4.6797,4.7451,4.7759,4.8066,4.8531,4.9196,4.9397,4.9504,4.9504,4.9504,4.9504,4.9504,4.9504,4.9504,4.9504,4.9504,4.9359,4.9114,4.9113,4.8911,4.8489,4.8489,4.8434]},{"header":{"parameterUnit":"m.s-1","parameterCategory":1,"la1":30.6,"la2":29.2853,"lo1":-89.7004,"lo2":-87.6739,"dy":0.0162,"dx":0.0183,"nx":112,"ny":82,"refTime":"2023-10-12T00:00:00:Z","depth":0,"parameterNumber":3,"parameterNumberName":"V-component_of_WINDS"},"data":[0.0,0.0,0.0,0.0,0.0,0.0,0.0,0.0,0.0,0.0,0.0,0.0,0.0,0.0,0.0,0.0,0.0,0.0,0.0,0.0,0.0,0.0,0.0,0.0,0.0,0.0,0.0,0.0,0.0,0.0,0.0,0.0,0.0,0.0,0.0,0.0,0.0,0.0,0.0,0.0,0.0,0.0,0.0,0.0,0.0,0.0,0.0,0.0,0.0,0.0,0.0,0.0,0.0,0.0,0.0,0.0,0.0,0.0,0.0,0.0,0.0,0.0,0.0,0.0,0.0,0.0,0.0,0.0,0.0,0.0,0.0,0.0,0.0,0.0,0.0,0.0,0.0,0.0,0.0,0.0,0.0,0.0,0.0,0.0,0.0,0.0,0.0,0.0,0.0,0.0,-2.3293,-2.3793,-2.5052,-2.6115,-2.6725,-2.6762,-2.6711,-2.6607,0.0,0.0,0.0,0.0,0.0,0.0,0.0,0.0,0.0,0.0,0.0,0.0,0.0,0.0,0.0,0.0,0.0,0.0,0.0,0.0,0.0,0.0,0.0,0.0,0.0,0.0,0.0,0.0,0.0,0.0,0.0,0.0,0.0,0.0,0.0,0.0,0.0,0.0,0.0,0.0,0.0,0.0,0.0,0.0,0.0,0.0,0.0,0.0,0.0,0.0,0.0,0.0,0.0,0.0,0.0,0.0,0.0,0.0,0.0,0.0,0.0,0.0,0.0,0.0,0.0,0.0,0.0,0.0,0.0,0.0,0.0,0.0,0.0,0.0,0.0,0.0,0.0,0.0,0.0,0.0,0.0,0.0,0.0,0.0,0.0,0.0,0.0,0.0,0.0,0.0,0.0,0.0,0.0,0.0,0.0,0.0,0.0,0.0,0.0,0.0,0.0,0.0,0.0,0.0,-2.4709,-2.7215,-2.7735,-2.8134,-2.8887,-2.8933,-2.8654,-2.804,0.0,0.0,0.0,0.0,0.0,0.0,0.0,0.0,0.0,0.0,0.0,0.0,0.0,0.0,0.0,0.0,0.0,0.0,0.0,0.0,0.0,0.0,0.0,0.0,0.0,0.0,0.0,0.0,0.0,0.0,0.0,0.0,0.0,0.0,0.0,0.0,0.0,0.0,0.0,0.0,0.0,0.0,0.0,0.0,0.0,0.0,0.0,0.0,0.0,0.0,0.0,0.0,0.0,0.0,0.0,0.0,0.0,0.0,0.0,0.0,0.0,0.0,0.0,0.0,0.0,0.0,0.0,0.0,0.0,0.0,0.0,0.0,0.0,0.0,0.0,0.0,0.0,0.0,0.0,0.0,0.0,0.0,0.0,0.0,0.0,0.0,0.0,0.0,0.0,0.0,0.0,0.0,0.0,0.0,0.0,0.0,0.0,0.0,0.0,0.0,0.0,0.0,0.0,-2.5638,-2.6608,-2.8685,-2.8902,-2.9162,-2.9848,-2.9908,-2.9729,-2.9399,-2.8793,0.0,0.0,0.0,0.0,0.0,0.0,0.0,0.0,0.0,0.0,0.0,0.0,0.0,0.0,0.0,0.0,0.0,0.0,0.0,0.0,0.0,0.0,0.0,0.0,0.0,0.0,0.0,0.0,0.0,0.0,0.0,0.0,0.0,0.0,0.0,0.0,0.0,0.0,0.0,0.0,0.0,0.0,0.0,0.0,0.0,0.0,0.0,0.0,0.0,0.0,0.0,0.0,0.0,0.0,0.0,0.0,0.0,0.0,0.0,0.0,0.0,0.0,0.0,0.0,0.0,0.0,0.0,0.0,0.0,0.0,0.0,0.0,0.0,0.0,0.0,0.0,0.0,0.0,0.0,0.0,0.0,0.0,0.0,0.0,0.0,0.0,0.0,0.0,0.0,0.0,0.0,0.0,0.0,0.0,0.0,0.0,0.0,0.0,0.0,0.0,0.0,0.0,-2.7875,-2.8545,-2.9843,-2.9989,-3.0185,-3.0778,-3.0818,-3.0778,-3.0673,-3.0526,0.0,0.0,0.0,0.0,0.0,0.0,0.0,0.0,0.0,0.0,0.0,0.0,0.0,0.0,0.0,0.0,0.0,0.0,0.0,0.0,0.0,0.0,0.0,0.0,0.0,0.0,0.0,0.0,0.0,0.0,0.0,0.0,0.0,0.0,0.0,0.0,0.0,0.0,0.0,0.0,0.0,0.0,0.0,0.0,0.0,0.0,0.0,0.0,0.0,0.0,0.0,0.0,0.0,0.0,0.0,0.0,0.0,0.0,0.0,0.0,0.0,0.0,0.0,0.0,0.0,0.0,0.0,0.0,0.0,0.0,0.0,0.0,0.0,0.0,0.0,0.0,0.0,0.0,0.0,0.0,0.0,0.0,0.0,0.0,0.0,0.0,0.0,0.0,0.0,0.0,0.0,0.0,0.0,0.0,0.0,0.0,0.0,0.0,0.0,0.0,0.0,0.0,-2.931,-3.051,-3.1603,-3.1679,-3.1844,-3.2298,-3.2332,-3.2161,-3.1735,-3.1215,0.0,0.0,0.0,0.0,0.0,0.0,0.0,0.0,0.0,0.0,0.0,0.0,0.0,0.0,0.0,0.0,0.0,0.0,0.0,0.0,0.0,0.0,0.0,0.0,0.0,0.0,0.0,0.0,0.0,0.0,0.0,0.0,0.0,0.0,0.0,0.0,0.0,0.0,0.0,0.0,0.0,0.0,0.0,0.0,0.0,0.0,0.0,0.0,0.0,0.0,0.0,0.0,0.0,0.0,0.0,0.0,0.0,0.0,0.0,0.0,0.0,0.0,0.0,0.0,0.0,0.0,0.0,0.0,0.0,0.0,0.0,0.0,0.0,0.0,0.0,0.0,0.0,0.0,0.0,0.0,0.0,0.0,0.0,0.0,0.0,0.0,0.0,0.0,0.0,0.0,0.0,0.0,0.0,0.0,0.0,0.0,0.0,0.0,0.0,0.0,0.0,0.0,-2.9989,-3.069,0.0,-3.1842,-3.1861,-3.2057,-3.2057,-3.2069,-3.2098,0.0,0.0,0.0,0.0,0.0,0.0,0.0,0.0,0.0,0.0,0.0,0.0,0.0,0.0,0.0,0.0,0.0,0.0,0.0,0.0,0.0,0.0,0.0,0.0,0.0,0.0,0.0,0.0,0.0,0.0,0.0,0.0,0.0,0.0,0.0,0.0,0.0,0.0,0.0,0.0,0.0,0.0,0.0,0.0,0.0,0.0,0.0,0.0,0.0,0.0,0.0,0.0,0.0,0.0,0.0,0.0,0.0,0.0,0.0,0.0,0.0,0.0,0.0,0.0,0.0,0.0,0.0,0.0,0.0,0.0,0.0,0.0,0.0,0.0,0.0,0.0,0.0,0.0,0.0,0.0,0.0,0.0,0.0,0.0,0.0,0.0,0.0,0.0,0.0,0.0,0.0,0.0,0.0,0.0,0.0,0.0,0.0,0.0,0.0,0.0,0.0,0.0,-3.0107,-3.0477,-3.0908,0.0,-3.1915,-3.2092,-3.223,-3.2264,-3.2388,-3.2685,0.0,0.0,0.0,0.0,0.0,0.0,0.0,0.0,0.0,0.0,0.0,0.0,0.0,0.0,0.0,0.0,0.0,0.0,0.0,0.0,0.0,0.0,0.0,0.0,0.0,0.0,0.0,0.0,0.0,0.0,0.0,0.0,0.0,0.0,0.0,0.0,0.0,0.0,0.0,0.0,0.0,0.0,0.0,0.0,0.0,0.0,0.0,0.0,0.0,0.0,0.0,0.0,0.0,0.0,0.0,0.0,0.0,0.0,0.0,0.0,0.0,0.0,0.0,0.0,0.0,0.0,0.0,0.0,0.0,0.0,0.0,0.0,0.0,0.0,0.0,0.0,0.0,0.0,0.0,0.0,0.0,0.0,0.0,0.0,0.0,0.0,0.0,0.0,0.0,0.0,0.0,0.0,0.0,0.0,0.0,0.0,0.0,0.0,0.0,0.0,0.0,0.0,-3.0293,-3.0838,-3.1351,-3.1752,-3.2248,-3.2699,-3.3172,-3.3202,-3.3342,0.0,0.0,0.0,0.0,0.0,0.0,0.0,0.0,0.0,0.0,0.0,0.0,0.0,0.0,0.0,0.0,0.0,0.0,0.0,0.0,0.0,0.0,0.0,0.0,0.0,0.0,0.0,0.0,0.0,0.0,0.0,0.0,0.0,0.0,0.0,0.0,0.0,0.0,0.0,0.0,0.0,0.0,0.0,0.0,0.0,0.0,0.0,0.0,0.0,0.0,0.0,0.0,0.0,0.0,0.0,0.0,0.0,0.0,0.0,0.0,0.0,0.0,0.0,0.0,0.0,0.0,0.0,0.0,0.0,0.0,0.0,0.0,0.0,0.0,0.0,0.0,0.0,0.0,0.0,0.0,0.0,0.0,0.0,0.0,0.0,0.0,0.0,0.0,0.0,0.0,0.0,0.0,0.0,0.0,0.0,0.0,0.0,0.0,0.0,0.0,0.0,0.0,0.0,-3.0878,-3.1095,-3.1487,-3.2213,-3.2928,-3.3381,-3.3481,-3.4013,-3.4305,-3.4226,0.0,0.0,0.0,0.0,0.0,0.0,0.0,0.0,0.0,0.0,0.0,0.0,0.0,0.0,0.0,0.0,0.0,0.0,0.0,0.0,0.0,0.0,0.0,0.0,0.0,0.0,0.0,0.0,0.0,0.0,0.0,0.0,0.0,0.0,0.0,0.0,0.0,0.0,0.0,0.0,0.0,0.0,0.0,0.0,0.0,0.0,0.0,0.0,0.0,0.0,0.0,0.0,0.0,0.0,0.0,0.0,0.0,0.0,0.0,0.0,0.0,0.0,0.0,0.0,0.0,0.0,0.0,0.0,0.0,0.0,0.0,0.0,0.0,0.0,0.0,0.0,0.0,0.0,0.0,0.0,0.0,0.0,0.0,0.0,0.0,0.0,0.0,0.0,0.0,0.0,0.0,0.0,0.0,0.0,0.0,0.0,0.0,0.0,0.0,0.0,0.0,0.0,-3.1151,-3.1444,-3.1832,-3.2366,-3.3299,-3.3863,-3.379,-3.4247,-3.4579,-3.4763,0.0,0.0,0.0,0.0,0.0,0.0,0.0,0.0,0.0,0.0,0.0,0.0,0.0,0.0,0.0,0.0,0.0,0.0,0.0,0.0,0.0,0.0,0.0,0.0,0.0,0.0,0.0,0.0,0.0,0.0,0.0,0.0,0.0,0.0,0.0,0.0,0.0,0.0,0.0,0.0,0.0,0.0,0.0,0.0,0.0,0.0,0.0,0.0,0.0,0.0,0.0,0.0,0.0,0.0,0.0,0.0,0.0,0.0,0.0,0.0,0.0,0.0,0.0,0.0,0.0,0.0,0.0,0.0,0.0,0.0,0.0,0.0,0.0,0.0,0.0,0.0,0.0,0.0,0.0,0.0,0.0,0.0,0.0,0.0,0.0,0.0,0.0,0.0,0.0,0.0,0.0,0.0,0.0,0.0,0.0,0.0,0.0,0.0,0.0,0.0,0.0,0.0,-3.1393,-3.1985,-3.2415,-3.2456,-3.3505,-3.4229,-3.4189,-3.4281,-3.4587,-3.518,0.0,0.0,0.0,0.0,0.0,0.0,0.0,0.0,0.0,0.0,0.0,0.0,0.0,0.0,0.0,0.0,0.0,0.0,0.0,0.0,0.0,0.0,0.0,0.0,0.0,0.0,0.0,0.0,0.0,0.0,0.0,0.0,0.0,0.0,0.0,0.0,0.0,0.0,0.0,0.0,0.0,0.0,0.0,0.0,0.0,0.0,0.0,0.0,0.0,0.0,0.0,0.0,0.0,0.0,0.0,0.0,0.0,0.0,0.0,0.0,-3.3412,0.0,0.0,0.0,0.0,0.0,0.0,0.0,0.0,0.0,0.0,0.0,0.0,0.0,0.0,0.0,0.0,0.0,0.0,0.0,0.0,0.0,0.0,0.0,0.0,0.0,0.0,0.0,0.0,0.0,0.0,0.0,0.0,0.0,0.0,0.0,0.0,0.0,0.0,0.0,0.0,0.0,-3.2865,-3.3068,-3.3318,-3.3687,-3.4501,-3.503,-3.495,-3.5544,-3.5811,-3.5528,-3.5413,0.0,0.0,0.0,0.0,0.0,0.0,0.0,0.0,0.0,0.0,0.0,0.0,0.0,0.0,0.0,0.0,0.0,0.0,0.0,0.0,0.0,0.0,0.0,0.0,0.0,0.0,0.0,0.0,0.0,0.0,0.0,0.0,0.0,0.0,0.0,0.0,0.0,0.0,0.0,0.0,0.0,0.0,0.0,0.0,0.0,0.0,0.0,0.0,0.0,0.0,0.0,0.0,0.0,0.0,0.0,0.0,0.0,0.0,0.0,0.0,-3.3805,0.0,0.0,0.0,0.0,0.0,0.0,0.0,0.0,0.0,0.0,0.0,0.0,0.0,0.0,0.0,0.0,0.0,0.0,0.0,0.0,0.0,0.0,0.0,0.0,0.0,0.0,0.0,0.0,0.0,0.0,0.0,0.0,0.0,0.0,0.0,0.0,0.0,0.0,0.0,0.0,-3.3355,-3.3711,-3.3999,-3.4274,-3.4983,-3.5429,-3.5386,-3.5805,-3.5898,-3.5622,-3.5622,0.0,0.0,0.0,0.0,0.0,0.0,0.0,0.0,0.0,0.0,0.0,0.0,0.0,0.0,0.0,0.0,0.0,0.0,0.0,0.0,0.0,0.0,0.0,0.0,0.0,0.0,0.0,0.0,0.0,0.0,0.0,0.0,0.0,0.0,0.0,0.0,0.0,0.0,0.0,0.0,0.0,0.0,0.0,0.0,0.0,0.0,0.0,0.0,0.0,0.0,0.0,0.0,0.0,-3.5725,-3.5565,-3.5493,-3.55,-3.5496,-3.546,-3.4501,-3.3989,-3.3817,-3.3788,0.0,0.0,0.0,0.0,0.0,0.0,0.0,0.0,0.0,0.0,0.0,0.0,0.0,0.0,0.0,0.0,0.0,0.0,0.0,0.0,0.0,0.0,0.0,0.0,-3.119,-3.1055,-3.0559,0.0,0.0,0.0,0.0,0.0,0.0,0.0,0.0,0.0,0.0,0.0,-3.3778,-3.432,-3.4692,-3.4692,-3.525,-3.5622,-3.5622,-3.5622,-3.5622,-3.5622,-3.547,-3.4864,0.0,0.0,0.0,0.0,0.0,0.0,0.0,0.0,0.0,0.0,0.0,0.0,0.0,0.0,0.0,0.0,0.0,0.0,0.0,0.0,0.0,0.0,0.0,0.0,0.0,0.0,0.0,0.0,0.0,0.0,0.0,0.0,-3.5845,-3.5538,0.0,0.0,0.0,0.0,0.0,0.0,0.0,0.0,0.0,0.0,0.0,0.0,0.0,-3.5689,-3.5661,-3.5888,-3.6009,-3.5996,-3.5953,-3.5774,-3.5493,-3.5498,-3.5504,-3.5489,-3.5348,0.0,-3.3799,-3.3812,0.0,0.0,0.0,0.0,0.0,0.0,0.0,0.0,0.0,0.0,0.0,0.0,0.0,0.0,0.0,0.0,0.0,0.0,0.0,0.0,0.0,0.0,-3.119,-3.119,-3.119,-3.119,0.0,-3.1095,-3.1095,-3.1095,-3.1095,0.0,0.0,0.0,0.0,0.0,0.0,0.0,-3.525,-3.5402,-3.547,-3.547,-3.5554,-3.5622,-3.5622,-3.5622,-3.5622,-3.5622,-3.5052,-3.4382,-3.3633,-3.3039,0.0,0.0,0.0,0.0,0.0,0.0,0.0,0.0,0.0,0.0,0.0,0.0,0.0,0.0,0.0,0.0,0.0,0.0,0.0,0.0,0.0,0.0,0.0,0.0,0.0,0.0,0.0,0.0,0.0,-3.5797,-3.5656,-3.5522,-3.4775,-3.4273,0.0,0.0,0.0,0.0,0.0,0.0,0.0,0.0,0.0,-3.543,-3.5611,-3.5756,-3.5872,-3.5969,-3.6009,-3.5996,-3.5996,-3.5923,-3.5766,-3.5598,-3.5493,-3.5493,-3.5499,-3.5219,-3.4715,-3.4078,-3.3794,-3.379,0.0,0.0,0.0,0.0,-3.3799,-3.3816,-3.3796,-3.3481,-3.3028,-3.2823,0.0,0.0,0.0,0.0,0.0,0.0,0.0,0.0,0.0,0.0,-3.119,-3.119,-3.119,-3.119,-3.119,-3.119,-3.119,0.0,-3.211,-3.2774,-3.2371,0.0,0.0,0.0,0.0,-3.525,-3.5571,-3.5622,-3.5622,-3.5622,-3.5622,-3.5622,-3.5622,-3.5253,-3.5052,-3.5052,-3.4382,-3.3735,-3.3093,-3.2749,-3.2272,0.0,0.0,0.0,0.0,0.0,0.0,0.0,0.0,0.0,0.0,0.0,0.0,0.0,0.0,0.0,0.0,0.0,0.0,0.0,0.0,0.0,0.0,0.0,0.0,0.0,0.0,0.0,0.0,-3.5709,-3.5494,-3.5501,-3.4888,-3.4411,0.0,0.0,0.0,0.0,0.0,0.0,-3.4793,-3.5001,-3.5207,-3.5411,-3.5652,-3.5845,-3.5996,-3.5996,-3.5996,-3.5996,-3.5996,-3.5999,-3.5995,-3.5659,-3.5493,-3.5493,-3.5493,-3.5499,-3.542,-3.4585,-3.4231,-3.4218,-3.3915,-3.3815,-3.3807,-3.3807,-3.3807,-3.3798,-3.3814,-3.3797,-3.3716,-3.3337,-3.2621,-3.1898,-3.2127,0.0,0.0,0.0,0.0,-3.1189,-3.1213,-3.119,-3.119,-3.119,-3.119,-3.1241,-3.1427,-3.1732,-3.1879,0.0,-3.2684,-3.3544,-3.2947,0.0,0.0,0.0,0.0,-3.5622,-3.5622,-3.5622,-3.5622,-3.5622,-3.5622,-3.5515,-3.5362,-3.5052,-3.4688,-3.4382,-3.3887,-3.3287,-3.2641,-3.2437,-3.2064,-3.1539,0.0,0.0,0.0,0.0,0.0,0.0,0.0,0.0,0.0,0.0,0.0,0.0,0.0,0.0,0.0,0.0,0.0,0.0,0.0,0.0,0.0,0.0,0.0,0.0,0.0,0.0,0.0,0.0,0.0,-3.5498,-3.4518,0.0,0.0,0.0,0.0,-3.4806,-3.4883,-3.4945,-3.507,-3.515,-3.5329,-3.5666,-3.5885,-3.5996,-3.5996,-3.5996,-3.5996,-3.5996,-3.5996,-3.5999,-3.5995,-3.5659,-3.5493,-3.5493,-3.5493,-3.5493,-3.5498,-3.5436,-3.5418,-3.532,-3.4218,-3.3815,-3.3807,-3.3807,-3.3807,-3.3807,-3.378,-3.3807,-3.3789,-3.376,-3.2619,-3.1409,-3.2228,-3.1899,0.0,0.0,-3.1194,-3.1207,-3.1206,-3.119,-3.119,-3.119,-3.119,-3.1376,-3.207,-3.3208,-3.368,0.0,-3.233,-3.2805,-3.415,0.0,-3.4742,-3.5453,-3.5588,-3.5622,-3.5622,-3.5622,-3.5622,-3.5622,-3.5622,-3.5362,-3.4688,-3.5207,-3.5005,-3.3735,-3.3633,-3.3287,-3.2641,-3.191,-3.1539,-3.1482,-3.0703,0.0,0.0,0.0,0.0,0.0,0.0,0.0,0.0,0.0,0.0,0.0,0.0,0.0,0.0,0.0,0.0,0.0,0.0,0.0,0.0,0.0,0.0,0.0,0.0,0.0,0.0,0.0,0.0,-3.5484,-3.5155,0.0,-3.4889,-3.4566,-3.449,-3.4755,-3.5102,-3.5312,-3.5354,-3.5377,-3.5465,-3.5641,-3.5745,-3.5874,-3.5996,-3.5996,-3.5996,-3.5996,-3.5996,-3.5996,-3.5986,-3.5662,-3.5489,-3.5489,-3.5504,-3.5503,-3.5509,-3.5501,-3.5496,-3.5399,-3.4251,-3.3815,-3.3807,-3.3807,-3.3807,-3.3807,-3.3807,-3.3807,-3.3789,-3.3789,-3.3391,-3.2703,-3.1917,-3.223,-3.2856,-3.2893,-3.2076,-3.1215,-3.1196,-3.119,-3.119,-3.119,-3.1546,-3.1968,-3.2222,-3.3029,-3.369,-3.3702,-3.4362,-3.4829,-3.4558,-3.4895,-3.5318,-3.5571,-3.5622,-3.5622,-3.5622,-3.5622,-3.5622,-3.5622,-3.5622,-3.548,-3.5262,-3.466,-3.4264,-3.4054,-3.2944,-3.2145,-3.1894,-3.164,-3.1482,-3.1482,-3.1219,-3.1087,0.0,0.0,0.0,0.0,0.0,0.0,0.0,0.0,0.0,0.0,0.0,0.0,0.0,0.0,0.0,0.0,0.0,0.0,0.0,0.0,0.0,0.0,0.0,0.0,0.0,0.0,-3.5489,-3.5503,-3.5506,-3.5496,-3.5511,-3.5179,-3.4974,-3.4974,-3.5288,-3.5493,-3.5493,-3.5757,-3.5815,-3.5622,-3.5669,-3.5797,-3.5996,-3.7168,-3.7754,-3.7754,-3.7757,-3.7747,-3.7736,-3.7372,-3.719,-3.719,-3.7185,-3.6546,-3.5454,-3.5077,-3.4943,-3.4858,-3.4097,-3.3815,-3.3807,-3.3807,-3.3807,-3.378,-3.3808,-3.3789,-3.3686,-3.3127,-3.2935,-3.2721,-3.1548,-3.2017,-3.2908,-3.2928,-3.2094,-3.1215,-3.1196,-3.1376,-3.1562,-3.1562,-3.2121,-3.273,-3.2966,-3.3423,-3.3998,-3.4726,-3.5352,-3.5548,-3.4955,-3.5284,-3.5622,-3.5622,-3.5622,-3.5622,-3.5622,-3.5622,-3.5622,-3.5622,-3.5605,-3.5579,-3.558,-3.4348,-3.3543,-3.3379,-3.2628,-3.1992,-3.1524,-3.1482,-3.1482,-3.1482,-3.1499,-3.1516,-3.1485,0.0,0.0,0.0,0.0,0.0,0.0,0.0,0.0,0.0,0.0,0.0,0.0,0.0,0.0,0.0,0.0,0.0,0.0,0.0,0.0,0.0,0.0,0.0,-3.5999,-3.5705,-3.5493,-3.5493,-3.5493,-3.5493,-3.5493,-3.5493,-3.5493,-3.5493,-3.5565,-3.5584,-3.5584,-3.6334,-3.6411,-3.5699,-3.5747,-3.5895,-3.6152,-3.9512,-4.1191,-4.1191,-4.1207,-4.1203,-4.1155,-4.0707,-4.0492,-4.0506,-4.0506,-3.8665,-3.5571,-3.4425,-3.3943,-3.3949,-3.3839,-3.379,-3.3807,-3.3807,-3.3807,-3.3789,-3.3807,-3.3816,-3.3574,-3.176,-3.1231,-3.1282,-3.1317,-3.13,-3.1282,-3.1263,-3.1263,-3.1293,-3.1291,-3.1799,-3.2307,-3.2307,-3.2899,-3.3643,-3.4336,-3.4506,-3.4742,-3.547,-3.503,-3.4759,-3.5504,-3.5622,-3.5622,-3.5622,-3.5577,0.0,-3.5594,-3.5611,-3.5611,-3.5594,-3.5579,-3.5547,-3.5491,-3.4301,-3.2985,-3.1742,-3.2857,-3.2917,-3.1582,-3.1482,-3.1482,-3.1482,-3.1501,-3.1474,-3.1395,0.0,0.0,0.0,0.0,0.0,0.0,0.0,0.0,0.0,0.0,0.0,0.0,0.0,0.0,0.0,0.0,0.0,0.0,0.0,0.0,0.0,0.0,-3.6003,-3.5999,-3.5705,-3.5493,-3.5493,-3.5493,-3.5493,-3.5493,-3.5493,-3.5493,-3.5493,-3.6636,-3.7324,-3.7324,-3.7522,-3.7546,-3.7353,-3.7502,-3.8283,-3.9766,-4.0723,-4.1191,-4.1191,-4.1207,-4.1027,-4.0687,-4.0549,-4.0485,-4.05,-4.0496,-3.9983,-3.9032,-3.7825,-3.7351,-3.7112,-3.4723,-3.3799,-3.3788,-3.3788,-3.3788,-3.3814,-3.379,-3.4372,-3.4672,-3.2056,-3.1903,-3.299,-3.4067,-3.3644,-3.2788,-3.2804,-3.3093,-3.339,-3.3369,-3.3253,-3.3102,-3.3102,-3.366,-3.4252,-3.4455,-3.4928,-3.5368,-3.5571,-3.5453,-3.5368,-3.5588,-3.5622,-3.5622,-3.5622,-3.5602,0.0,-3.5616,-3.5595,-3.558,-3.5585,-3.5621,-3.4808,-3.2803,-3.2289,-3.2777,-3.4368,-3.2962,-3.1879,-3.1539,-3.1482,-3.1482,-3.1482,-3.1528,-3.0891,0.0,0.0,0.0,0.0,0.0,0.0,0.0,0.0,0.0,0.0,0.0,0.0,0.0,0.0,0.0,0.0,0.0,0.0,0.0,0.0,0.0,0.0,-3.6002,-3.5997,-3.5996,-3.572,-3.5493,-3.5493,-3.5493,-3.5493,-3.5493,-3.5493,-3.5498,-3.5498,-3.6397,-3.7353,-3.8286,-3.8123,-3.7993,-3.8007,-3.8782,-3.9858,-4.1191,-4.1191,-4.1191,-4.1191,-4.1213,-4.0951,-4.0489,-4.0489,-4.0489,-4.0489,-4.0504,-4.0504,-4.0444,-3.9745,-3.9147,0.0,0.0,0.0,0.0,0.0,-3.5842,-3.5868,-3.5833,-3.5747,-3.5315,-3.3612,-3.364,-3.441,-3.4893,-3.4249,-3.339,-3.338,-3.3618,-3.3871,-3.3871,-3.3855,-3.3863,-3.3863,-3.4421,-3.4962,-3.4962,-3.5318,-3.5622,-3.5622,-3.5622,0.0,-3.5614,-3.5605,-3.5622,-3.5622,-3.5609,-3.5592,-3.5592,-3.5596,-3.5163,-3.3989,-3.492,-3.4961,-3.333,-3.217,0.0,0.0,0.0,-3.1486,-3.1524,-3.1482,0.0,0.0,0.0,-3.1041,-3.0021,-2.8666,0.0,0.0,-2.6493,-2.6113,0.0,0.0,0.0,0.0,0.0,0.0,0.0,0.0,0.0,0.0,0.0,0.0,0.0,0.0,0.0,0.0,-3.5995,-3.6005,-3.6001,-3.5715,-3.5493,-3.5493,-3.5493,-3.5493,-3.5493,-3.5498,-3.5657,-3.6037,-3.6046,-3.6906,-3.8902,0.0,0.0,0.0,0.0,-4.0733,-4.1191,-4.1191,-4.1191,-4.1191,-4.1198,-4.0945,-4.0489,-4.0489,-4.0489,-4.0489,-4.0489,-4.0509,-4.0501,-4.0498,-3.9808,-3.8692,-3.8691,-3.8689,-3.8689,-3.8689,-3.8696,-3.8674,-3.8428,0.0,0.0,-3.5644,-3.5613,-3.5446,-3.4602,-3.4033,-3.366,-3.366,-3.366,-3.366,-3.366,-3.4134,-3.4624,-3.4624,-3.5131,-3.5622,-3.5622,-3.5622,-3.5577,-3.5515,-3.5453,-3.545,-3.5575,-3.5592,-3.5616,-3.5621,-3.5602,-3.5464,-3.5201,-3.5114,-3.4178,-3.1737,0.0,0.0,-3.5163,-3.2897,-3.1521,-3.1509,-3.1516,-3.147,-3.1509,-3.1482,-3.1482,-3.1482,-3.1531,-3.1498,-3.1467,-2.8498,-2.6869,-2.6488,-2.6481,-2.6533,0.0,0.0,0.0,0.0,0.0,0.0,0.0,0.0,0.0,0.0,0.0,0.0,0.0,0.0,0.0,-3.5995,-3.6009,-3.5997,-3.5996,-3.5715,-3.5493,-3.5493,-3.5493,-3.5493,-3.5498,-3.5504,-3.6628,-3.9321,-3.9538,-3.973,-4.0134,-4.0081,-4.0027,-4.0008,-4.0333,-4.0723,-4.1191,-4.1191,-4.1191,-4.1191,0.0,0.0,-4.0489,-4.0489,-4.0489,-4.0489,-4.0489,-4.0509,-4.0501,-4.0498,-3.9788,-3.8688,-3.8695,-3.8713,-3.8713,-3.8713,-3.8693,-3.8477,-3.6792,-3.6506,-3.676,-3.5874,-3.5613,-3.5576,-3.5396,-3.525,0.0,-3.5182,-3.5182,-3.5182,-3.5182,-3.5301,-3.5402,-3.5402,-3.552,-3.5622,-3.5622,-3.5622,-3.5453,-3.4894,-3.4653,-3.4772,-3.548,-3.5612,-3.5592,-3.5613,-3.5597,-3.483,-3.2576,-3.2266,-3.2074,-3.1574,-3.199,-3.2292,-3.2292,-3.182,-3.1521,-3.1509,-3.1507,-3.1492,-3.1524,-3.1482,-3.1482,-3.1482,-3.1498,-3.1516,-3.1482,-3.0852,-2.9156,-2.6488,-2.6481,-2.6533,0.0,0.0,0.0,0.0,0.0,0.0,0.0,0.0,0.0,0.0,0.0,-3.557,0.0,0.0,-3.5992,-3.5995,-3.5996,-3.5989,-3.5905,-3.5695,-3.5545,-3.5493,-3.5493,-3.5493,-3.5504,-3.7026,-3.871,-4.0376,-4.05,-4.05,-4.05,-4.0504,-4.0501,-4.0498,-4.0742,-4.0964,-4.1191,-4.1191,-4.1208,-4.1196,-4.1205,-4.0942,-4.0511,-4.0511,-4.0492,-4.0489,-4.0489,-4.0509,-4.0443,-3.984,-3.9258,-3.8707,-3.8707,-3.8707,-3.8707,-3.8707,-3.8027,-3.6984,-3.5972,-3.5931,-3.6298,-3.5771,-3.5613,-3.5622,-3.5622,-3.5622,-3.5622,-3.5622,-3.5622,-3.5622,-3.5622,-3.5622,-3.5622,-3.5622,-3.5622,-3.5622,-3.5622,-3.5362,-3.4988,-3.4688,-3.4235,-3.4083,-3.453,-3.4623,-3.4352,-3.3665,-3.3546,-3.3045,-3.1689,-3.1509,-3.1492,-3.1479,-3.1505,-3.1505,-3.1505,-3.1505,-3.1498,-3.1524,-3.1482,-3.1482,-3.1482,-3.1482,-3.1482,-3.1482,-3.1482,-3.1513,-3.1486,-3.1477,-3.0651,-2.8996,-2.7293,-2.6477,0.0,0.0,0.0,0.0,0.0,0.0,0.0,0.0,-3.5368,-3.5492,-3.553,-3.558,-3.5691,-3.588,-3.5996,-3.5994,-3.5996,-3.597,-3.5846,-3.5715,-3.5603,-3.5526,-3.5493,-3.5498,-3.5504,-3.8537,-4.0511,-4.05,-4.0504,-4.0489,-4.0489,-4.0489,-4.0538,-4.0626,-4.0998,-4.1516,-4.2187,-4.2187,-4.22,-4.2176,-4.2099,-4.186,-4.1456,-4.0787,-4.0495,-4.0508,-4.0504,-4.0385,-4.0057,-3.9114,-3.8699,-3.8707,-3.8687,-3.87,-3.8707,-3.8707,-3.737,-3.5598,-3.5757,-3.5741,-3.5599,-3.5599,-3.5581,-3.5622,-3.5622,-3.5622,-3.5622,-3.5622,-3.5622,-3.5622,-3.5622,-3.5622,-3.5622,-3.5622,-3.5515,-3.5407,-3.5407,-3.4894,-3.4382,-3.4235,-3.3786,-3.3346,-3.3201,-3.3208,-3.2796,-3.1678,-3.1528,-3.15,-3.15,-3.1513,-3.1482,-3.1482,-3.1482,-3.1482,-3.1482,-3.1482,-3.1482,-3.1482,-3.1482,-3.1482,-3.1482,-3.1482,-3.1482,-3.1482,-3.1526,-3.1498,-3.1498,-3.1503,-3.1155,-3.046,-2.817,-2.7024,-3.1173,-3.1747,-3.2332,-3.2351,-3.3077,-3.3789,0.0,0.0,-3.4923,-3.5397,-3.5595,-3.5691,-3.5776,-3.5894,-3.5989,-3.5991,-3.5996,-3.5989,-3.5982,-3.5811,-3.5641,-3.5526,-3.5498,-3.5504,-3.5494,-3.8527,-4.05,-4.0504,-4.0504,-4.0489,-4.0489,-4.0489,-4.0693,-4.1118,-4.1169,-4.2652,-4.5703,-4.5723,-4.5721,-4.5719,-4.531,-4.5095,-4.4944,-4.1879,-4.0502,-4.0502,-4.0516,-3.9879,-3.8893,-3.8748,-3.8701,-3.8695,-3.8704,-3.8696,-3.8707,-3.8707,-3.7386,-3.5696,-3.6337,-3.6134,-3.5582,-3.5582,-3.5616,-3.5622,-3.5622,-3.5622,-3.5622,-3.5622,-3.5622,-3.5622,-3.5622,-3.5622,-3.5622,-3.5622,-3.5161,-3.4736,-3.4736,-3.4186,-3.3547,-3.2949,-3.2734,-3.2492,-3.1856,-3.1757,-3.1655,-3.1504,-3.1477,-3.1507,-3.1507,-3.1495,-3.1482,-3.1482,-3.1482,-3.1482,-3.1482,-3.1482,-3.1482,-3.1482,-3.1482,-3.1482,-3.1482,-3.1482,-3.1482,-3.1482,-3.1471,-3.1471,-3.1471,-3.1509,-2.9975,-2.7072,-2.8691,-2.8891,-3.1826,-3.2239,0.0,0.0,-3.355,-3.38,-3.3802,-3.4334,-3.4866,-3.5003,-3.5321,-3.5631,-3.5707,-3.5815,-3.5908,0.0,-3.5996,-3.5995,-3.5957,-3.5801,-3.5657,-3.5572,-3.5523,-3.6272,-3.8234,-3.9672,-4.05,-4.0504,-4.0489,-4.0489,-4.0489,-4.0759,-4.1899,-4.4103,-4.4167,-4.4844,-4.6289,-4.6308,-4.6308,-4.6293,-4.5816,-4.5603,-4.556,-4.4122,-4.2386,-4.0501,-4.0501,-3.9825,-3.8689,-3.8696,-3.8707,-3.8713,-3.8707,-3.7959,-3.6913,-3.6894,-3.6738,-3.6491,-3.6182,-3.5872,-3.5622,-3.5622,-3.5622,-3.5622,-3.5622,-3.5622,-3.5622,-3.5622,-3.5622,-3.5622,-3.5622,-3.5316,-3.5005,-3.5005,-3.4496,-3.4037,-3.4037,-3.3479,-3.2949,-3.2641,-3.2272,-3.1853,-3.1524,-3.1482,-3.1482,-3.1482,-3.1482,-3.1482,-3.1482,-3.1482,-3.1482,-3.1482,-3.1482,-3.1482,-3.1482,-3.1482,-3.1482,-3.1482,-3.1482,-3.1483,-3.153,-3.1471,-3.1486,-3.153,-3.1513,-3.2256,-3.3834,-3.3843,-3.3143,-3.1695,-3.0401,-2.9551,-3.2121,0.0,0.0,-3.3453,-3.3712,-3.3803,-3.3789,-3.4335,-3.4807,-3.4713,-3.5141,-3.5566,-3.5679,-3.5768,-3.5877,-3.5976,-3.5996,-3.5976,-3.5937,-3.5834,-3.5743,-3.5682,-3.5864,-3.6978,-3.9572,-4.0246,-4.05,-4.0504,-4.0489,-4.0489,-4.0489,-4.0943,-4.2761,-4.6177,-4.6292,-4.6308,-4.6308,-4.6303,-4.6299,-4.6288,-4.5815,-4.5603,-4.5601,-4.5601,-4.4264,-4.1839,-4.0552,-3.9508,-3.8704,-3.8685,-3.8707,-3.8682,-3.8699,-3.7787,-3.6373,-3.5811,-3.6094,-3.6671,-3.6058,-3.5728,-3.5622,-3.5622,-3.5622,-3.5622,-3.5622,-3.5622,-3.5622,-3.5622,-3.5622,-3.5577,-3.5362,-3.4941,-3.4528,-3.4382,-3.3836,-3.3339,-3.3339,-3.2772,-3.2272,-3.2272,-3.1853,-3.1482,-3.1482,-3.1482,-3.1482,-3.1482,-3.1482,-3.1482,-3.1482,-3.1482,-3.1482,-3.1482,-3.1482,-3.1482,-3.1482,-3.1482,-3.1511,-3.1528,-3.1528,-3.153,-3.1499,-3.2213,-3.2586,-3.2596,-3.2623,-3.3585,-3.5503,-3.5502,-3.4936,-3.3875,-3.1069,-2.9821,0.0,0.0,-3.2634,-3.3093,-3.3512,-3.3807,-3.3807,-3.4279,-3.4694,-3.4694,-3.5179,-3.5622,-3.5694,-3.5807,-3.5918,-3.5996,-3.5996,-3.5996,-3.5996,-3.5931,-3.5879,-3.5888,-3.6642,-3.7377,0.0,-3.9546,-4.0489,-4.0489,-4.0489,-4.0489,-4.0489,-4.0943,-4.277,-4.619,-4.6308,-4.6308,-4.6308,-4.6293,-4.6297,-4.6288,-4.5815,-4.5586,-4.5586,-4.5601,-4.5543,-4.5201,-4.0694,-3.8729,-3.87,-3.8699,-3.8707,-3.8719,-3.8708,-3.8651,-3.8378,-3.6347,-3.5625,-3.5697,-3.6219,-3.6054,-3.5622,-3.5622,-3.5622,-3.5622,-3.5622,-3.5622,-3.5622,-3.5622,-3.5622,-3.547,-3.4783,-3.464,-3.4431,-3.3786,-3.3145,-3.2641,-3.2641,-3.2064,-3.1524,-3.1524,-3.1539,-3.1482,-3.1482,-3.1482,-3.1482,-3.1482,-3.1482,-3.1482,-3.1482,-3.1482,-3.1482,-3.1482,-3.1482,-3.1482,-3.1482,-3.1482,-3.1528,-3.1486,-3.1516,-3.1514,-3.1535,-3.403,-3.5355,-3.5355,-3.5366,-3.5443,-3.551,-3.5524,-3.3579,-2.9999,-2.9825,-2.9782,-3.2144,0.0,-3.3075,-3.3494,-3.3707,-3.3807,-3.3807,-3.4093,-3.4423,-3.4653,-3.5,-3.5327,-3.5595,-3.5715,-3.5802,-3.5917,-3.5976,-3.5996,-3.5996,-3.5932,-3.588,-3.5843,-3.6052,0.0,0.0,0.0,0.0,-4.0489,-4.0489,-4.0639,-4.0947,-4.1116,-4.277,-4.6191,-4.6308,-4.6308,-4.6308,-4.6293,-4.6288,-4.6288,-4.5815,-4.5586,-4.5586,-4.5603,-4.5611,-4.551,-4.3957,-4.1555,-3.8689,-3.8695,-3.8707,-3.8719,-3.8708,-3.7862,-3.663,-3.6663,-3.6202,-3.564,-3.582,-3.5739,-3.5622,-3.5622,-3.5622,-3.5622,-3.5622,-3.5299,-3.4941,-3.4941,-3.4592,-3.4202,-3.3987,-3.3582,-3.3251,-3.2986,-3.2367,-3.1853,-3.1853,-3.1697,-3.1482,-3.1482,-3.1482,-3.1482,-3.1482,-3.1482,-3.1482,-3.1482,-3.1482,-3.1482,-3.1482,-3.1482,-3.1482,-3.1482,-3.1482,-3.1482,-3.1482,-3.1529,-3.1486,-3.1516,-3.3181,-3.4125,-3.4143,-3.503,-3.5504,-3.5487,-3.551,-3.5524,-3.5514,-3.2957,-3.1089,-2.9825,-2.977,-2.9795,-3.2366,-3.284,-3.3273,-3.3522,-3.3707,-3.3807,-3.3807,-3.3993,-3.4311,-3.4632,-3.4926,-3.5209,-3.5542,-3.5643,-3.5748,-3.5876,-3.5957,-3.5996,-3.5996,-3.5957,-3.5923,-3.5885,-3.583,-3.5765,0.0,0.0,0.0,-4.0504,-4.0658,-4.087,-4.1193,-4.1195,-4.2773,-4.6191,-4.6308,-4.63,-4.63,-4.6299,-4.622,-4.6046,-4.5754,-4.5586,-4.5586,-4.5586,-4.5592,-4.5567,-4.5086,-4.2528,-3.8707,-3.8695,-3.8707,-3.8719,-3.8708,-3.7429,-3.568,-3.6363,-3.6365,-3.5983,-3.5684,-3.5622,-3.5622,-3.5622,-3.5622,-3.5577,-3.5316,-3.4941,-3.4528,-3.4333,-3.3937,-3.3531,-3.3287,-3.2949,-3.2532,-3.2272,-3.1853,-3.1482,-3.1482,-3.1482,-3.1482,-3.1482,-3.1482,-3.1482,-3.1482,-3.1482,-3.1482,-3.1482,-3.1482,-3.1482,-3.1482,-3.1482,-3.1482,-3.1482,-3.1498,-3.1515,-3.1501,-3.1485,-3.1896,-3.2892,-3.4569,-3.4887,-3.3557,-3.4779,-3.5473,-3.5496,-3.4151,-3.3452,-3.3429,-3.1016,-2.9828,-2.9782,-2.9795,-2.9792,-3.2384,-3.2858,-3.3214,-3.3214,-3.3494,-3.3807,-3.3807,-3.4012,-3.4269,-3.4612,-3.4908,-3.5174,0.0,0.0,-3.5734,-3.5868,-3.5957,-3.5996,-3.5996,-3.5996,-3.5996,0.0,0.0,0.0,0.0,0.0,0.0,-4.0539,0.0,-4.1208,-4.1215,-4.1198,-4.2773,-4.6191,-4.6307,-4.63,-4.6294,-4.6294,-4.6046,-4.5586,-4.5586,-4.5586,-4.5586,-4.5586,-4.5605,-4.5532,-4.4186,-4.1731,-3.869,-3.8707,-3.8707,-3.8706,-3.869,-3.7452,-3.5616,-3.5608,-3.6027,-3.654,-3.5834,-3.5622,-3.5622,-3.5622,-3.5622,-3.547,-3.4783,-3.4592,-3.4431,-3.3735,-3.3531,-3.3339,-3.2695,-3.2532,-3.2382,-3.1697,-3.1482,-3.1482,-3.1482,-3.1482,-3.1482,-3.1482,-3.1482,-3.1482,-3.1482,-3.1482,-3.1482,-3.1482,-3.1482,-3.1482,-3.1482,-3.1482,-3.1482,-3.1482,-3.1501,-3.1586,-3.1666,-3.1555,-3.2557,-3.5304,-3.5481,-3.3778,-2.9943,-3.3297,-3.5196,-3.5196,-3.167,-2.9823,-2.9776,-2.9776,-2.9795,-2.9792,-2.9792,-2.9792,-3.2484,-3.3057,-3.3578,-3.3273,-3.3494,-3.3807,-3.3807,-3.3868,-3.3986,-3.4265,-3.4593,-3.4889,0.0,0.0,0.0,-3.5755,-3.5884,0.0,-3.5996,-3.5996,0.0,-3.5996,0.0,-3.6001,-3.5997,-3.9059,0.0,0.0,-4.1135,-4.1214,-4.1202,-4.1206,-4.2773,-4.6191,-4.6305,-4.6308,-4.6313,-4.595,-4.5719,-4.5586,-4.5586,-4.5586,-4.5586,-4.5586,-4.5591,-4.558,-4.5209,-4.2637,-3.8701,-3.8689,-3.8697,-3.8694,-3.8707,-3.7432,-3.5613,-3.5589,-3.5728,-3.5878,-3.5684,-3.5622,-3.5622,-3.5622,-3.5622,-3.547,-3.4783,-3.4235,-3.3735,-3.3039,-3.2477,-3.1992,-3.1853,-3.1796,-3.1739,-3.1524,-3.1482,-3.1482,-3.1482,-3.1482,-3.1482,-3.1482,-3.1482,-3.1482,-3.1482,-3.1482,-3.1482,-3.1482,-3.1482,-3.1482,-3.1482,-3.1482,-3.1482,-3.1482,-3.1498,-3.2302,-3.4325,-3.1895,-3.1718,-3.5248,-3.5467,-3.3816,-2.9967,-3.0751,-3.1243,-3.1243,-3.0294,-2.9802,-2.9834,-2.9834,-2.982,-2.9792,-2.9792,-2.9792,-3.2196,-3.2695,-3.3136,-3.2695,-3.3057,-3.3476,-3.3284,-3.355,-3.3823,-3.3919,-3.4342,0.0,0.0,0.0,0.0,0.0,0.0,0.0,-3.5996,-3.5996,-3.5996,0.0,-3.5996,0.0,-3.5996,-3.9142,-4.1206,0.0,-4.1196,-4.1195,-4.1191,-4.1191,-4.2778,-4.6181,-4.6297,-4.62,-4.5988,-4.5738,-4.5586,-4.5586,-4.5611,-4.5611,-4.5605,-4.5609,-4.5611,-4.5561,0.0,-4.2408,-3.8683,-3.8689,-3.8688,-3.8612,-3.77,-3.665,-3.5597,-3.5586,-3.5622,-3.5622,-3.5622,-3.5374,-3.5078,-3.5498,-3.5407,-3.5052,-3.4382,-3.3684,-3.3039,-3.2327,-3.1796,-3.1482,-3.1482,-3.1482,-3.1482,-3.1482,-3.1482,-3.1482,-3.1482,-3.1482,-3.1482,-3.1482,-3.1219,-3.1087,-3.1409,-3.1499,-3.1501,-3.1501,-3.147,-3.1499,-3.1499,-3.153,-3.1526,-3.1529,-3.1533,-3.1889,-3.2897,-3.1048,-3.0694,-3.2872,-3.2978,-3.2038,-2.9915,-2.9802,-2.9833,-2.9833,-2.9833,-2.9821,-2.9792,-2.9792,-2.9792,-2.9792,-2.9786,-2.977,-3.1789,-3.2127,-3.2384,-3.1933,-3.2466,-3.3014,-3.2681,-3.3196,-3.3698,-3.3642,0.0,-3.4754,-3.4999,0.0,-3.5618,-3.5674,0.0,-3.5859,-3.5976,-3.5996,-3.5996,-3.5996,-3.5996,-3.5996,-3.5996,-3.9141,-4.1191,-4.1191,-4.1191,-4.1191,-4.1191,-4.1191,-4.2763,-4.6196,-4.6238,-4.6007,-4.5586,-4.5586,-4.5586,-4.5605,-4.5588,-4.5512,-4.534,-4.5513,-4.5513,-4.5227,-4.3589,-4.1269,-3.8692,-3.8688,-3.8692,-3.8472,-3.6394,-3.561,-3.5599,-3.5603,-3.5622,-3.5622,-3.5622,-3.5015,-3.4442,-3.5203,-3.5005,-3.4333,-3.3684,-3.3039,-3.2437,-3.1697,-3.1482,-3.1482,-3.1482,-3.1482,-3.1482,-3.1482,-3.1482,-3.1482,-3.1482,-3.1482,-3.1467,-3.1351,-3.0777,-3.0464,-3.1087,-3.1367,-3.1494,-3.1494,-3.1116,-3.0982,-3.1444,-3.1511,-3.1501,-3.1483,-3.183,-3.1447,-2.9963,-2.9763,-2.977,-2.9815,-2.9841,-2.9841,-2.9841,-2.9796,-2.9792,-2.9792,-2.9792,-2.9792,-2.9792,-2.9792,-2.9817,-2.9789,-2.9841,-2.9973,-3.1789,-3.2127,-3.2384,-3.1933,-3.2196,-3.2713,-3.3014,-3.3214,0.0,0.0,0.0,-3.4714,-3.4754,-3.5212,0.0,-3.5624,0.0,0.0,0.0,0.0,-3.5996,0.0,0.0,0.0,0.0,0.0,0.0,0.0,0.0,-4.1191,-4.1191,-4.1191,-4.2763,-4.6196,-4.593,-4.568,-4.5586,-4.5586,-4.5586,-4.5605,-4.5588,-4.4985,-4.3895,-4.5057,-4.4983,-4.369,-4.0793,0.0,-3.8695,-3.8707,-3.8707,-3.8488,-3.6388,-3.5602,-3.561,-3.5588,-3.5622,-3.5622,-3.5622,-3.5015,-3.4347,-3.4686,-3.4333,-3.3633,-3.2986,-3.2695,-3.2437,-3.1697,-3.1482,-3.1482,-3.1482,-3.1482,-3.1482,-3.1482,-3.1482,-3.1482,-3.1482,-3.1482,-3.1278,-3.0644,-3.0389,-3.0133,-2.9504,-3.0606,-3.1512,-3.1512,-2.9157,-2.8365,-3.116,-3.1473,-3.1503,-3.1475,-3.3471,-3.3421,-3.0066,-2.9766,-2.9808,-2.982,-2.982,-2.982,-2.982,-2.9831,-2.9792,-2.9792,-2.9792,-2.9792,-2.9792,-2.9792,-2.9774,-2.9811,-2.9794,-3.0741,-3.147,-3.164,-3.175,-3.1545,-3.1806,-3.2196,-3.2433,0.0,0.0,0.0,0.0,-3.4694,-3.4694,0.0,0.0,0.0,0.0,0.0,0.0,0.0,0.0,0.0,0.0,0.0,0.0,0.0,0.0,0.0,0.0,-4.1202,-4.1202,-4.1202,-4.2759,-4.6191,-4.5849,-4.5601,-4.5584,-4.5603,-4.5608,-4.5611,-4.5611,-4.4862,-4.3521,-4.4213,-4.322,-4.0914,-3.9375,-3.8695,-3.8687,-3.8707,-3.8721,-3.85,-3.64,-3.5614,-3.5622,-3.5622,-3.5622,-3.5611,-3.5585,-3.5328,-3.4856,-3.4011,-3.3455,-3.3039,-3.2695,-3.2327,-3.1951,-3.1582,-3.1482,-3.1482,-3.1482,-3.1482,-3.1482,-3.1482,-3.1161,-3.0896,-3.0896,-3.0524,-3.0072,-2.969,-2.9254,-2.8939,-2.9002,-2.8963,-2.8906,-2.8906,-2.7541,-2.709,-2.8716,-2.9902,-3.0618,-3.0636,-3.1746,-3.1775,-2.9978,-2.9821,-2.9792,-2.9792,-2.9792,-2.9792,-2.9792,-2.9792,-2.9792,-2.9792,-2.9792,-2.9792,-2.9792,-2.9811,-2.9816,-2.9831,-3.0948,-3.2117,-3.119,-3.119,-3.119,-3.119,-3.1449,-3.1696,-3.1789,-3.2366,0.0,0.0,-3.3869,-3.451,-3.4674,0.0,0.0,0.0,0.0,0.0,0.0,0.0,0.0,0.0,0.0,0.0,0.0,0.0,0.0,0.0,0.0,0.0,-4.1195,-4.1104,-4.2287,-4.4958,-4.4694,-4.485,-4.5599,-4.5587,-4.5611,-4.5587,-4.4616,-4.3542,-4.2473,-4.2451,-4.1077,-3.8701,-3.8682,-3.8684,-3.8679,-3.8681,-3.842,-3.786,-3.6238,-3.5608,-3.5622,-3.5622,-3.5583,-3.5609,-3.5618,-3.5235,-3.4503,-3.3083,-3.2492,-3.2382,-3.2382,-3.1951,-3.1482,-3.1482,-3.1409,-3.1278,-3.1467,-3.1351,-3.1219,-3.1219,-3.0777,-3.0269,-3.0072,-2.9504,-2.8939,-2.8748,-2.8182,-2.7855,-2.8363,-2.7354,-2.647,-2.647,-2.6504,-2.6499,-2.6507,-2.8433,-2.9802,-2.9763,-2.9803,-2.9809,-2.9804,-2.9808,-2.9792,-2.9792,-2.9792,-2.9792,-2.9792,-2.9792,-2.9792,-2.9792,-2.9792,-2.9829,-2.9827,-2.9762,-3.0059,-3.0568,-3.2263,-3.3135,-3.119,-3.119,-3.119,-3.119,-3.123,-3.1351,-3.1733,0.0,0.0,-3.3014,-3.3469,-3.3907,-3.4593,0.0,0.0,0.0,0.0,0.0,0.0,0.0,0.0,0.0,0.0,0.0,0.0,0.0,0.0,0.0,0.0,-4.0745,-4.1187,-4.0804,-4.0719,-4.1014,-4.0995,-4.247,-4.5577,-4.5592,-4.5589,-4.555,-4.133,-3.9277,-3.9119,-3.9136,-3.898,-3.8706,-3.8689,-3.8715,0.0,-3.8689,-3.7588,-3.5866,-3.5663,-3.5608,-3.5622,-3.5622,-3.5585,-3.5573,-3.5623,-3.3982,-3.1844,-3.1673,-3.1632,-3.1582,-3.1582,-3.1524,-3.1482,-3.1482,-3.097,-3.0584,-3.1278,-3.097,-3.0389,-3.0389,-3.0329,-3.0072,-2.9317,-2.9066,-2.8748,-2.7986,-2.7736,-2.7484,-2.685,-2.6633,-2.6471,-2.6471,-2.6489,-2.6519,-2.6493,-2.8448,-2.9769,-2.9821,-2.982,-2.9781,-2.9806,-2.9767,-2.9792,-2.9792,-2.9792,-2.9792,-2.9792,-2.9792,-2.9792,-2.9792,-2.9792,-2.9786,-2.9769,-2.9794,-3.0835,-3.2797,-3.3033,-3.3081,-3.1095,-3.119,-3.119,-3.119,-3.119,-3.1329,-3.1733,0.0,0.0,-3.3014,-3.3413,-3.3813,-3.4553,-3.4926,-3.5209,0.0,0.0,0.0,0.0,0.0,0.0,0.0,0.0,0.0,0.0,0.0,0.0,0.0,0.0,-4.0583,-4.0771,-4.0598,-4.0508,-4.0492,-4.0495,-4.1157,-4.2526,-4.2526,-4.2186,-4.1418,-3.9581,-3.8719,-3.87,-3.8688,-3.8689,-3.8707,-3.8707,-3.8007,0.0,-3.6833,-3.6331,-3.5621,-3.5583,-3.5605,-3.5626,-3.5626,-3.5608,-3.5365,-3.371,-3.242,-3.1518,-3.149,-3.1489,-3.1482,-3.1482,-3.1482,-3.1409,-3.0896,-3.0524,-3.0269,-3.0072,-2.9766,-2.9504,-2.9504,-2.9129,-2.862,-2.8298,-2.7868,-2.7417,-2.704,-2.6973,-2.6905,-2.6589,-2.6533,-2.6527,-2.6519,-2.6516,-2.6986,-2.8349,-2.9301,-2.9808,-2.9831,-2.9792,-2.9792,-2.9792,-2.9792,-2.9792,-2.9792,-2.9792,-2.9792,-2.9792,-2.9792,-2.9792,-2.9792,-2.9792,-2.9799,-2.9819,-3.1183,-3.2199,-3.3097,-3.3132,-3.3114,-3.0838,-3.0918,-3.0975,-3.1151,-3.0918,-3.0845,0.0,0.0,-3.1645,-3.2598,-3.3046,-3.3533,-3.4349,-3.4756,-3.5143,0.0,0.0,0.0,0.0,0.0,0.0,0.0,0.0,0.0,0.0,0.0,0.0,0.0,0.0,-4.0489,-4.0489,-4.0489,-4.0489,-4.0489,-4.0492,-4.0492,-4.05,-4.0152,-3.9542,-3.872,-3.8702,-3.8696,-3.8695,-3.8689,-3.8359,-3.7787,-3.7767,-3.6943,0.0,-3.5587,-3.5625,-3.56,-3.5576,-3.5602,-3.5509,-3.469,-3.4364,-3.4138,-3.2145,-3.1509,-3.1526,-3.1477,-3.1482,-3.1497,-3.1499,-3.1279,-3.0896,-3.0435,-3.0133,-2.969,-2.8812,-2.8812,-2.8939,-2.8684,-2.8182,-2.7604,-2.7417,-2.6905,-2.6533,-2.6533,-2.6533,-2.6533,-2.6533,-2.6533,-2.6509,-2.6482,-2.7055,-2.8006,-2.9604,-2.977,-2.977,-2.9767,-2.9792,-2.9792,-2.9792,-2.9792,-2.9792,-2.9792,-2.9792,-2.9792,-2.9792,-2.9792,-2.9792,-2.9792,-2.9814,-2.9791,-2.9794,-3.2047,-3.3085,-3.3081,-3.3139,-3.3081,-3.0293,-3.0293,-3.0435,-3.1055,-3.0293,-2.9717,0.0,0.0,-3.0608,-3.1625,-3.2196,-3.2813,-3.3827,-3.4392,-3.4927,-3.5605,-3.5631,0.0,0.0,0.0,0.0,0.0,0.0,0.0,0.0,0.0,0.0,0.0,-4.05,0.0,-4.0489,-4.0489,-4.0489,-4.0489,-4.0489,-4.0507,-4.0501,-3.9337,-3.8708,-3.8699,-3.8704,-3.8707,-3.8695,-3.8689,-3.7589,-3.5614,-3.5627,-3.5628,0.0,-3.5596,-3.5605,-3.5605,-3.5622,-3.5602,-3.5247,-3.2579,-3.1561,-3.1542,-3.1527,-3.1516,-3.1524,-3.1482,-3.1482,-3.1498,-3.147,-3.0727,-2.9918,-3.0225,-2.969,-2.8812,-2.792,-2.8363,-2.8812,-2.792,-2.7736,-2.7484,-2.6658,-2.6533,-2.6533,-2.6533,-2.6533,-2.6533,-2.6533,-2.6533,-2.6509,-2.6482,-2.8359,-2.9731,-2.9794,-2.9821,-2.9792,-2.9792,-2.9792,-2.9792,-2.9792,-2.9792,-2.9792,-2.9792,-2.9792,-2.9792,-2.9792,-2.9792,-2.9792,-2.9792,-2.9804,-2.9794,-2.9845,-3.2059,-3.3081,-3.3068,-3.3081,-3.3081,-2.9585,-2.9673,-2.9717,-2.9935,-2.9673,-2.9629,-3.0393,0.0,-3.0608,-3.1588,-3.2161,-3.2755,-3.3576,-3.4259,-3.4851,-3.5283,-3.5495,0.0,0.0,0.0,0.0,0.0,0.0,0.0,0.0,0.0,0.0,0.0,-4.0494,-4.0501,-4.0499,-4.0516,-4.0499,-4.0499,-4.0499,-4.0498,-4.0484,-3.9314,-3.8691,-3.8704,-3.8713,-3.8711,-3.8689,-3.869,-3.7569,-3.5593,-3.5625,-3.5623,-3.5596,-3.5599,-3.5622,-3.5594,-3.5605,-3.561,-3.5264,-3.2494,-3.1481,-3.1471,-3.1471,-3.1519,-3.1482,-3.1482,-3.1485,-3.15,-3.1498,-3.0476,-2.9177,-2.8652,-2.792,-2.7229,-2.6973,-2.7095,-2.7229,-2.6973,-2.6905,-2.6782,-2.6533,-2.6533,-2.6533,-2.6533,-2.6533,-2.6533,-2.6533,-2.6514,-2.6482,-2.6528,-2.8348,-2.9794,-2.9821,-2.9806,-2.9792,-2.9792,-2.9792,-2.9792,-2.9792,-2.9792,-2.9792,-2.9792,-2.9792,-2.9792,-2.9792,-2.9792,-2.9792,-2.9792,-2.9804,-3.0573,-3.2072,-3.2791,-3.3094,-3.3081,-3.3081,-3.3081,0.0,-2.8936,-2.9155,-2.9191,-2.8979,0.0,0.0,0.0,-3.0005,-3.1321,-3.1898,-3.2409,-3.3201,-3.4083,-3.4794,-3.5149,-3.54,0.0,0.0,0.0,0.0,0.0,0.0,0.0,0.0,0.0,0.0,-3.8454,-3.8233,-3.8514,-3.9738,-3.9823,-3.9823,-3.9832,-3.9821,-3.9838,-3.9832,-3.9082,-3.8704,-3.872,-3.8685,-3.8717,-3.8672,-3.7887,-3.6811,-3.5621,-3.5596,-3.5622,0.0,-3.5622,-3.5622,-3.5611,-3.5616,-3.4972,-3.3858,-3.2121,-3.1516,-3.1482,-3.1482,-3.1513,-3.153,-3.153,-3.0652,-2.9596,-2.9596,-2.9171,-2.8461,-2.7485,-2.6905,-2.6533,-2.6533,-2.6533,-2.6533,-2.6533,-2.6533,-2.6533,-2.6533,-2.6533,-2.6533,-2.6533,-2.6533,-2.6533,-2.6533,-2.6532,-2.6754,-2.764,-2.8948,-2.9796,-2.9831,-2.9792,-2.9792,-2.9792,-2.9792,-2.9792,-2.9792,-2.9792,-2.9792,-2.9792,-2.9792,-2.9792,-2.9792,-2.9792,-3.0173,-3.1033,-3.1048,-3.1724,-3.3122,-3.3122,-3.3136,-3.3081,-3.3081,-3.2772,0.0,0.0,0.0,0.0,0.0,0.0,0.0,0.0,0.0,0.0,-3.1408,-3.1899,-3.2714,-3.3858,-3.4775,-3.5105,-3.5345,0.0,0.0,0.0,0.0,0.0,0.0,0.0,0.0,0.0,0.0,-3.5398,-3.4392,-3.5136,-3.8196,-3.8357,-3.8456,-3.8693,-3.8702,-3.869,-3.8692,-3.8693,-3.8615,-3.8469,-3.8473,-3.8483,-3.8389,-3.6499,-3.5604,0.0,-3.5603,-3.5611,-3.5583,-3.5616,-3.5616,-3.5621,-3.5604,-3.3924,-3.1493,-3.1513,-3.1475,-3.1482,-3.1482,-3.1501,-3.1467,-3.1212,-2.9016,-2.6475,-2.6514,-2.7222,-2.7761,-2.6752,-2.6533,-2.6533,-2.6533,-2.6533,-2.6533,-2.6533,-2.6533,-2.6533,-2.6533,-2.6533,-2.6533,-2.6533,-2.6533,-2.6465,-2.649,-2.6487,-2.7264,-2.9473,-2.9802,-2.9834,-2.9831,-2.9792,-2.9792,-2.9792,-2.9792,-2.9792,-2.9792,-2.9792,-2.9792,-2.9792,-2.9792,-2.9792,-2.9792,-2.9792,-3.0853,-3.3027,-3.3125,-3.3122,-3.3122,-3.3101,-3.3068,-3.2982,-3.2982,-3.2091,-2.4043,0.0,-2.7905,-2.7869,0.0,0.0,0.0,0.0,0.0,0.0,0.0,-3.2347,-3.2563,-3.3524,-3.4427,-3.4756,-3.5203,0.0,0.0,0.0,0.0,0.0,0.0,0.0,0.0,0.0,-3.5143,-3.4274,-3.3967,-3.4154,-3.4921,-3.4944,-3.6104,-3.8618,-3.8696,-3.8689,-3.8711,-3.8704,-3.7879,-3.6323,-3.6355,-3.6338,-3.6313,-3.5832,-3.5608,-3.562,-3.5589,-3.5585,-3.5602,-3.5613,-3.5613,-3.5613,-3.561,-3.3937,-3.1528,-3.152,-3.1492,-3.1482,-3.1482,-3.1501,-3.1107,-2.8511,-2.7118,-2.6526,-2.6498,-2.6676,-2.682,-2.6602,-2.6533,-2.6533,-2.6533,-2.6533,-2.6533,-2.6533,-2.6533,-2.6533,-2.6533,-2.6533,-2.6533,-2.6533,-2.6533,-2.6471,-2.6511,-2.6478,-2.7249,-2.9451,-2.9771,-2.9781,-2.9779,-2.9792,-2.9792,-2.9792,-2.9792,-2.9792,-2.9792,-2.9792,-2.9792,-2.9792,-2.9792,-2.9792,-2.9792,-2.9792,-3.0853,-3.3027,-3.3114,-3.3135,-3.3139,-3.3129,-3.2612,-3.1677,-3.1677,-3.1229,-2.3073,-2.4807,-2.661,-2.6574,-2.7086,-2.7632,0.0,0.0,0.0,0.0,0.0,0.0,-3.1952,0.0,0.0,0.0,-3.5063,0.0,0.0,0.0,0.0,0.0,0.0,0.0,0.0,0.0,-3.447,-3.386,-3.3796,-3.3802,-3.3799,-3.3779,-3.4619,-3.6406,-3.6448,-3.717,-3.8704,-3.7756,-3.6698,-3.5615,-3.5605,-3.5621,-3.5579,-3.562,-3.5593,-3.5623,-3.5596,-3.489,-3.3712,-3.3719,-3.3713,-3.371,-3.3713,-3.2835,-3.1479,-3.1516,-3.1482,-3.1497,-3.1515,-3.0517,-2.8889,-2.7063,-2.6477,-2.6515,-2.6539,-2.6533,-2.6533,-2.6533,-2.6533,-2.6533,-2.6533,-2.6533,-2.6533,-2.6533,-2.6533,-2.6533,-2.6533,-2.6533,-2.6533,-2.6533,-2.6533,-2.6496,-2.647,-2.7354,-2.8422,-2.9629,-2.9808,-2.9792,-2.9792,-2.9792,-2.9792,-2.9792,-2.9792,-2.9792,-2.9792,-2.9792,-2.9792,-2.9792,-2.9792,-2.9792,-2.9792,-2.9792,-3.0696,-3.252,-3.2918,-3.3076,-3.3081,-3.2513,-3.1865,-3.1223,-3.0676,-2.9932,-2.2944,-2.3961,-2.5043,-2.5063,-2.6009,-2.693,0.0,0.0,0.0,0.0,0.0,0.0,0.0,0.0,0.0,0.0,0.0,0.0,0.0,0.0,0.0,0.0,0.0,0.0,0.0,-3.3901,-3.3813,-3.3808,-3.3787,-3.3817,-3.3799,-3.3806,-3.3785,-3.38,-3.3552,-3.4742,-3.7548,-3.5791,-3.4927,-3.4918,-3.4916,-3.5188,-3.5589,-3.5177,-3.4956,-3.4966,0.0,0.0,-3.1498,-3.1509,-3.1519,-3.1492,-3.1488,-3.1506,-3.1511,-3.1482,-3.1485,-3.1442,-3.0901,-2.8911,-2.6473,-2.6463,-2.6533,-2.6533,-2.6533,-2.6533,-2.6533,-2.6533,-2.6533,-2.6533,-2.6533,-2.6533,-2.6533,-2.6533,-2.6533,-2.6533,-2.6533,-2.6533,-2.6533,-2.6533,-2.6533,-2.6509,-2.6473,-2.8299,-2.977,-2.9782,-2.977,-2.9792,-2.9792,-2.9792,-2.9792,-2.9792,-2.9792,-2.9817,-2.9789,-2.9802,-2.9468,-2.879,-2.9394,-2.9792,-2.9792,-2.9774,-3.0348,-3.1562,-3.2201,-3.2525,-3.2525,-3.1412,-3.0855,-3.0676,-2.959,-2.8495,-2.2261,-2.2726,-2.3471,-2.3463,-2.361,-2.3813,0.0,0.0,0.0,0.0,0.0,0.0,0.0,0.0,0.0,0.0,0.0,0.0,0.0,0.0,0.0,0.0,0.0,0.0,-3.5155,-3.4363,-3.3816,-3.3786,-3.3792,-3.3804,-3.3799,-3.3802,-3.3806,-3.3794,-3.2371,-3.1828,-3.2336,-3.2035,-3.1902,-3.1884,-3.1891,-3.32,-3.5532,-3.3186,-3.2144,-3.2128,0.0,-3.1903,-3.1486,-3.1496,-3.1485,-3.1516,-3.153,-3.1516,-3.15,-3.1529,-3.1503,-3.1094,-2.8231,-2.6948,-2.6473,-2.6463,-2.6533,-2.6533,-2.6533,-2.6533,-2.6533,-2.6533,-2.6533,-2.6533,-2.6533,-2.6533,-2.6533,-2.6533,-2.6533,-2.6533,-2.6533,-2.6533,-2.6533,-2.6533,-2.6533,-2.6514,-2.6481,-2.8318,-2.9774,-2.9782,-2.9831,-2.9792,-2.9792,-2.9792,-2.9792,-2.9792,-2.9792,-2.9839,-2.9836,-2.9782,-2.8179,-2.4399,-2.7684,-2.9792,-2.9792,-2.963,-2.9654,-2.9918,-2.9973,-2.9954,-2.9954,-2.9772,-2.9131,-2.8132,-2.7955,-2.722,-2.1428,-2.1479,-2.1756,-2.1774,-2.174,0.0,0.0,0.0,0.0,0.0,0.0,0.0,0.0,0.0,0.0,0.0,0.0,0.0,0.0,0.0,0.0,0.0,0.0,-3.4004,-3.4522,-3.3262,-3.2778,-3.3743,-3.2941,-3.2414,-3.2396,-3.2396,-3.2384,-3.2389,-3.1627,-3.1198,-3.1224,-3.1215,-3.1191,-3.1207,-3.1188,-3.1225,-3.123,-2.9969,-2.9381,-2.9388,0.0,-2.9418,-2.9507,-3.0904,-3.147,-3.1519,-3.1486,-3.0406,-2.8811,-2.8816,-2.8803,-2.8603,-2.7039,-2.6483,-2.6485,-2.6471,-2.6533,-2.6533,-2.6533,-2.6533,-2.6533,-2.6533,-2.6533,-2.6533,-2.6533,-2.6094,-2.5664,-2.5664,-2.5664,-2.5664,-2.5664,-2.6094,-2.6289,-2.5578,-2.5975,-2.6519,-2.6492,-2.835,-2.9808,-2.9836,-2.9794,-2.9776,-2.9804,-2.9794,-2.9776,-2.9791,-2.9806,-2.9843,-2.976,-2.7569,-2.5333,-2.3258,-2.7312,-2.9108,-2.7531,-2.8763,-2.9195,-2.8694,-2.9161,-2.9407,-2.9407,-2.8773,-2.8132,-2.7589,-2.6849,-2.6294,-2.0526,-2.0462,-2.0526,-2.0074,0.0,0.0,0.0,0.0,0.0,0.0,0.0,0.0,0.0,0.0,0.0,0.0,0.0,0.0,0.0,0.0,0.0,-3.3023,-3.318,-3.3203,-3.3206,-3.198,-3.1737,-3.3106,-3.195,-3.1202,-3.1202,-3.1202,-3.1196,-3.1219,-3.1196,-3.0933,-3.0346,-3.0352,-3.0635,-3.1196,-3.0642,-2.9372,-2.7588,-2.758,-2.7602,-2.7603,-2.7584,-2.7603,-2.7763,-2.9749,-3.0578,-3.0537,-2.9812,-2.8298,-2.6521,-2.6538,-2.6479,-2.6514,-2.6524,-2.6473,-2.6533,-2.6533,-2.6533,-2.6477,-2.6496,-2.6521,-2.6534,-2.6469,-2.6494,-2.6362,-2.5894,-2.5356,-2.4815,-2.4494,-2.4517,-2.4707,-2.4826,-2.5346,-2.5545,-2.4637,-2.5097,-2.5683,-2.6064,-2.7733,-2.8879,-2.8283,-2.821,-2.821,-2.8229,-2.9126,-2.9364,-2.8345,-2.821,-2.8257,-2.8256,-2.5069,-2.314,-2.314,-2.6687,-2.7754,-2.548,-2.7408,-2.8225,-2.7491,-2.8069,-2.8468,-2.8495,-2.7579,-2.7125,-2.7125,-2.61,-2.5742,-1.9628,-2.0009,-2.0204,-1.8596,0.0,0.0,0.0,0.0,0.0,0.0,0.0,0.0,0.0,0.0,0.0,0.0,0.0,0.0,0.0,0.0,-3.1249,-3.1372,-3.1394,-3.139,-3.1391,-3.1288,-3.1255,-3.1385,-3.1273,-3.1213,-3.1191,-3.1183,-3.1198,-3.1204,-3.1209,-3.0138,-2.7866,-2.7837,-2.8984,-3.1169,-2.8904,-2.7794,-2.7605,-2.761,-2.759,-2.7599,-2.7609,-2.7598,-2.7642,-2.7811,-2.7867,-2.76,-2.478,-2.486,-2.6505,-2.6477,-2.6473,-2.647,-2.6519,-2.6508,-2.6533,-2.6533,-2.6533,-2.6527,-2.6516,-2.6473,-2.6535,-2.6481,-2.6493,-2.6045,-2.4188,-2.4107,-2.4234,-2.2955,-2.315,-2.3795,-2.4424,-2.4112,-2.3857,-2.4412,-2.358,-2.3213,-2.4658,-2.5899,-2.5994,-2.3895,-2.3588,-2.3598,-2.3577,-2.7193,-2.821,-2.4032,-2.3598,-2.3567,-2.3622,-2.3275,-2.3066,-2.3066,-2.4777,-2.5585,-2.5387,-2.5594,-2.5841,-2.6193,-2.5694,-2.5599,-2.6014,-2.5927,-2.583,-2.583,-2.5732,-2.5742,-1.7997,-1.7852,-1.7978,-1.7267,0.0,0.0,0.0,0.0,0.0,0.0,0.0,0.0,0.0,0.0,0.0,0.0,0.0,0.0,0.0,0.0,-2.9544,-3.1021,-3.1224,-3.1211,-3.1207,-3.1194,-3.1217,-3.1207,-3.1213,-3.1208,-3.1191,-2.9778,-2.8958,-2.8968,-2.8949,-2.8529,-2.7628,-2.7576,-2.8041,-2.8939,-2.8035,-2.7605,-2.7571,-2.7592,-2.7608,-2.7608,-2.7607,-2.6548,-2.4778,-2.4817,-2.4778,-2.4681,-2.3527,-2.364,-2.4412,-2.4394,-2.525,-2.6518,-2.6503,-2.6489,-2.649,-2.649,-2.6487,-2.649,-2.6493,-2.4798,-2.2855,-2.2831,-2.2864,-2.2937,-2.3408,-2.3694,-2.362,-2.2488,-2.1913,-2.1956,-2.2763,-2.3272,-2.3356,-2.3018,-2.3058,-2.3045,-2.2731,-2.4061,-2.4643,-2.3327,-2.3138,-2.3113,-2.3062,-2.4565,-2.4988,-2.3271,-2.3063,-2.3071,-2.3103,-2.3066,-2.3135,-2.3135,-2.4299,-2.4672,-2.4023,-2.4871,-2.5155,-2.4646,-2.4987,-2.5146,-2.5322,-2.5605,-2.5742,-2.5742,-2.5742,-2.5742,-1.648,-1.614,-1.614,0.0,0.0,0.0,0.0,0.0,0.0,0.0,0.0,0.0,0.0,0.0,0.0,0.0,0.0,0.0,0.0,-2.7581,-2.8231,-2.9872,-3.0071,-3.0057,-3.0044,-3.0745,-3.0866,-3.0121,-3.0789,-3.088,-3.0108,-2.8489,-2.7582,-2.7593,-2.7595,-2.761,-2.7615,-2.76,-2.7122,-2.619,-2.6165,-2.6179,-2.619,-2.6173,-2.6189,-2.6189,-2.6204,-2.4993,-2.3102,-2.3106,-2.3129,-2.3107,-2.3106,-2.312,-2.3089,-2.3091,-2.407,-2.5421,-2.5428,-2.5461,-2.5318,-2.4848,-2.4672,-2.4641,-2.4661,-2.275,-2.0609,-2.0626,-2.0571,-2.0886,-2.2232,-2.2563,-2.2401,-2.169,-2.108,-2.0847,-2.1769,-2.2339,-2.2478,-2.2103,-2.2339,-2.24,-2.166,-2.2646,-2.3412,-2.3123,-2.3075,-2.3144,-2.3071,-2.3075,-2.3134,-2.3071,-2.3085,-2.3135,-2.3135,-2.3135,-2.3135,-2.3135,-2.379,-2.3877,-2.3135,-2.4102,-2.4422,-2.3789,-2.4365,-2.4727,-2.4863,-2.5176,-2.5322,-2.5322,-2.5322,-2.5322,-1.5163,-1.5163,0.0,0.0,0.0,0.0,0.0,0.0,0.0,0.0,0.0,0.0,0.0,0.0,0.0,0.0,0.0,0.0,-2.7603,-2.76,-2.759,-2.759,-2.7597,-2.7621,-2.7606,-2.9753,-3.0177,-2.776,-2.9785,-3.014,-2.7747,-2.759,-2.7599,-2.7568,-2.7583,-2.753,-2.7578,-2.7578,-2.6078,-2.3099,-2.3127,-2.3101,-2.3086,-2.3099,-2.3099,-2.3113,-2.3083,-2.3122,-2.3103,-2.3106,-2.3078,-2.3078,-2.3078,-2.3078,-2.3092,-2.3089,-2.3051,-2.3071,-2.3012,-2.3029,-2.28,-2.1087,-2.061,-2.0584,-2.0607,-2.0629,-2.0576,-2.0633,-2.0566,-2.0566,-2.0566,-2.0582,-2.0596,-2.0575,-2.0566,-2.0857,-2.1811,-2.1221,-2.0857,-2.1811,-2.1231,-2.085,-2.1728,-2.1885,-2.2168,-2.3018,-2.3135,-2.3135,-2.3135,-2.3135,-2.3135,-2.3135,-2.3135,-2.3135,-2.3135,-2.3135,-2.3135,-2.3135,-2.3135,-2.3135,-2.3135,-2.3135,-2.334,-2.3779,-2.3789,-2.3994,-2.4414,-2.4414,-2.4414,-2.4414,-2.4414,-2.4414,-1.4314,-1.4171,0.0,0.0,0.0,0.0,0.0,0.0,0.0,0.0,0.0,0.0,0.0,0.0,0.0,-2.2887,-2.3826,-2.5172,-2.7308,-2.7613,-2.7627,-2.7627,-2.7615,-2.758,-2.7575,-2.8255,-2.8357,-2.7677,-2.8258,-2.8368,-2.7631,-2.7623,-2.7569,-2.7599,-2.5521,-2.4422,-2.442,-2.4453,-2.3989,-2.3083,-2.3094,-2.3081,-2.3083,-2.3109,-2.3107,-2.3119,-2.3103,-2.3094,-2.3106,-2.3088,-2.3078,-2.3078,-2.3078,-2.3081,-2.3109,-2.3107,-2.1602,-1.9512,-1.9489,-1.9509,-1.9435,-1.895,-1.8773,-1.9015,-2.0222,-2.0632,-2.0621,-2.0633,-2.0566,-2.0566,-2.0566,-2.0575,-2.0613,-2.0624,-2.0566,-2.0644,-2.0934,-2.0789,-2.0712,-2.0934,-2.0789,-2.085,-2.1728,-2.1885,-2.2168,-2.3018,-2.3135,-2.3135,-2.3135,-2.3135,-2.3135,-2.3135,-2.3135,-2.3135,-2.3135,-2.3135,-2.3135,-2.3135,-2.3135,-2.3135,-2.3135,-2.3135,-2.3203,-2.333,-2.3633,-2.3857,-2.3975,-2.4277,-2.4414,-2.4414,-2.4414,-2.4414,-1.2625,0.0,0.0,0.0,0.0,0.0,0.0,0.0,0.0,0.0,0.0,0.0,0.0,0.0,0.0,-2.142,-2.2408,-2.376,-2.5537,-2.5827,-2.5827,-2.5827,-2.5827,-2.584,-2.5791,-2.5784,-2.5823,-2.583,-2.5807,-2.5826,-2.583,-2.5798,-2.5786,-2.5826,-2.407,-2.3093,-2.3121,-2.3109,-2.3107,-2.3107,-2.3097,-2.3075,-2.3106,-2.3088,-2.3078,-2.3078,-2.3081,-2.3131,-2.3083,-2.3071,-2.3121,-2.3121,-2.3121,-2.3108,-2.2967,-2.1562,-1.977,-1.7991,-1.8036,-1.7965,-1.7998,-1.7998,-1.797,-1.8222,-1.9243,-2.0054,-2.0581,-2.0629,-2.0623,-2.0566,-2.0566,-2.0566,-2.0566,-2.0566,-2.0566,-2.0566,-2.0566,-2.0566,-2.0566,-2.0566,-2.0566,-2.085,-2.1728,-2.1885,-2.2168,-2.3018,-2.3135,-2.3135,-2.3135,-2.3135,-2.3135,-2.3135,-2.3135,-2.3135,-2.3135,-2.3135,-2.3135,-2.3135,-2.3135,-2.3135,-2.3135,-2.3135,-2.3135,-2.3135,-2.3398,-2.3525,-2.3525,-2.3789,-2.3906,-2.3906,-2.3906,-2.3906,0.0,0.0,0.0,0.0,0.0,0.0,0.0,0.0,0.0,0.0,0.0,0.0,0.0,0.0,0.0,-1.9156,-2.1095,-2.2724,-2.3075,-2.3122,-2.3076,-2.308,-2.3093,-2.3106,-2.308,-2.3067,-2.308,-2.3106,-2.3093,-2.308,-2.3106,-2.3093,-2.3111,-2.3103,-2.3083,-2.3073,-2.3115,-2.308,-2.308,-2.3115,-2.308,-2.3095,-2.3083,-2.3094,-2.309,-2.3067,-2.3121,-2.2934,-2.265,-2.2675,-2.2655,-2.2655,-2.2655,-2.2667,-2.2262,-1.9173,-1.8035,-1.8029,-1.7997,-1.8008,-1.8008,-1.8008,-1.7996,-1.8037,-1.8024,-1.9146,-2.0387,-2.0562,-2.0572,-2.0566,-2.0566,-2.0566,-2.0566,-2.0566,-2.0566,-2.0566,-2.0566,-2.0566,-2.0566,-2.0566,-2.0566,-2.085,-2.1728,-2.1885,-2.2168,-2.3018,-2.3135,-2.3135,-2.3135,-2.3135,-2.3135,-2.3135,-2.3135,-2.3135,-2.3135,-2.3135,-2.3135,-2.3135,-2.3135,-2.3135,-2.3135,-2.3135,-2.3135,-2.3135,-2.3135,-2.3135,-2.3135,-2.3135,-2.3135,-2.3135,-2.3135,-2.3135,0.0,0.0,0.0,0.0,0.0,0.0,0.0,0.0,0.0,0.0,0.0,0.0,0.0,0.0,-1.6531,-1.7948,-1.8675,-1.9998,-2.2725,-2.3108,-2.3121,-2.3081,-2.31,-2.3103,-2.3103,-2.3077,-2.3119,-2.3117,-2.3097,-2.3119,-2.3117,-2.3085,-2.3115,-2.3072,-2.3117,-2.3096,-2.3109,-2.3093,-2.3093,-2.3121,-2.3105,-2.3118,-2.3083,-2.3094,-2.3081,-2.3071,-2.3116,-2.1597,-1.9073,-1.9073,-1.9094,-1.9094,-1.9094,-1.9103,-1.901,-1.8263,-1.8022,-1.7997,-1.7988,-1.8008,-1.8008,-1.8008,-1.7988,-1.7996,-1.7999,-1.8227,-1.887,-2.0225,-2.0595,-2.0566,-2.0566,-2.0566,-2.0566,-2.0566,-2.0566,-2.0566,-2.0566,-2.0566,-2.0566,-2.0566,-2.0566,-2.085,-2.1728,-2.1885,-2.2168,-2.3018,-2.3135,-2.3135,-2.3135,-2.3135,-2.3135,-2.3135,-2.3135,-2.3135,-2.3135,-2.3135,-2.3135,-2.3135,-2.3135,-2.3135,-2.3135,-2.3135,-2.3135,-2.3135,-2.3135,-2.3135,-2.3135,-2.3135,-2.3135,-2.3135,-2.3135,-2.3135,0.0,0.0,0.0,0.0,0.0,0.0,0.0,0.0,0.0,0.0,0.0,0.0,0.0,0.0,-1.5641,-1.7073,-1.7697,-1.8593,-2.0398,-2.1353,-2.1586,-2.0745,-2.2068,-2.3118,-2.3083,-2.3133,-2.307,-2.3103,-2.1581,-2.1362,-2.3004,-2.3082,-2.3133,-2.3133,-2.3093,-2.2309,-2.0642,-2.0662,-2.0662,-2.0653,-2.2337,-2.2237,-2.0717,-2.2354,-2.2181,-2.0653,-2.0691,-1.9652,-1.8021,-1.8011,-1.8005,-1.8005,-1.8005,-1.8019,-1.8004,-1.8004,-1.8026,-1.8008,-1.8008,-1.8008,-1.8008,-1.8008,-1.7978,-1.8023,-1.7996,-1.8594,-1.9396,-2.0328,-2.0091,-1.9631,-1.9747,-1.9835,-1.9835,-1.9835,-2.0245,-2.0566,-2.0566,-2.0566,-2.0566,-2.0566,-2.0566,-2.085,-2.1728,-2.2217,-2.2637,-2.3076,-2.3135,-2.3135,-2.3135,-2.3135,-2.3135,-2.3135,-2.3135,-2.3135,-2.3135,-2.3135,-2.3135,-2.3135,-2.3135,-2.3135,-2.3135,-2.3135,-2.3135,-2.3135,-2.3135,-2.3135,-2.3135,-2.3135,-2.3135,-2.3135,-2.3135,-2.3135,0.0,0.0,0.0,0.0,0.0,0.0,0.0,0.0,0.0,0.0,0.0,0.0,0.0,-1.4426,-1.4783,-1.5694,-1.6669,-1.7368,-1.7666,-1.8934,-1.9371,-1.8178,-2.0518,-2.221,-2.2256,-2.2244,-2.2192,-2.2251,-1.9598,-1.9222,-2.2063,-2.2204,-2.2244,-2.2244,-2.2227,-2.0876,-1.8029,-1.7995,-1.7995,-1.8029,-2.0888,-2.0736,-1.811,-2.0913,-2.0671,-1.8029,-1.7975,-1.8029,-1.7972,-1.7988,-1.8008,-1.8008,-1.8008,-1.8008,-1.8008,-1.8008,-1.8008,-1.8018,-1.7979,-1.7988,-1.7998,-1.8027,-1.8031,-1.8057,-1.8352,-1.8896,-1.9573,-1.9907,-1.9058,-1.8117,-1.8612,-1.8718,-1.8718,-1.8718,-1.9353,-2.0157,-2.0489,-2.0479,-2.0401,-2.0566,-2.0684,-2.1025,-2.1758,-2.2398,-2.2775,-2.2775,-2.2775,-2.2882,-2.3106,-2.3076,-2.3135,-2.3135,-2.3135,-2.3135,-2.3135,-2.295,-2.2775,-2.2775,-2.2589,-2.2589,-2.2775,-2.2775,-2.2862,-2.3135,-2.3135,-2.3135,-2.3135,-2.3135,-2.3135,-2.3135,-2.3135,-2.3135,0.0,0.0,0.0,0.0,0.0,0.0,0.0,0.0,0.0,0.0,0.0,0.0,-1.1224,-1.1366,-1.1656,-1.2663,-1.3628,-1.4751,-1.6171,-1.6558,-1.7033,-1.7905,-1.8431,-1.869,-1.8689,-1.8647,-1.8687,-1.8664,-1.8281,-1.8165,-1.8654,-1.8653,-1.8647,-1.8647,-1.8692,-1.8481,-1.8031,-1.7994,-1.7994,-1.8031,-1.8481,-1.8471,-1.8045,-1.8502,-1.8429,-1.7975,-1.7976,-1.8027,-1.8027,-1.7998,-1.8008,-1.8008,-1.8008,-1.8008,-1.8008,-1.8008,-1.8008,-1.8027,-1.7977,-1.8025,-1.7963,-1.8012,-1.7971,-1.8285,-1.979,-1.7802,-1.5397,-1.7212,-1.7158,-1.6621,-1.739,-1.7496,-1.7496,-1.7496,-1.7666,-1.8301,-2.0157,-1.9844,-1.952,-2.0401,-2.1182,-2.1748,-2.1865,-2.1682,-2.1569,-2.1569,-2.1569,-2.1919,-2.2964,-2.3086,-2.3135,-2.3135,-2.3135,-2.3135,-2.3135,-2.2129,-2.1569,-2.1569,-2.0576,-2.0486,-2.148,-2.1569,-2.2031,-2.3047,-2.3135,-2.3135,-2.3135,-2.3135,-2.3135,-2.3135,-2.3135,-2.3135,0.0,0.0,0.0,0.0,0.0,0.0,0.0,0.0,0.0,0.0,0.0,0.0,-0.9669,-0.997,-1.0479,-1.1937,-1.2604,-1.3469,-1.5371,-1.5596,-1.5807,-1.6387,-1.6729,-1.6913,-1.6934,-1.6637,-1.6896,-1.7901,-1.7988,-1.7988,-1.7988,-1.8006,-1.8014,-1.8014,-1.8034,-1.7976,-1.7976,-1.8017,-1.8017,-1.7976,-1.8007,-1.7979,-1.8027,-1.7995,-1.8007,-1.7976,-1.8027,-1.7998,-1.8017,-1.8017,-1.8016,-1.7983,-1.7983,-1.7985,-1.8036,-1.8004,-1.7975,-1.7977,-1.8031,-1.6634,-1.484,-1.483,-1.5261,-1.598,-1.6763,-1.6474,-1.5862,-1.5541,-1.5701,-1.5957,-1.6339,-1.6437,-1.6437,-1.6437,-1.6846,-1.7577,-1.855,-1.839,-1.823,-1.863,-1.9424,-1.9978,-1.9978,-2.0167,-2.0305,-2.0305,-2.0305,-2.0645,-2.1663,-2.1788,-2.211,-2.2996,-2.1498,-2.0748,-2.1692,-2.0819,-2.0305,-2.0305,-1.9761,-1.9761,-2.0305,-2.0305,-2.0576,-2.1042,-2.2413,-2.3135,-2.3135,-2.2403,-2.2403,-2.3047,-2.2403,-2.2492,0.0,0.0,0.0,0.0,0.0,0.0,0.0,0.0,0.0,0.0,0.0,-0.6732,-0.8246,-0.877,-0.9362,-1.0828,-1.1495,-1.2378,-1.3845,-1.4291,-1.4522,-1.4807,-1.5237,-1.5572,-1.5857,-1.5321,-1.5517,-1.693,-1.7174,-1.7104,-1.6569,-1.656,-1.6982,-1.7985,-1.7987,-1.7988,-1.8008,-1.8008,-1.8008,-1.8008,-1.8006,-1.7483,-1.656,-1.6563,-1.6553,-1.6597,-1.7567,-1.8016,-1.7913,-1.6921,-1.6571,-1.6555,-1.6555,-1.6545,-1.6666,-1.7656,-1.7352,-1.6526,-1.6518,-1.4686,-1.2358,-1.264,-1.334,-1.4064,-1.4085,-1.5227,-1.6137,-1.4554,-1.4674,-1.5296,-1.5296,-1.5296,-1.5296,-1.5296,-1.5869,-1.6527,-1.6846,-1.709,-1.7204,-1.704,-1.7733,-1.844,-1.8452,-1.8807,-1.9039,-1.9039,-1.9039,-1.9263,-1.9829,-1.9987,-2.0542,-2.1717,-1.9711,-1.8755,-1.9971,-1.9439,-1.9039,-1.9039,-1.8764,-1.8672,-1.9039,-1.9039,-1.9222,-1.9488,-2.123,-2.2227,-2.2227,-2.1302,-2.1302,-2.2138,-2.1302,-2.1302,0.0,0.0,0.0,0.0,0.0,0.0,0.0,0.0,0.0,0.0,0.0,-0.6355,-0.643,-0.7257,-0.7936,-0.8008,-0.9658,-1.0932,-1.1007,-1.1835,-1.2806,-1.3673,-1.3818,-1.4178,-1.5171,-1.464,-1.4293,-1.4371,-1.498,-1.4545,-1.2699,-1.2622,-1.4277,-1.7906,-1.8027,-1.8037,-1.7985,-1.7985,-1.7985,-1.7985,-1.7985,-1.6062,-1.2622,-1.2629,-1.2629,-1.2777,-1.6431,-1.7981,-1.7713,-1.4112,-1.2629,-1.2636,-1.2636,-1.2629,-1.304,-1.6643,-1.5672,-1.2607,-1.258,-1.2492,-1.2461,-1.362,-1.4062,-1.4104,-1.4104,-1.4185,-1.4216,-1.4117,-1.4115,-1.4166,-1.4166,-1.4166,-1.4166,-1.4166,-1.425,-1.4573,-1.5538,-1.6601,-1.7106,-1.6354,-1.7383,-1.8523,-1.8773,-1.8261,-1.7777,-1.7777,-1.7777,-1.7777,-1.7878,-1.821,-1.849,-1.8581,-1.8383,-1.8284,-1.8383,-1.8064,-1.7777,-1.7777,-1.6662,-1.6567,-1.7777,-1.7777,-1.8319,-1.9497,-1.9579,-1.9679,-1.9679,-1.9579,-1.9588,-1.9679,-1.9579,-1.9588,0.0,0.0,0.0,0.0,0.0,0.0,0.0,0.0,0.0,0.0,-0.1168,-0.312,-0.5808,-0.6581,-0.7022,-0.7706,-0.8385,-0.9064,-0.9744,-1.0121,-1.0496,-1.0858,-1.1446,-1.1964,-1.2318,-1.275,-1.3252,-1.3829,-1.3571,-1.3418,-1.3489,-1.2734,-1.2942,-1.43,-1.6688,-1.6794,-1.4363,-1.6783,-1.7976,-1.7967,-1.5522,-1.3588,-1.2319,-1.2335,-1.2297,-1.2376,-1.3725,-1.4343,-1.4243,-1.2892,-1.2294,-1.2297,-1.2297,-1.2322,-1.249,-1.3855,-1.3455,-1.2311,-1.2313,-1.2828,-1.3559,-1.3933,-1.4062,-1.4122,-1.4065,-1.4126,-1.4075,-1.4099,-1.4126,-1.4088,-1.4088,-1.4088,-1.4088,-1.4088,-1.4088,-1.4166,-1.4573,-1.4977,-1.5238,-1.5126,-1.5696,-1.6277,-1.6588,-1.6543,-1.648,-1.648,-1.648,-1.648,-1.648,-1.6619,-1.7051,-1.7787,-1.7145,-1.7051,-1.7887,-1.7008,-1.648,-1.648,-1.6015,-1.6015,-1.648,-1.648,-1.6662,-1.7117,-1.7117,-1.794,-1.9497,-1.868,-1.8772,-1.9497,-1.868,-1.8772,0.0,0.0,0.0,0.0,0.0,0.0,0.0,0.0,0.0,0.0,0.1402,-0.0311,-0.3595,-0.4608,-0.5384,-0.7022,-0.7557,-0.8012,-0.8694,-0.9074,-0.9296,-0.9296,-0.9895,-1.0415,-1.0783,-1.1391,-1.2057,-1.2712,-1.2131,0.0,-1.3477,-1.2785,-1.2278,-1.2317,-1.4768,-1.484,-1.2322,-1.4832,-1.6057,-1.6057,-1.3519,-1.2276,-1.2324,-1.2265,-1.2305,-1.2305,-1.2305,-1.2325,-1.2317,-1.2317,-1.2298,-1.2305,-1.2305,-1.2305,-1.2318,-1.2324,-1.2319,-1.235,-1.2797,-1.3407,-1.4124,-1.4138,-1.4115,-1.4088,-1.4088,-1.4088,-1.4088,-1.4088,-1.4088,-1.4088,-1.4088,-1.4088,-1.4088,-1.4088,-1.4088,-1.4088,-1.4088,-1.4162,-1.4322,-1.4616,-1.4903,-1.5204,-1.5491,-1.5705,-1.5832,-1.5832,-1.5832,-1.5832,-1.5832,-1.5832,-1.6103,-1.6943,-1.6292,-1.6109,-1.6943,-1.6298,-1.5832,-1.5832,-1.5832,-1.5832,-1.5832,-1.5832,-1.5832,-1.5832,-1.5832,-1.656,-1.8303,-1.749,-1.749,-1.8211,-1.7397,-1.749,0.0,0.0,0.0,0.0,0.0,0.0,0.9883,0.0,0.6377,0.0,0.4133,0.1789,0.0467,-0.1089,-0.3037,-0.5879,-0.7107,-0.7783,-0.7783,-0.8618,-0.9226,-0.9226,-0.9226,-0.9669,-1.0634,-1.0708,-1.0783,-1.0783,-1.0783,-1.1198,-1.2195,-1.2276,-1.2317,-1.2311,-1.233,-1.2335,-1.2263,-1.2335,-1.2335,-1.2335,-1.2335,-1.2324,-1.2305,-1.2305,-1.2305,-1.2305,-1.2305,-1.2305,-1.2305,-1.2305,-1.2305,-1.2305,-1.2311,-1.2315,-1.2305,-1.2324,-1.2344,-1.2546,-1.373,-1.4117,-1.4084,-1.4092,-1.4088,-1.4088,-1.4088,-1.4088,-1.4088,-1.4088,-1.4088,-1.4088,-1.4088,-1.4088,-1.4088,-1.4088,-1.4088,-1.4088,-1.4095,-1.4329,-1.4623,-1.491,-1.5197,-1.5491,-1.5778,-1.5832,-1.5832,-1.5832,-1.5832,-1.5832,-1.5832,-1.5832,-1.5832,-1.5832,-1.5832,-1.5832,-1.5832,-1.5832,-1.5832,-1.5832,-1.5832,-1.5832,-1.5832,-1.5832,-1.5832,-1.5832,-1.5832,-1.5832,-1.5832,-1.5832,-1.5832,-1.5832,-1.5832,-1.5832,1.7364,0.0,0.0,0.0,0.0,0.0,1.0822,0.9341,0.8067,0.6623,0.5684,0.4988,0.4641,0.0939,-0.3054,-0.5833,-0.6528,-0.6743,-0.6743,-0.6968,-0.7111,-0.7111,-0.7791,-0.8309,-0.8609,-0.9291,-0.9744,0.0,-0.9744,-1.0126,-1.1192,-1.188,-1.2284,-1.2324,-1.2298,-1.2278,-1.2264,-1.2278,-1.2318,-1.2318,-1.2318,-1.2265,-1.2305,-1.2305,-1.2305,-1.2305,-1.2305,-1.2305,-1.2305,-1.2305,-1.2305,-1.2318,-1.228,-1.2322,-1.242,-1.3267,-1.3625,-1.3635,-1.3988,-1.4069,-1.4072,-1.4062,-1.4088,-1.4088,-1.4088,-1.4088,-1.4088,-1.4088,-1.4088,-1.4088,-1.4088,-1.4088,-1.4088,-1.4088,-1.4088,-1.4142,-1.4355,-1.4629,-1.4863,-1.495,-1.5197,-1.5491,-1.5778,-1.5832,-1.5832,-1.5832,-1.5832,-1.5832,-1.5832,-1.5832,-1.5832,-1.5832,-1.5832,-1.5832,-1.5832,-1.5832,-1.5832,-1.5832,-1.5832,-1.5832,-1.5832,-1.5832,-1.5832,-1.5832,-1.5832,-1.5832,-1.5832,-1.5832,-1.5832,-1.5832,-1.5832,-1.5832,0.0,0.0,0.0,0.0,0.0,0.0,1.1758,1.0312,0.8761,0.0,0.6318,0.6018,0.5112,0.2271,-0.0782,-0.3301,-0.4406,-0.4953,-0.494,-0.4935,-0.5323,-0.6197,-0.6806,-0.7334,-0.7783,-0.8313,-0.8694,-0.8694,-0.8694,-0.8912,-0.9513,-1.0743,-1.1459,-1.1508,-1.0392,-1.0226,-1.1016,-1.1877,-1.233,-1.2284,-1.2284,-1.2284,-1.2284,-1.2284,-1.2304,-1.2276,-1.2276,-1.2335,-1.2283,-1.2319,-1.228,-1.2267,-1.2299,-1.2577,-1.314,-1.3867,-1.413,-1.411,-1.411,-1.4129,-1.4088,-1.4088,-1.4088,-1.4088,-1.4088,-1.4088,-1.4088,-1.4088,-1.4088,-1.4088,-1.4088,-1.4088,-1.4088,-1.4088,-1.4182,-1.4315,-1.4482,-1.485,-1.5144,-1.5144,-1.5378,-1.5631,-1.5798,-1.5832,-1.5832,-1.5832,-1.5832,-1.5832,-1.5832,-1.5832,-1.5832,-1.5832,-1.5832,-1.5832,-1.5832,-1.5832,-1.5832,-1.5832,-1.5832,-1.5832,-1.5832,-1.5832,-1.5832,-1.5832,-1.5832,-1.5832,-1.5832,-1.5832,-1.5832,-1.5832,-1.5832,-1.5832,0.0,0.0,0.0,0.0,0.0,0.0,1.2732,1.0879,0.9069,0.7173,0.6718,0.6167,0.4133,0.3431,0.2497,0.0627,-0.1413,-0.2749,-0.2735,-0.2734,-0.3437,-0.5404,-0.6038,-0.6655,-0.7557,-0.7633,-0.7629,-0.7629,-0.7706,-0.7783,-0.7783,-0.9337,-1.0122,-1.0046,-0.7778,-0.7299,-0.8983,-1.0773,-1.164,-1.1633,-1.2052,-1.2302,-1.2296,-1.1877,-1.1621,-1.1651,-1.1651,-1.1634,-1.1624,-1.1661,-1.1995,-1.2492,-1.2516,-1.3146,-1.4117,-1.407,-1.4061,-1.4088,-1.4095,-1.4095,-1.4088,-1.4088,-1.4088,-1.4088,-1.4088,-1.4088,-1.4088,-1.4088,-1.4088,-1.4088,-1.4088,-1.4088,-1.4095,-1.4128,-1.4335,-1.4536,-1.4603,-1.503,-1.5404,-1.5438,-1.5651,-1.5832,-1.5832,-1.5832,-1.5832,-1.5832,-1.5832,-1.5832,-1.5832,-1.5832,-1.5832,-1.5832,-1.5832,-1.5832,-1.5832,-1.5832,-1.5832,-1.5832,-1.5832,-1.5832,-1.5832,-1.5832,-1.5832,-1.5832,-1.5865,-1.5892,-1.5925,-1.5858,-1.5845,-1.5777,-1.5777,-1.579,0.0,0.0,0.0,0.0,0.0,0.0,1.3636,1.2485,1.1323,0.0,0.9518,0.9221,0.8241,0.5345,0.294,0.2556,0.0779,-0.0627,-0.0627,-0.0627,-0.0782,-0.1173,-0.4226,-0.6352,-0.6581,-0.657,-0.6567,-0.6567,-0.7326,-0.7783,-0.7783,-0.8851,-0.9246,-0.8732,-0.8197,-0.7559,-0.6885,-0.7243,-0.745,-0.7513,-1.0744,-1.2332,-1.2168,-0.8949,-0.7439,-0.75,-0.75,-0.7438,-0.7523,-0.7906,-1.0335,-1.3718,-1.375,-1.3879,-1.4063,-1.4099,-1.4102,-1.4095,-1.4083,-1.4064,-1.4088,-1.4088,-1.4088,-1.4088,-1.4088,-1.4088,-1.4088,-1.4088,-1.4088,-1.4088,-1.4088,-1.4088,-1.4142,-1.4382,-1.4482,-1.4649,-1.5124,-1.5317,-1.5464,-1.5698,-1.5792,-1.5832,-1.5832,-1.5832,-1.5832,-1.5832,-1.5832,-1.5832,-1.5832,-1.5832,-1.5832,-1.5832,-1.5832,-1.5832,-1.5832,-1.5832,-1.5832,-1.5832,-1.5832,-1.5832,-1.5832,-1.5832,-1.5832,-1.5832,-1.6066,-1.6299,-1.6533,-1.6059,-1.5836,-1.5751,-1.5751,-1.5765,0.0,0.0,0.0,1.7432,0.0,0.0,0.0,1.2545,1.1242,1.0045,0.9825,0.9765,0.9818,0.7536,0.5505,0.4804,0.3824,0.2746,0.1722,0.0627,0.0,0.0,-0.3763,-0.6298,-0.6288,-0.6278,-0.6268,-0.6338,-0.6795,-0.7022,-0.7022,-0.7557,-0.7633,-0.7342,-0.7314,-0.6992,-0.6304,-0.628,-0.6332,-0.6311,-0.8376,-0.9271,-0.9271,-0.7184,-0.6312,-0.6321,-0.6565,-0.6685,-0.6746,-0.6961,-0.8455,-1.0831,-1.3168,-1.4126,-1.4062,-1.4064,-1.2655,-1.0952,-1.3249,-1.4097,-1.4137,-1.4083,-1.4064,-1.3874,-1.2729,-1.2395,-1.2431,-1.3033,-1.3203,-1.3379,-1.3913,-1.4195,-1.4342,-1.4482,-1.4743,-1.5037,-1.5331,-1.5511,-1.5658,-1.5798,-1.5248,-1.5045,-1.573,-1.5832,-1.5832,-1.5832,-1.5832,-1.5832,-1.5832,-1.5832,-1.5832,-1.5832,-1.5832,-1.5832,-1.5832,-1.5832,-1.5832,-1.5832,-1.5832,-1.5892,-1.6046,-1.6052,-1.6119,-1.6266,-1.6413,-1.656,-1.6707,-1.6301,-1.6006,-1.5815,-1.5815,-1.6117,0.0,0.0,0.0,0.0,0.0,1.5209,0.0,0.0,0.0,1.0335,1.0115,0.0,0.0,0.0,0.0,0.0,0.0,0.0,0.0,0.2108,0.0,0.0078,-0.2984,-0.528,-0.5662,-0.6048,-0.6278,-0.6264,-0.6264,-0.6264,-0.6338,-0.6338,-0.6338,-0.6338,-0.6338,-0.6338,-0.6338,-0.6338,-0.6318,-0.6283,-0.6311,-0.6325,-0.6328,-0.6311,-0.6331,-0.6481,-0.6947,-0.7095,-0.7056,-0.7097,-0.7063,-0.7442,-1.13,-1.2769,-1.2775,-1.2787,-1.0351,-0.7609,-1.1467,-1.2781,-1.2757,-1.2759,-1.3022,-1.3022,-1.1054,-1.0464,-1.0778,-1.1724,-1.1986,-1.2174,-1.3193,-1.3639,-1.383,-1.3932,-1.4307,-1.4651,-1.4708,-1.4892,-1.5051,-1.5051,-1.4172,-1.3878,-1.5242,-1.5242,-1.5051,-1.5051,-1.5248,-1.5439,-1.5439,-1.5635,-1.5832,-1.5832,-1.5832,-1.5832,-1.5832,-1.5832,-1.5852,-1.5912,-1.5912,-1.6046,-1.6346,-1.6359,-1.6493,-1.6787,-1.6794,-1.682,-1.6874,-1.6753,-1.639,-1.5991,-1.5878,-1.6472,0.0,0.0,0.0,0.0,1.7217,0.0,0.0,0.0,1.4434,1.344,0.0,0.0,0.0,0.0,0.0,0.0,0.0,0.0,0.4317,0.4947,0.4155,0.047,-0.0392,-0.141,-0.3297,-0.5185,-0.6288,-0.6278,-0.6278,-0.6271,-0.6338,-0.6338,-0.6338,-0.6338,-0.6338,-0.6338,-0.6338,-0.6338,-0.6335,-0.6331,-0.6462,-0.6441,-0.6281,-0.626,-0.6572,-0.7052,-0.7073,-0.7073,-0.7115,-0.7109,-0.7119,-0.7126,-0.765,-0.7876,-0.7884,-0.7854,-0.7567,-0.717,-0.7676,-0.7926,-0.7876,-0.7868,-0.9311,-1.0869,-0.9861,-1.0053,-1.0611,-1.0783,-1.0778,-1.0829,-1.1123,-1.1196,-1.1315,-1.1708,-1.1937,-1.2036,-1.225,-1.2318,-1.2334,-1.2334,-1.2237,-1.2528,-1.3878,-1.3108,-1.2334,-1.2334,-1.3397,-1.4166,-1.4166,-1.514,-1.5832,-1.5832,-1.5832,-1.5832,-1.5832,-1.5832,-1.5939,-1.6206,-1.6219,-1.6353,-1.6647,-1.6653,-1.6794,-1.7094,-1.7094,-1.7221,-1.7482,-1.7482,-1.712,-1.6625,-1.6055,-1.642,0.0,0.0,0.0,0.0,0.0,0.0,1.593,0.0,1.4027,0.0,0.0,0.0,0.0,0.0,0.0,0.0,0.7836,0.0,0.0,0.0,0.5179,0.0,0.0,0.0,-0.1254,-0.2115,-0.3129,-0.438,-0.5562,-0.6278,-0.6271,-0.6264,-0.6338,-0.6338,-0.6338,-0.6338,-0.6338,-0.6338,-0.6302,-0.6383,-0.6527,-0.6599,-0.6607,-0.6679,-0.6868,-0.7111,-0.7104,-0.7088,-0.7139,-0.7139,-0.7139,-0.7136,-0.7092,-0.7075,-0.7078,-0.7102,-0.7095,-0.7078,-0.7102,-0.7095,-0.7071,-0.7131,-0.7755,-0.8661,-0.9026,-0.8869,-0.8707,-0.9405,-0.9657,-0.9851,-1.0568,-1.1046,-1.1276,-1.1457,-1.1607,-1.1727,-1.1925,-1.1945,-1.1945,-1.1945,-1.1268,-1.0974,-1.1551,-1.175,-1.1945,-1.1945,-1.2334,-1.2721,-1.2721,-1.3204,-1.3499,-1.3499,-1.4268,-1.4719,-1.488,-1.5686,-1.6213,-1.6506,-1.6687,-1.6834,-1.6961,-1.7121,-1.7275,-1.7402,-1.7402,-1.7462,-1.7582,-1.7582,-1.7515,-1.7166,-1.6932,-1.7108,1.794,0.0,0.0,0.0,0.0,0.0,0.0,0.0,0.0,0.0,0.0,0.0,0.0,0.0,0.0,0.0,0.0,0.7415,0.0,0.7161,0.0,0.0,0.0,0.0,0.0,0.0,-0.0626,-0.2109,-0.3675,-0.5093,-0.6203,-0.6274,-0.6271,-0.6268,-0.6268,-0.6281,-0.6318,-0.6318,-0.639,-0.6536,-0.6661,-0.674,-0.677,-0.7008,-0.7076,-0.7083,-0.7099,-0.7139,-0.7139,-0.7139,-0.7139,-0.7139,-0.7139,-0.7139,-0.7139,-0.7139,-0.7139,-0.7139,-0.7139,-0.7139,-0.7136,-0.7102,-0.7092,-0.7271,-0.8181,-0.7753,-0.7323,-0.8247,-0.8527,-0.882,-0.9739,-1.025,-1.0478,-1.0532,-1.0665,-1.0872,-1.0872,-1.0872,-1.0872,-1.0872,-1.0096,-0.941,-0.941,-1.0194,-1.0872,-1.0872,-1.117,-1.1365,-1.1365,-1.1653,-1.197,-1.1933,-1.2813,-1.3688,-1.4342,-1.5276,-1.611,-1.6807,-1.7101,-1.7268,-1.7268,-1.7468,-1.7582,-1.7582,-1.7582,-1.7582,-1.7582,-1.7582,-1.7582,-1.7582,-1.7582,-1.7582,0.0,0.0,0.0,1.8008,0.0,0.0,0.0,0.0,1.7364,0.0,0.0,0.0,0.0,0.0,0.0,0.0,0.0,0.0,0.0,0.0,0.0,0.0,0.0,0.0,0.0,0.0,-0.0,-0.0078,-0.0157,-0.1956,-0.6054,-0.6295,-0.6288,-0.6278,-0.6278,-0.6339,-0.6464,-0.6464,-0.6542,-0.6695,-0.6844,-0.683,-0.684,-0.6981,-0.7132,-0.7132,-0.7139,-0.7139,-0.7139,-0.7139,-0.7139,-0.7139,-0.7139,-0.7139,-0.7139,-0.7139,-0.7139,-0.7139,-0.7139,-0.7139,-0.7139,-0.7139,-0.7139,-0.7139,-0.7139,-0.7139,-0.717,-0.7413,-0.7458,-0.753,-0.7818,-0.7897,-0.7942,-0.8093,-0.8134,-0.8137,-0.8137,-0.8137,-0.8137,-0.8137,-0.8137,-0.8038,-0.8038,-0.8137,-0.8137,-0.8137,-0.9217,-1.0096,-1.0096,-1.117,-1.1928,-1.2134,-1.2258,-1.2851,-1.441,-1.4642,-1.5371,-1.7114,-1.7408,-1.7569,-1.7569,-1.7582,-1.7582,-1.7582,-1.7582,-1.7582,-1.7582,-1.7582,-1.7582,-1.7582,-1.7582,-1.7582,1.7725,0.0,1.8008,1.8008,0.0,0.0,0.0,0.0,0.0,0.0,0.0,0.0,0.0,0.0,0.0,0.0,0.0,0.0,0.0,0.0,0.0,0.0,0.0,0.0,0.0,0.0,0.0,0.0,0.0,-0.0626,-0.2035,-0.3443,-0.4146,-0.4144,-0.5577,-0.6374,-0.6575,-0.6678,-0.6719,-0.6851,-0.6905,-0.6976,-0.6981,-0.7031,-0.7139,-0.7139,-0.7139,-0.7139,-0.7139,-0.7139,-0.7139,-0.7139,-0.7139,-0.7139,-0.7139,-0.7139,-0.7139,-0.7139,-0.7139,-0.7139,-0.7139,-0.7139,-0.7139,-0.7139,-0.7139,-0.721,-0.7305,-0.7356,-0.7512,-0.7685,-0.7784,-0.7885,-0.7974,-0.8028,-0.8038,-0.8038,-0.8038,-0.8038,-0.8038,-0.8038,-0.8038,-0.8038,-0.8038,-0.8038,-0.8038,-0.8038,-0.8432,-0.8627,-0.8627,-0.9118,-0.9512,-0.9568,-1.0484,-1.1349,-1.2068,-1.3062,-1.4028,-1.454,-1.4725,-1.477,-1.477,-1.477,-1.477,-1.477,-1.477,-1.5204,-1.6174,-1.6174,-1.6605,-1.7582,-1.7582,-1.7582,1.7579,1.7794,1.7501,1.7501,1.7501,0.0,1.6706,0.0,1.614,0.0,0.0,0.0,0.0,0.0,0.0,0.0,0.0,0.0,0.0,0.7553,0.0,0.0,0.0,0.0,0.0,0.047,0.0,0.0,0.0,0.0,0.0,-0.1252,-0.1962,-0.1977,-0.3299,-0.4501,-0.5322,-0.6257,-0.6803,-0.6934,-0.6934,-0.6981,-0.7064,-0.7064,-0.7061,-0.7139,-0.7139,-0.7139,-0.7139,-0.7139,-0.7139,-0.7139,-0.7139,-0.7139,-0.7139,-0.7139,-0.7139,-0.7139,-0.7139,-0.7139,-0.7139,-0.7139,-0.7139,-0.7061,-0.7115,-0.7198,-0.7299,-0.7495,-0.757,-0.7724,-0.7879,-0.7967,-0.8038,-0.8038,-0.8038,-0.8038,-0.8038,-0.8038,-0.8038,-0.8038,-0.8038,-0.8038,-0.8038,-0.8038,-0.8038,-0.8038,-0.8085,-0.8123,-0.8123,-0.8252,-0.8367,-0.8421,-0.9234,-1.0095,-1.0907,-1.2431,-1.3264,-1.3264,-1.3264,-1.3264,-1.3264,-1.3264,-1.3264,-1.3264,-1.3264,-1.3573,-1.4083,-1.4781,-1.601,-1.7649,-1.7649,-1.7629]}]]